Wetterdaten: Mittwoch, 21.08.2019
Datum Zeit Temp. A. Feuchte A. Luftdruck Regen Wind Richtung Richtung Sonnenschein ET UV Solar Taupunkt Windchill Windböen
21.08.2019 00:00 11,4 °C 95 % 1025,0 hPa 0,0 mm 0,0 km/h (0 Bft) N 0 ° 0 min 0,000 mm 0,0 UV-I 0 W/m² 10,6 °C 11,4 °C 0,0 km/h (0 Bft)
21.08.2019 00:01 11,4 °C 95 % 1025,0 hPa 0,0 mm 0,0 km/h (0 Bft) N 0 ° 0 min 0,000 mm 0,0 UV-I 0 W/m² 10,6 °C 11,4 °C 0,0 km/h (0 Bft)
21.08.2019 00:02 11,4 °C 95 % 1025,0 hPa 0,2 mm 0,0 km/h (0 Bft) N 0 ° 0 min 0,000 mm 0,0 UV-I 0 W/m² 10,6 °C 11,4 °C 0,0 km/h (0 Bft)
21.08.2019 00:03 11,4 °C 95 % 1025,0 hPa 0,0 mm 0,0 km/h (0 Bft) N 0 ° 0 min 0,000 mm 0,0 UV-I 0 W/m² 10,6 °C 11,4 °C 0,0 km/h (0 Bft)
21.08.2019 00:04 11,4 °C 95 % 1025,0 hPa 0,0 mm 0,0 km/h (0 Bft) N 0 ° 0 min 0,000 mm 0,0 UV-I 0 W/m² 10,6 °C 11,4 °C 0,0 km/h (0 Bft)
21.08.2019 00:05 11,4 °C 95 % 1025,0 hPa 0,0 mm 0,0 km/h (0 Bft) N 0 ° 0 min 0,000 mm 0,0 UV-I 0 W/m² 10,6 °C 11,4 °C 0,0 km/h (0 Bft)
21.08.2019 00:06 11,4 °C 95 % 1025,0 hPa 0,0 mm 0,0 km/h (0 Bft) N 0 ° 0 min 0,000 mm 0,0 UV-I 0 W/m² 10,6 °C 11,4 °C 0,0 km/h (0 Bft)
21.08.2019 00:07 11,4 °C 95 % 1025,0 hPa 0,0 mm 0,0 km/h (0 Bft) N 0 ° 0 min 0,000 mm 0,0 UV-I 0 W/m² 10,6 °C 11,4 °C 0,0 km/h (0 Bft)
21.08.2019 00:08 11,4 °C 95 % 1025,0 hPa 0,0 mm 0,0 km/h (0 Bft) N 0 ° 0 min 0,000 mm 0,0 UV-I 0 W/m² 10,6 °C 11,4 °C 0,0 km/h (0 Bft)
21.08.2019 00:09 11,4 °C 95 % 1025,0 hPa 0,0 mm 0,0 km/h (0 Bft) N 0 ° 0 min 0,000 mm 0,0 UV-I 0 W/m² 10,6 °C 11,4 °C 0,0 km/h (0 Bft)
21.08.2019 00:10 11,4 °C 95 % 1025,0 hPa 0,0 mm 0,0 km/h (0 Bft) N 0 ° 0 min 0,000 mm 0,0 UV-I 0 W/m² 10,6 °C 11,4 °C 0,0 km/h (0 Bft)
21.08.2019 00:11 11,4 °C 95 % 1024,9 hPa 0,0 mm 0,0 km/h (0 Bft) N 0 ° 0 min 0,000 mm 0,0 UV-I 0 W/m² 10,6 °C 11,4 °C 0,0 km/h (0 Bft)
21.08.2019 00:12 11,4 °C 95 % 1024,9 hPa 0,0 mm 0,0 km/h (0 Bft) N 0 ° 0 min 0,000 mm 0,0 UV-I 0 W/m² 10,6 °C 11,4 °C 0,0 km/h (0 Bft)
21.08.2019 00:13 11,4 °C 95 % 1024,9 hPa 0,2 mm 0,0 km/h (0 Bft) N 0 ° 0 min 0,000 mm 0,0 UV-I 0 W/m² 10,6 °C 11,4 °C 0,0 km/h (0 Bft)
21.08.2019 00:14 11,4 °C 95 % 1024,9 hPa 0,0 mm 0,0 km/h (0 Bft) N 0 ° 0 min 0,000 mm 0,0 UV-I 0 W/m² 10,6 °C 11,4 °C 0,0 km/h (0 Bft)
21.08.2019 00:15 11,5 °C 95 % 1024,8 hPa 0,0 mm 0,0 km/h (0 Bft) N 0 ° 0 min 0,000 mm 0,0 UV-I 0 W/m² 10,7 °C 11,5 °C 0,0 km/h (0 Bft)
21.08.2019 00:16 11,5 °C 95 % 1024,9 hPa 0,0 mm 0,0 km/h (0 Bft) N 0 ° 0 min 0,000 mm 0,0 UV-I 0 W/m² 10,7 °C 11,5 °C 0,0 km/h (0 Bft)
21.08.2019 00:17 11,4 °C 95 % 1024,9 hPa 0,0 mm 0,0 km/h (0 Bft) N 0 ° 0 min 0,000 mm 0,0 UV-I 0 W/m² 10,6 °C 11,4 °C 0,0 km/h (0 Bft)
21.08.2019 00:18 11,4 °C 95 % 1024,9 hPa 0,0 mm 0,0 km/h (0 Bft) N 0 ° 0 min 0,000 mm 0,0 UV-I 0 W/m² 10,6 °C 11,4 °C 0,0 km/h (0 Bft)
21.08.2019 00:19 11,4 °C 95 % 1024,9 hPa 0,0 mm 0,0 km/h (0 Bft) N 0 ° 0 min 0,000 mm 0,0 UV-I 0 W/m² 10,6 °C 11,4 °C 0,0 km/h (0 Bft)
21.08.2019 00:20 11,4 °C 95 % 1025,0 hPa 0,0 mm 0,0 km/h (0 Bft) N 0 ° 0 min 0,000 mm 0,0 UV-I 0 W/m² 10,6 °C 11,4 °C 0,0 km/h (0 Bft)
21.08.2019 00:21 11,4 °C 95 % 1025,0 hPa 0,0 mm 0,0 km/h (0 Bft) N 0 ° 0 min 0,000 mm 0,0 UV-I 0 W/m² 10,6 °C 11,4 °C 0,0 km/h (0 Bft)
21.08.2019 00:23 11,4 °C 95 % 1025,0 hPa 0,2 mm 0,0 km/h (0 Bft) W-NW 285 ° 0 min 0,000 mm 0,0 UV-I 0 W/m² 10,6 °C 11,4 °C 0,0 km/h (0 Bft)
21.08.2019 00:24 11,4 °C 95 % 1025,0 hPa 0,0 mm 0,0 km/h (0 Bft) W-NW 285 ° 0 min 0,000 mm 0,0 UV-I 0 W/m² 10,6 °C 11,4 °C 0,0 km/h (0 Bft)
21.08.2019 00:25 11,5 °C 95 % 1025,0 hPa 0,0 mm 0,0 km/h (0 Bft) W-NW 285 ° 0 min 0,000 mm 0,0 UV-I 0 W/m² 10,7 °C 11,5 °C 0,0 km/h (0 Bft)
21.08.2019 00:26 11,4 °C 95 % 1025,0 hPa 0,0 mm 0,0 km/h (0 Bft) W-NW 285 ° 0 min 0,000 mm 0,0 UV-I 0 W/m² 10,6 °C 11,4 °C 0,0 km/h (0 Bft)
21.08.2019 00:27 11,4 °C 95 % 1025,0 hPa 0,0 mm 0,0 km/h (0 Bft) W-NW 285 ° 0 min 0,000 mm 0,0 UV-I 0 W/m² 10,6 °C 11,4 °C 0,0 km/h (0 Bft)
21.08.2019 00:28 11,4 °C 95 % 1025,0 hPa 0,0 mm 0,0 km/h (0 Bft) W-NW 285 ° 0 min 0,000 mm 0,0 UV-I 0 W/m² 10,6 °C 11,4 °C 0,0 km/h (0 Bft)
21.08.2019 00:29 11,4 °C 95 % 1025,0 hPa 0,0 mm 0,0 km/h (0 Bft) W-NW 285 ° 0 min 0,000 mm 0,0 UV-I 0 W/m² 10,6 °C 11,4 °C 0,0 km/h (0 Bft)
21.08.2019 00:30 11,4 °C 95 % 1025,1 hPa 0,0 mm 1,6 km/h (1 Bft) W-NW 285 ° 0 min 0,000 mm 0,0 UV-I 0 W/m² 10,6 °C 11,4 °C 3,2 km/h (1 Bft)
21.08.2019 00:31 11,4 °C 95 % 1025,1 hPa 0,0 mm 2,0 km/h (1 Bft) W-NW 285 ° 0 min 0,000 mm 0,0 UV-I 0 W/m² 10,6 °C 11,4 °C 3,2 km/h (1 Bft)
21.08.2019 00:32 11,5 °C 95 % 1025,1 hPa 0,0 mm 0,7 km/h (0 Bft) W-NW 285 ° 0 min 0,000 mm 0,0 UV-I 0 W/m² 10,7 °C 11,5 °C 3,2 km/h (1 Bft)
21.08.2019 00:33 11,5 °C 95 % 1025,1 hPa 0,0 mm 0,0 km/h (0 Bft) W-NW 285 ° 0 min 0,000 mm 0,0 UV-I 0 W/m² 10,7 °C 11,5 °C 0,0 km/h (0 Bft)
21.08.2019 00:34 11,4 °C 95 % 1025,1 hPa 0,2 mm 1,2 km/h (1 Bft) W-NW 285 ° 0 min 0,000 mm 0,0 UV-I 0 W/m² 10,6 °C 11,4 °C 4,8 km/h (1 Bft)
21.08.2019 00:35 11,4 °C 95 % 1025,1 hPa 0,0 mm 3,8 km/h (1 Bft) W-NW 285 ° 0 min 0,000 mm 0,0 UV-I 0 W/m² 10,6 °C 11,4 °C 4,8 km/h (1 Bft)
21.08.2019 00:36 11,4 °C 95 % 1025,1 hPa 0,0 mm 2,7 km/h (1 Bft) W-NW 285 ° 0 min 0,000 mm 0,0 UV-I 0 W/m² 10,6 °C 11,4 °C 3,2 km/h (1 Bft)
21.08.2019 00:37 11,4 °C 95 % 1025,1 hPa 0,0 mm 1,6 km/h (1 Bft) W-NW 285 ° 0 min 0,000 mm 0,0 UV-I 0 W/m² 10,6 °C 11,4 °C 3,2 km/h (1 Bft)
21.08.2019 00:38 11,4 °C 95 % 1025,1 hPa 0,0 mm 2,7 km/h (1 Bft) W-NW 285 ° 0 min 0,000 mm 0,0 UV-I 0 W/m² 10,6 °C 11,4 °C 4,8 km/h (1 Bft)
21.08.2019 00:39 11,4 °C 95 % 1025,1 hPa 0,0 mm 1,5 km/h (1 Bft) W-NW 285 ° 0 min 0,000 mm 0,0 UV-I 0 W/m² 10,6 °C 11,4 °C 3,2 km/h (1 Bft)
21.08.2019 00:40 11,4 °C 95 % 1025,1 hPa 0,0 mm 4,0 km/h (1 Bft) W-NW 285 ° 0 min 0,000 mm 0,0 UV-I 0 W/m² 10,6 °C 11,4 °C 4,8 km/h (1 Bft)
21.08.2019 00:41 11,4 °C 95 % 1025,2 hPa 0,0 mm 1,9 km/h (1 Bft) W-NW 285 ° 0 min 0,000 mm 0,0 UV-I 0 W/m² 10,6 °C 11,4 °C 3,2 km/h (1 Bft)
21.08.2019 00:42 11,4 °C 95 % 1025,1 hPa 0,0 mm 0,9 km/h (0 Bft) W-NW 285 ° 0 min 0,000 mm 0,0 UV-I 0 W/m² 10,6 °C 11,4 °C 3,2 km/h (1 Bft)
21.08.2019 00:43 11,4 °C 95 % 1025,2 hPa 0,0 mm 0,0 km/h (0 Bft) W-NW 285 ° 0 min 0,000 mm 0,0 UV-I 0 W/m² 10,6 °C 11,4 °C 0,0 km/h (0 Bft)
21.08.2019 00:44 11,4 °C 95 % 1025,2 hPa 0,2 mm 0,0 km/h (0 Bft) W-NW 285 ° 0 min 0,000 mm 0,0 UV-I 0 W/m² 10,6 °C 11,4 °C 0,0 km/h (0 Bft)
21.08.2019 00:45 11,3 °C 95 % 1025,2 hPa 0,0 mm 0,1 km/h (0 Bft) W-NW 285 ° 0 min 0,000 mm 0,0 UV-I 0 W/m² 10,5 °C 11,3 °C 1,6 km/h (1 Bft)
21.08.2019 00:46 11,3 °C 95 % 1025,1 hPa 0,0 mm 0,0 km/h (0 Bft) W-NW 285 ° 0 min 0,000 mm 0,0 UV-I 0 W/m² 10,5 °C 11,3 °C 0,0 km/h (0 Bft)
21.08.2019 00:47 11,3 °C 95 % 1025,2 hPa 0,0 mm 0,0 km/h (0 Bft) W-NW 285 ° 0 min 0,000 mm 0,0 UV-I 0 W/m² 10,5 °C 11,3 °C 0,0 km/h (0 Bft)
21.08.2019 00:48 11,3 °C 95 % 1025,2 hPa 0,0 mm 0,0 km/h (0 Bft) W-NW 285 ° 0 min 0,000 mm 0,0 UV-I 0 W/m² 10,5 °C 11,3 °C 0,0 km/h (0 Bft)
21.08.2019 00:49 11,3 °C 95 % 1025,2 hPa 0,0 mm 0,0 km/h (0 Bft) W-NW 285 ° 0 min 0,000 mm 0,0 UV-I 0 W/m² 10,5 °C 11,3 °C 0,0 km/h (0 Bft)
21.08.2019 00:50 11,3 °C 95 % 1025,1 hPa 0,0 mm 0,0 km/h (0 Bft) W-NW 285 ° 0 min 0,000 mm 0,0 UV-I 0 W/m² 10,5 °C 11,3 °C 0,0 km/h (0 Bft)
21.08.2019 00:51 11,3 °C 95 % 1025,1 hPa 0,0 mm 0,0 km/h (0 Bft) W-NW 285 ° 0 min 0,000 mm 0,0 UV-I 0 W/m² 10,5 °C 11,3 °C 0,0 km/h (0 Bft)
21.08.2019 00:52 11,3 °C 95 % 1025,1 hPa 0,0 mm 0,0 km/h (0 Bft) W-NW 285 ° 0 min 0,000 mm 0,0 UV-I 0 W/m² 10,5 °C 11,3 °C 0,0 km/h (0 Bft)
21.08.2019 00:53 11,3 °C 95 % 1025,1 hPa 0,0 mm 0,0 km/h (0 Bft) W-NW 285 ° 0 min 0,000 mm 0,0 UV-I 0 W/m² 10,5 °C 11,3 °C 0,0 km/h (0 Bft)
21.08.2019 00:54 11,3 °C 95 % 1025,1 hPa 0,0 mm 0,0 km/h (0 Bft) W-NW 285 ° 0 min 0,000 mm 0,0 UV-I 0 W/m² 10,5 °C 11,3 °C 0,0 km/h (0 Bft)
21.08.2019 00:55 11,3 °C 95 % 1025,1 hPa 0,2 mm 0,0 km/h (0 Bft) W-NW 285 ° 0 min 0,000 mm 0,0 UV-I 0 W/m² 10,5 °C 11,3 °C 0,0 km/h (0 Bft)
21.08.2019 00:56 11,3 °C 95 % 1025,1 hPa 0,0 mm 0,0 km/h (0 Bft) W-NW 285 ° 0 min 0,000 mm 0,0 UV-I 0 W/m² 10,5 °C 11,3 °C 0,0 km/h (0 Bft)
21.08.2019 00:57 11,4 °C 95 % 1025,1 hPa 0,0 mm 0,0 km/h (0 Bft) W-NW 285 ° 0 min 0,000 mm 0,0 UV-I 0 W/m² 10,6 °C 11,4 °C 0,0 km/h (0 Bft)
21.08.2019 00:58 11,4 °C 95 % 1025,1 hPa 0,0 mm 0,0 km/h (0 Bft) W-NW 285 ° 0 min 0,000 mm 0,0 UV-I 0 W/m² 10,6 °C 11,4 °C 0,0 km/h (0 Bft)
21.08.2019 00:59 11,4 °C 95 % 1025,1 hPa 0,0 mm 0,0 km/h (0 Bft) W-NW 285 ° 0 min 0,000 mm 0,0 UV-I 0 W/m² 10,6 °C 11,4 °C 0,0 km/h (0 Bft)
21.08.2019 01:00 11,3 °C 95 % 1025,1 hPa 0,0 mm 0,0 km/h (0 Bft) W-NW 285 ° 0 min 0,000 mm 0,0 UV-I 0 W/m² 10,5 °C 11,3 °C 0,0 km/h (0 Bft)
21.08.2019 01:01 11,3 °C 95 % 1025,1 hPa 0,0 mm 0,0 km/h (0 Bft) W-NW 285 ° 0 min 0,000 mm 0,0 UV-I 0 W/m² 10,5 °C 11,3 °C 0,0 km/h (0 Bft)
21.08.2019 01:02 11,3 °C 95 % 1025,1 hPa 0,0 mm 0,0 km/h (0 Bft) W-NW 285 ° 0 min 0,000 mm 0,0 UV-I 0 W/m² 10,5 °C 11,3 °C 0,0 km/h (0 Bft)
21.08.2019 01:03 11,3 °C 95 % 1025,2 hPa 0,0 mm 0,0 km/h (0 Bft) W-NW 285 ° 0 min 0,000 mm 0,0 UV-I 0 W/m² 10,5 °C 11,3 °C 0,0 km/h (0 Bft)
21.08.2019 01:04 11,3 °C 95 % 1025,1 hPa 0,0 mm 0,0 km/h (0 Bft) W-NW 285 ° 0 min 0,000 mm 0,0 UV-I 0 W/m² 10,5 °C 11,3 °C 0,0 km/h (0 Bft)
21.08.2019 01:05 11,3 °C 95 % 1025,2 hPa 0,2 mm 0,6 km/h (0 Bft) W-NW 285 ° 0 min 0,000 mm 0,0 UV-I 0 W/m² 10,5 °C 11,3 °C 3,2 km/h (1 Bft)
21.08.2019 01:06 11,3 °C 95 % 1025,2 hPa 0,0 mm 0,5 km/h (0 Bft) W-NW 285 ° 0 min 0,000 mm 0,0 UV-I 0 W/m² 10,5 °C 11,3 °C 1,6 km/h (1 Bft)
21.08.2019 01:07 11,3 °C 95 % 1025,2 hPa 0,0 mm 1,8 km/h (1 Bft) W-NW 285 ° 0 min 0,000 mm 0,0 UV-I 0 W/m² 10,5 °C 11,3 °C 3,2 km/h (1 Bft)
21.08.2019 01:08 11,3 °C 95 % 1025,2 hPa 0,0 mm 3,3 km/h (1 Bft) NW 326 ° 0 min 0,000 mm 0,0 UV-I 0 W/m² 10,5 °C 11,3 °C 4,8 km/h (1 Bft)
21.08.2019 01:09 11,3 °C 95 % 1025,2 hPa 0,0 mm 1,0 km/h (0 Bft) N-NW 327 ° 0 min 0,000 mm 0,0 UV-I 0 W/m² 10,5 °C 11,3 °C 3,2 km/h (1 Bft)
21.08.2019 01:10 11,3 °C 95 % 1025,2 hPa 0,0 mm 0,0 km/h (0 Bft) N-NW 327 ° 0 min 0,000 mm 0,0 UV-I 0 W/m² 10,5 °C 11,3 °C 0,0 km/h (0 Bft)
21.08.2019 01:11 11,3 °C 95 % 1025,2 hPa 0,0 mm 0,6 km/h (0 Bft) NW 315 ° 0 min 0,000 mm 0,0 UV-I 0 W/m² 10,5 °C 11,3 °C 4,8 km/h (1 Bft)
21.08.2019 01:12 11,3 °C 95 % 1025,2 hPa 0,0 mm 0,6 km/h (0 Bft) NW 315 ° 0 min 0,000 mm 0,0 UV-I 0 W/m² 10,5 °C 11,3 °C 4,8 km/h (1 Bft)
21.08.2019 01:13 11,2 °C 95 % 1025,2 hPa 0,0 mm 0,0 km/h (0 Bft) NW 315 ° 0 min 0,000 mm 0,0 UV-I 0 W/m² 10,4 °C 11,2 °C 0,0 km/h (0 Bft)
21.08.2019 01:14 11,2 °C 95 % 1025,2 hPa 0,0 mm 0,3 km/h (0 Bft) NW 315 ° 0 min 0,000 mm 0,0 UV-I 0 W/m² 10,4 °C 11,2 °C 1,6 km/h (1 Bft)
21.08.2019 01:15 11,2 °C 95 % 1025,2 hPa 0,0 mm 0,0 km/h (0 Bft) NW 315 ° 0 min 0,000 mm 0,0 UV-I 0 W/m² 10,4 °C 11,2 °C 0,0 km/h (0 Bft)
21.08.2019 01:16 11,2 °C 95 % 1025,2 hPa 0,2 mm 0,0 km/h (0 Bft) NW 315 ° 0 min 0,000 mm 0,0 UV-I 0 W/m² 10,4 °C 11,2 °C 0,0 km/h (0 Bft)
21.08.2019 01:17 11,2 °C 95 % 1025,2 hPa 0,0 mm 0,0 km/h (0 Bft) NW 315 ° 0 min 0,000 mm 0,0 UV-I 0 W/m² 10,4 °C 11,2 °C 0,0 km/h (0 Bft)
21.08.2019 01:18 11,2 °C 95 % 1025,2 hPa 0,0 mm 0,0 km/h (0 Bft) NW 315 ° 0 min 0,000 mm 0,0 UV-I 0 W/m² 10,4 °C 11,2 °C 0,0 km/h (0 Bft)
21.08.2019 01:19 11,3 °C 95 % 1025,2 hPa 0,0 mm 0,0 km/h (0 Bft) NW 315 ° 0 min 0,000 mm 0,0 UV-I 0 W/m² 10,5 °C 11,3 °C 0,0 km/h (0 Bft)
21.08.2019 01:20 11,3 °C 95 % 1025,2 hPa 0,0 mm 0,0 km/h (0 Bft) NW 315 ° 0 min 0,000 mm 0,0 UV-I 0 W/m² 10,5 °C 11,3 °C 0,0 km/h (0 Bft)
21.08.2019 01:21 11,3 °C 95 % 1025,2 hPa 0,0 mm 0,0 km/h (0 Bft) NW 315 ° 0 min 0,000 mm 0,0 UV-I 0 W/m² 10,5 °C 11,3 °C 0,0 km/h (0 Bft)
21.08.2019 01:22 11,3 °C 95 % 1025,2 hPa 0,0 mm 0,0 km/h (0 Bft) NW 315 ° 0 min 0,000 mm 0,0 UV-I 0 W/m² 10,5 °C 11,3 °C 0,0 km/h (0 Bft)
21.08.2019 01:23 11,3 °C 95 % 1025,2 hPa 0,0 mm 0,0 km/h (0 Bft) NW 315 ° 0 min 0,000 mm 0,0 UV-I 0 W/m² 10,5 °C 11,3 °C 0,0 km/h (0 Bft)
21.08.2019 01:24 11,2 °C 95 % 1025,2 hPa 0,0 mm 0,0 km/h (0 Bft) NW 315 ° 0 min 0,000 mm 0,0 UV-I 0 W/m² 10,4 °C 11,2 °C 0,0 km/h (0 Bft)
21.08.2019 01:25 11,3 °C 95 % 1025,2 hPa 0,0 mm 0,0 km/h (0 Bft) NW 315 ° 0 min 0,000 mm 0,0 UV-I 0 W/m² 10,5 °C 11,3 °C 0,0 km/h (0 Bft)
21.08.2019 01:26 11,3 °C 95 % 1025,2 hPa 0,2 mm 0,0 km/h (0 Bft) NW 315 ° 0 min 0,000 mm 0,0 UV-I 0 W/m² 10,5 °C 11,3 °C 0,0 km/h (0 Bft)
21.08.2019 01:27 11,3 °C 95 % 1025,2 hPa 0,0 mm 0,0 km/h (0 Bft) NW 315 ° 0 min 0,000 mm 0,0 UV-I 0 W/m² 10,5 °C 11,3 °C 0,0 km/h (0 Bft)
21.08.2019 01:28 11,3 °C 95 % 1025,2 hPa 0,0 mm 0,0 km/h (0 Bft) NW 315 ° 0 min 0,000 mm 0,0 UV-I 0 W/m² 10,5 °C 11,3 °C 0,0 km/h (0 Bft)
21.08.2019 01:29 11,3 °C 95 % 1025,2 hPa 0,0 mm 0,0 km/h (0 Bft) NW 315 ° 0 min 0,000 mm 0,0 UV-I 0 W/m² 10,5 °C 11,3 °C 0,0 km/h (0 Bft)
21.08.2019 01:30 11,3 °C 95 % 1025,2 hPa 0,0 mm 0,0 km/h (0 Bft) NW 315 ° 0 min 0,000 mm 0,0 UV-I 0 W/m² 10,5 °C 11,3 °C 0,0 km/h (0 Bft)
21.08.2019 01:31 11,3 °C 95 % 1025,2 hPa 0,0 mm 0,0 km/h (0 Bft) NW 315 ° 0 min 0,000 mm 0,0 UV-I 0 W/m² 10,5 °C 11,3 °C 0,0 km/h (0 Bft)
21.08.2019 01:32 11,3 °C 95 % 1025,2 hPa 0,0 mm 0,0 km/h (0 Bft) NW 315 ° 0 min 0,000 mm 0,0 UV-I 0 W/m² 10,5 °C 11,3 °C 0,0 km/h (0 Bft)
21.08.2019 01:33 11,2 °C 95 % 1025,2 hPa 0,0 mm 0,0 km/h (0 Bft) NW 315 ° 0 min 0,000 mm 0,0 UV-I 0 W/m² 10,4 °C 11,2 °C 0,0 km/h (0 Bft)
21.08.2019 01:34 11,2 °C 95 % 1025,2 hPa 0,0 mm 0,0 km/h (0 Bft) NW 315 ° 0 min 0,000 mm 0,0 UV-I 0 W/m² 10,4 °C 11,2 °C 0,0 km/h (0 Bft)
21.08.2019 01:35 11,2 °C 95 % 1025,1 hPa 0,0 mm 0,0 km/h (0 Bft) NW 315 ° 0 min 0,000 mm 0,0 UV-I 0 W/m² 10,4 °C 11,2 °C 0,0 km/h (0 Bft)
21.08.2019 01:36 11,2 °C 95 % 1025,1 hPa 0,2 mm 0,0 km/h (0 Bft) NW 315 ° 0 min 0,000 mm 0,0 UV-I 0 W/m² 10,4 °C 11,2 °C 0,0 km/h (0 Bft)
21.08.2019 01:37 11,2 °C 95 % 1025,1 hPa 0,0 mm 0,0 km/h (0 Bft) NW 315 ° 0 min 0,000 mm 0,0 UV-I 0 W/m² 10,4 °C 11,2 °C 0,0 km/h (0 Bft)
21.08.2019 01:38 11,2 °C 95 % 1025,2 hPa 0,0 mm 0,0 km/h (0 Bft) NW 315 ° 0 min 0,000 mm 0,0 UV-I 0 W/m² 10,4 °C 11,2 °C 0,0 km/h (0 Bft)
21.08.2019 01:39 11,2 °C 95 % 1025,2 hPa 0,0 mm 0,0 km/h (0 Bft) NW 315 ° 0 min 0,000 mm 0,0 UV-I 0 W/m² 10,4 °C 11,2 °C 0,0 km/h (0 Bft)
21.08.2019 01:40 11,2 °C 95 % 1025,2 hPa 0,0 mm 0,0 km/h (0 Bft) NW 315 ° 0 min 0,000 mm 0,0 UV-I 0 W/m² 10,4 °C 11,2 °C 0,0 km/h (0 Bft)
21.08.2019 01:41 11,2 °C 95 % 1025,2 hPa 0,0 mm 0,0 km/h (0 Bft) NW 315 ° 0 min 0,000 mm 0,0 UV-I 0 W/m² 10,4 °C 11,2 °C 0,0 km/h (0 Bft)
21.08.2019 01:42 11,2 °C 95 % 1025,3 hPa 0,0 mm 0,0 km/h (0 Bft) NW 315 ° 0 min 0,000 mm 0,0 UV-I 0 W/m² 10,4 °C 11,2 °C 0,0 km/h (0 Bft)
21.08.2019 01:43 11,2 °C 95 % 1025,3 hPa 0,0 mm 0,0 km/h (0 Bft) NW 315 ° 0 min 0,000 mm 0,0 UV-I 0 W/m² 10,4 °C 11,2 °C 0,0 km/h (0 Bft)
21.08.2019 01:44 11,2 °C 95 % 1025,3 hPa 0,0 mm 0,0 km/h (0 Bft) NW 315 ° 0 min 0,000 mm 0,0 UV-I 0 W/m² 10,4 °C 11,2 °C 0,0 km/h (0 Bft)
21.08.2019 01:45 11,2 °C 95 % 1025,2 hPa 0,0 mm 0,0 km/h (0 Bft) NW 315 ° 0 min 0,000 mm 0,0 UV-I 0 W/m² 10,4 °C 11,2 °C 0,0 km/h (0 Bft)
21.08.2019 01:46 11,2 °C 95 % 1025,2 hPa 0,2 mm 0,0 km/h (0 Bft) NW 315 ° 0 min 0,000 mm 0,0 UV-I 0 W/m² 10,4 °C 11,2 °C 0,0 km/h (0 Bft)
21.08.2019 01:47 11,2 °C 95 % 1025,1 hPa 0,0 mm 0,1 km/h (0 Bft) NW 315 ° 0 min 0,000 mm 0,0 UV-I 0 W/m² 10,4 °C 11,2 °C 1,6 km/h (1 Bft)
21.08.2019 01:48 11,1 °C 95 % 1025,1 hPa 0,0 mm 0,4 km/h (0 Bft) NW 315 ° 0 min 0,000 mm 0,0 UV-I 0 W/m² 10,3 °C 11,1 °C 1,6 km/h (1 Bft)
21.08.2019 01:49 11,1 °C 95 % 1025,1 hPa 0,0 mm 0,0 km/h (0 Bft) NW 315 ° 0 min 0,000 mm 0,0 UV-I 0 W/m² 10,3 °C 11,1 °C 0,0 km/h (0 Bft)
21.08.2019 01:50 11,1 °C 95 % 1025,1 hPa 0,0 mm 0,0 km/h (0 Bft) NW 315 ° 0 min 0,000 mm 0,0 UV-I 0 W/m² 10,3 °C 11,1 °C 0,0 km/h (0 Bft)
21.08.2019 01:51 11,1 °C 95 % 1025,2 hPa 0,0 mm 0,0 km/h (0 Bft) NW 315 ° 0 min 0,000 mm 0,0 UV-I 0 W/m² 10,3 °C 11,1 °C 0,0 km/h (0 Bft)
21.08.2019 01:52 11,1 °C 95 % 1025,2 hPa 0,0 mm 0,0 km/h (0 Bft) NW 315 ° 0 min 0,000 mm 0,0 UV-I 0 W/m² 10,3 °C 11,1 °C 0,0 km/h (0 Bft)
21.08.2019 01:53 11,2 °C 95 % 1025,3 hPa 0,0 mm 0,0 km/h (0 Bft) NW 315 ° 0 min 0,000 mm 0,0 UV-I 0 W/m² 10,4 °C 11,2 °C 0,0 km/h (0 Bft)
21.08.2019 01:54 11,1 °C 95 % 1025,2 hPa 0,0 mm 0,0 km/h (0 Bft) NW 315 ° 0 min 0,000 mm 0,0 UV-I 0 W/m² 10,3 °C 11,1 °C 0,0 km/h (0 Bft)
21.08.2019 01:55 11,1 °C 95 % 1025,3 hPa 0,0 mm 0,0 km/h (0 Bft) NW 315 ° 0 min 0,000 mm 0,0 UV-I 0 W/m² 10,3 °C 11,1 °C 0,0 km/h (0 Bft)
21.08.2019 01:56 11,2 °C 95 % 1025,3 hPa 0,2 mm 0,0 km/h (0 Bft) NW 315 ° 0 min 0,000 mm 0,0 UV-I 0 W/m² 10,4 °C 11,2 °C 0,0 km/h (0 Bft)
21.08.2019 01:57 11,1 °C 95 % 1025,3 hPa 0,0 mm 0,0 km/h (0 Bft) NW 315 ° 0 min 0,000 mm 0,0 UV-I 0 W/m² 10,3 °C 11,1 °C 0,0 km/h (0 Bft)
21.08.2019 01:58 11,1 °C 95 % 1025,4 hPa 0,0 mm 0,2 km/h (0 Bft) NW 315 ° 0 min 0,000 mm 0,0 UV-I 0 W/m² 10,3 °C 11,1 °C 1,6 km/h (1 Bft)
21.08.2019 01:59 11,2 °C 95 % 1025,4 hPa 0,0 mm 0,0 km/h (0 Bft) NW 315 ° 0 min 0,000 mm 0,0 UV-I 0 W/m² 10,4 °C 11,2 °C 0,0 km/h (0 Bft)
21.08.2019 02:00 11,1 °C 95 % 1025,4 hPa 0,0 mm 0,0 km/h (0 Bft) NW 315 ° 0 min 0,000 mm 0,0 UV-I 0 W/m² 10,3 °C 11,1 °C 0,0 km/h (0 Bft)
21.08.2019 02:01 11,1 °C 95 % 1025,4 hPa 0,0 mm 0,0 km/h (0 Bft) NW 315 ° 0 min 0,000 mm 0,0 UV-I 0 W/m² 10,3 °C 11,1 °C 0,0 km/h (0 Bft)
21.08.2019 02:02 11,1 °C 95 % 1025,4 hPa 0,0 mm 0,0 km/h (0 Bft) NW 315 ° 0 min 0,000 mm 0,0 UV-I 0 W/m² 10,3 °C 11,1 °C 0,0 km/h (0 Bft)
21.08.2019 02:03 11,1 °C 95 % 1025,4 hPa 0,0 mm 0,0 km/h (0 Bft) NW 315 ° 0 min 0,000 mm 0,0 UV-I 0 W/m² 10,3 °C 11,1 °C 0,0 km/h (0 Bft)
21.08.2019 02:04 11,1 °C 95 % 1025,4 hPa 0,0 mm 0,0 km/h (0 Bft) NW 315 ° 0 min 0,000 mm 0,0 UV-I 0 W/m² 10,3 °C 11,1 °C 0,0 km/h (0 Bft)
21.08.2019 02:05 11,1 °C 95 % 1025,4 hPa 0,0 mm 0,0 km/h (0 Bft) NW 315 ° 0 min 0,000 mm 0,0 UV-I 0 W/m² 10,3 °C 11,1 °C 0,0 km/h (0 Bft)
21.08.2019 02:06 11,2 °C 96 % 1025,5 hPa 0,2 mm 0,0 km/h (0 Bft) NW 315 ° 0 min 0,000 mm 0,0 UV-I 0 W/m² 10,6 °C 11,2 °C 0,0 km/h (0 Bft)
21.08.2019 02:07 11,2 °C 96 % 1025,5 hPa 0,0 mm 2,1 km/h (1 Bft) NW 315 ° 0 min 0,000 mm 0,0 UV-I 0 W/m² 10,6 °C 11,2 °C 3,2 km/h (1 Bft)
21.08.2019 02:08 11,2 °C 96 % 1025,4 hPa 0,0 mm 1,9 km/h (1 Bft) NW 315 ° 0 min 0,000 mm 0,0 UV-I 0 W/m² 10,6 °C 11,2 °C 3,2 km/h (1 Bft)
21.08.2019 02:09 11,2 °C 96 % 1025,4 hPa 0,0 mm 0,0 km/h (0 Bft) NW 315 ° 0 min 0,000 mm 0,0 UV-I 0 W/m² 10,6 °C 11,2 °C 0,0 km/h (0 Bft)
21.08.2019 02:10 11,2 °C 95 % 1025,4 hPa 0,0 mm 0,0 km/h (0 Bft) NW 315 ° 0 min 0,000 mm 0,0 UV-I 0 W/m² 10,4 °C 11,2 °C 0,0 km/h (0 Bft)
21.08.2019 02:11 11,2 °C 95 % 1025,4 hPa 0,0 mm 0,0 km/h (0 Bft) NW 315 ° 0 min 0,000 mm 0,0 UV-I 0 W/m² 10,4 °C 11,2 °C 0,0 km/h (0 Bft)
21.08.2019 02:12 11,1 °C 95 % 1025,4 hPa 0,0 mm 0,0 km/h (0 Bft) NW 315 ° 0 min 0,000 mm 0,0 UV-I 0 W/m² 10,3 °C 11,1 °C 0,0 km/h (0 Bft)
21.08.2019 02:13 11,1 °C 95 % 1025,4 hPa 0,0 mm 0,0 km/h (0 Bft) NW 315 ° 0 min 0,000 mm 0,0 UV-I 0 W/m² 10,3 °C 11,1 °C 0,0 km/h (0 Bft)
21.08.2019 02:14 11,1 °C 95 % 1025,4 hPa 0,0 mm 0,0 km/h (0 Bft) NW 315 ° 0 min 0,000 mm 0,0 UV-I 0 W/m² 10,3 °C 11,1 °C 0,0 km/h (0 Bft)
21.08.2019 02:15 11,1 °C 95 % 1025,4 hPa 0,0 mm 0,0 km/h (0 Bft) NW 315 ° 0 min 0,000 mm 0,0 UV-I 0 W/m² 10,3 °C 11,1 °C 0,0 km/h (0 Bft)
21.08.2019 02:16 11,1 °C 95 % 1025,5 hPa 0,0 mm 0,0 km/h (0 Bft) NW 315 ° 0 min 0,000 mm 0,0 UV-I 0 W/m² 10,3 °C 11,1 °C 0,0 km/h (0 Bft)
21.08.2019 02:17 11,1 °C 95 % 1025,5 hPa 0,2 mm 0,0 km/h (0 Bft) NW 315 ° 0 min 0,000 mm 0,0 UV-I 0 W/m² 10,3 °C 11,1 °C 0,0 km/h (0 Bft)
21.08.2019 02:18 11,1 °C 95 % 1025,5 hPa 0,0 mm 0,0 km/h (0 Bft) NW 315 ° 0 min 0,000 mm 0,0 UV-I 0 W/m² 10,3 °C 11,1 °C 0,0 km/h (0 Bft)
21.08.2019 02:19 11,0 °C 95 % 1025,4 hPa 0,0 mm 0,0 km/h (0 Bft) NW 315 ° 0 min 0,000 mm 0,0 UV-I 0 W/m² 10,2 °C 11,0 °C 0,0 km/h (0 Bft)
21.08.2019 02:20 11,0 °C 95 % 1025,3 hPa 0,0 mm 0,0 km/h (0 Bft) NW 315 ° 0 min 0,000 mm 0,0 UV-I 0 W/m² 10,2 °C 11,0 °C 0,0 km/h (0 Bft)
21.08.2019 02:21 11,0 °C 95 % 1025,4 hPa 0,0 mm 0,0 km/h (0 Bft) NW 315 ° 0 min 0,000 mm 0,0 UV-I 0 W/m² 10,2 °C 11,0 °C 0,0 km/h (0 Bft)
21.08.2019 02:22 11,0 °C 95 % 1025,4 hPa 0,0 mm 0,0 km/h (0 Bft) NW 315 ° 0 min 0,000 mm 0,0 UV-I 0 W/m² 10,2 °C 11,0 °C 0,0 km/h (0 Bft)
21.08.2019 02:23 11,1 °C 95 % 1025,4 hPa 0,0 mm 0,0 km/h (0 Bft) NW 315 ° 0 min 0,000 mm 0,0 UV-I 0 W/m² 10,3 °C 11,1 °C 0,0 km/h (0 Bft)
21.08.2019 02:24 11,1 °C 95 % 1025,4 hPa 0,0 mm 0,0 km/h (0 Bft) NW 315 ° 0 min 0,000 mm 0,0 UV-I 0 W/m² 10,3 °C 11,1 °C 0,0 km/h (0 Bft)
21.08.2019 02:25 11,0 °C 95 % 1025,4 hPa 0,0 mm 0,0 km/h (0 Bft) NW 315 ° 0 min 0,000 mm 0,0 UV-I 0 W/m² 10,2 °C 11,0 °C 0,0 km/h (0 Bft)
21.08.2019 02:26 11,0 °C 95 % 1025,3 hPa 0,0 mm 0,0 km/h (0 Bft) NW 315 ° 0 min 0,000 mm 0,0 UV-I 0 W/m² 10,2 °C 11,0 °C 0,0 km/h (0 Bft)
21.08.2019 02:27 11,0 °C 95 % 1025,3 hPa 0,0 mm 0,0 km/h (0 Bft) NW 315 ° 0 min 0,000 mm 0,0 UV-I 0 W/m² 10,2 °C 11,0 °C 0,0 km/h (0 Bft)
21.08.2019 02:28 11,0 °C 95 % 1025,3 hPa 0,2 mm 0,0 km/h (0 Bft) NW 315 ° 0 min 0,000 mm 0,0 UV-I 0 W/m² 10,2 °C 11,0 °C 0,0 km/h (0 Bft)
21.08.2019 02:29 11,0 °C 95 % 1025,3 hPa 0,0 mm 0,0 km/h (0 Bft) NW 315 ° 0 min 0,000 mm 0,0 UV-I 0 W/m² 10,2 °C 11,0 °C 0,0 km/h (0 Bft)
21.08.2019 02:30 10,9 °C 95 % 1025,3 hPa 0,0 mm 0,0 km/h (0 Bft) NW 315 ° 0 min 0,000 mm 0,0 UV-I 0 W/m² 10,1 °C 10,9 °C 0,0 km/h (0 Bft)
21.08.2019 02:31 10,9 °C 95 % 1025,3 hPa 0,0 mm 0,0 km/h (0 Bft) NW 315 ° 0 min 0,000 mm 0,0 UV-I 0 W/m² 10,1 °C 10,9 °C 0,0 km/h (0 Bft)
21.08.2019 02:32 10,9 °C 95 % 1025,3 hPa 0,0 mm 0,0 km/h (0 Bft) NW 315 ° 0 min 0,000 mm 0,0 UV-I 0 W/m² 10,1 °C 10,9 °C 0,0 km/h (0 Bft)
21.08.2019 02:33 10,9 °C 95 % 1025,3 hPa 0,0 mm 0,0 km/h (0 Bft) NW 315 ° 0 min 0,000 mm 0,0 UV-I 0 W/m² 10,1 °C 10,9 °C 0,0 km/h (0 Bft)
21.08.2019 02:34 10,9 °C 95 % 1025,3 hPa 0,0 mm 0,0 km/h (0 Bft) NW 315 ° 0 min 0,000 mm 0,0 UV-I 0 W/m² 10,1 °C 10,9 °C 0,0 km/h (0 Bft)
21.08.2019 02:35 10,9 °C 95 % 1025,3 hPa 0,0 mm 0,0 km/h (0 Bft) NW 315 ° 0 min 0,000 mm 0,0 UV-I 0 W/m² 10,1 °C 10,9 °C 0,0 km/h (0 Bft)
21.08.2019 02:36 10,9 °C 95 % 1025,3 hPa 0,0 mm 0,0 km/h (0 Bft) NW 315 ° 0 min 0,000 mm 0,0 UV-I 0 W/m² 10,1 °C 10,9 °C 0,0 km/h (0 Bft)
21.08.2019 02:37 10,8 °C 95 % 1025,3 hPa 0,0 mm 0,0 km/h (0 Bft) NW 315 ° 0 min 0,000 mm 0,0 UV-I 0 W/m² 10,0 °C 10,8 °C 0,0 km/h (0 Bft)
21.08.2019 02:38 10,8 °C 95 % 1025,4 hPa 0,0 mm 0,0 km/h (0 Bft) NW 315 ° 0 min 0,000 mm 0,0 UV-I 0 W/m² 10,0 °C 10,8 °C 0,0 km/h (0 Bft)
21.08.2019 02:39 10,8 °C 95 % 1025,5 hPa 0,2 mm 0,0 km/h (0 Bft) NW 315 ° 0 min 0,000 mm 0,0 UV-I 0 W/m² 10,0 °C 10,8 °C 0,0 km/h (0 Bft)
21.08.2019 02:40 10,8 °C 95 % 1025,5 hPa 0,0 mm 0,0 km/h (0 Bft) NW 315 ° 0 min 0,000 mm 0,0 UV-I 0 W/m² 10,0 °C 10,8 °C 0,0 km/h (0 Bft)
21.08.2019 02:41 10,8 °C 95 % 1025,5 hPa 0,0 mm 0,0 km/h (0 Bft) NW 315 ° 0 min 0,000 mm 0,0 UV-I 0 W/m² 10,0 °C 10,8 °C 0,0 km/h (0 Bft)
21.08.2019 02:42 10,8 °C 95 % 1025,5 hPa 0,0 mm 0,0 km/h (0 Bft) NW 315 ° 0 min 0,000 mm 0,0 UV-I 0 W/m² 10,0 °C 10,8 °C 0,0 km/h (0 Bft)
21.08.2019 02:43 10,8 °C 95 % 1025,5 hPa 0,0 mm 0,0 km/h (0 Bft) NW 315 ° 0 min 0,000 mm 0,0 UV-I 0 W/m² 10,0 °C 10,8 °C 0,0 km/h (0 Bft)
21.08.2019 02:44 10,8 °C 95 % 1025,6 hPa 0,0 mm 0,0 km/h (0 Bft) NW 315 ° 0 min 0,000 mm 0,0 UV-I 0 W/m² 10,0 °C 10,8 °C 0,0 km/h (0 Bft)
21.08.2019 02:45 10,8 °C 95 % 1025,6 hPa 0,0 mm 0,0 km/h (0 Bft) NW 315 ° 0 min 0,000 mm 0,0 UV-I 0 W/m² 10,0 °C 10,8 °C 0,0 km/h (0 Bft)
21.08.2019 02:46 10,8 °C 95 % 1025,6 hPa 0,0 mm 0,0 km/h (0 Bft) NW 315 ° 0 min 0,000 mm 0,0 UV-I 0 W/m² 10,0 °C 10,8 °C 0,0 km/h (0 Bft)
21.08.2019 02:47 10,8 °C 95 % 1025,6 hPa 0,0 mm 0,0 km/h (0 Bft) NW 315 ° 0 min 0,000 mm 0,0 UV-I 0 W/m² 10,0 °C 10,8 °C 0,0 km/h (0 Bft)
21.08.2019 02:48 10,8 °C 95 % 1025,5 hPa 0,0 mm 0,0 km/h (0 Bft) NW 315 ° 0 min 0,000 mm 0,0 UV-I 0 W/m² 10,0 °C 10,8 °C 0,0 km/h (0 Bft)
21.08.2019 02:49 10,8 °C 96 % 1025,5 hPa 0,2 mm 0,0 km/h (0 Bft) NW 315 ° 0 min 0,000 mm 0,0 UV-I 0 W/m² 10,2 °C 10,8 °C 0,0 km/h (0 Bft)
21.08.2019 02:50 10,8 °C 96 % 1025,5 hPa 0,0 mm 0,0 km/h (0 Bft) NW 315 ° 0 min 0,000 mm 0,0 UV-I 0 W/m² 10,2 °C 10,8 °C 0,0 km/h (0 Bft)
21.08.2019 02:51 10,8 °C 96 % 1025,5 hPa 0,0 mm 0,0 km/h (0 Bft) NW 315 ° 0 min 0,000 mm 0,0 UV-I 0 W/m² 10,2 °C 10,8 °C 0,0 km/h (0 Bft)
21.08.2019 02:52 10,8 °C 96 % 1025,5 hPa 0,0 mm 0,0 km/h (0 Bft) NW 315 ° 0 min 0,000 mm 0,0 UV-I 0 W/m² 10,2 °C 10,8 °C 0,0 km/h (0 Bft)
21.08.2019 02:53 10,8 °C 95 % 1025,6 hPa 0,0 mm 0,0 km/h (0 Bft) NW 315 ° 0 min 0,000 mm 0,0 UV-I 0 W/m² 10,0 °C 10,8 °C 0,0 km/h (0 Bft)
21.08.2019 02:54 10,8 °C 96 % 1025,6 hPa 0,0 mm 0,0 km/h (0 Bft) NW 315 ° 0 min 0,000 mm 0,0 UV-I 0 W/m² 10,2 °C 10,8 °C 0,0 km/h (0 Bft)
21.08.2019 02:55 10,8 °C 96 % 1025,6 hPa 0,0 mm 0,0 km/h (0 Bft) NW 315 ° 0 min 0,000 mm 0,0 UV-I 0 W/m² 10,2 °C 10,8 °C 0,0 km/h (0 Bft)
21.08.2019 02:56 10,8 °C 95 % 1025,6 hPa 0,0 mm 0,0 km/h (0 Bft) NW 315 ° 0 min 0,000 mm 0,0 UV-I 0 W/m² 10,0 °C 10,8 °C 0,0 km/h (0 Bft)
21.08.2019 02:57 10,8 °C 95 % 1025,6 hPa 0,0 mm 0,0 km/h (0 Bft) NW 315 ° 0 min 0,000 mm 0,0 UV-I 0 W/m² 10,0 °C 10,8 °C 0,0 km/h (0 Bft)
21.08.2019 02:58 10,8 °C 95 % 1025,6 hPa 0,0 mm 0,0 km/h (0 Bft) NW 315 ° 0 min 0,000 mm 0,0 UV-I 0 W/m² 10,0 °C 10,8 °C 0,0 km/h (0 Bft)
21.08.2019 02:59 10,8 °C 96 % 1025,6 hPa 0,0 mm 0,0 km/h (0 Bft) NW 315 ° 0 min 0,000 mm 0,0 UV-I 0 W/m² 10,2 °C 10,8 °C 0,0 km/h (0 Bft)
21.08.2019 03:00 10,8 °C 95 % 1025,6 hPa 0,0 mm 0,0 km/h (0 Bft) NW 315 ° 0 min 0,000 mm 0,0 UV-I 0 W/m² 10,0 °C 10,8 °C 0,0 km/h (0 Bft)
21.08.2019 03:01 10,8 °C 95 % 1025,5 hPa 0,2 mm 0,0 km/h (0 Bft) NW 315 ° 0 min 0,000 mm 0,0 UV-I 0 W/m² 10,0 °C 10,8 °C 0,0 km/h (0 Bft)
21.08.2019 03:02 10,8 °C 95 % 1025,5 hPa 0,0 mm 0,0 km/h (0 Bft) NW 315 ° 0 min 0,000 mm 0,0 UV-I 0 W/m² 10,0 °C 10,8 °C 0,0 km/h (0 Bft)
21.08.2019 03:03 10,8 °C 95 % 1025,5 hPa 0,0 mm 0,0 km/h (0 Bft) NW 315 ° 0 min 0,000 mm 0,0 UV-I 0 W/m² 10,0 °C 10,8 °C 0,0 km/h (0 Bft)
21.08.2019 03:04 10,8 °C 95 % 1025,5 hPa 0,0 mm 0,0 km/h (0 Bft) NW 315 ° 0 min 0,000 mm 0,0 UV-I 0 W/m² 10,0 °C 10,8 °C 0,0 km/h (0 Bft)
21.08.2019 03:05 10,8 °C 95 % 1025,5 hPa 0,0 mm 0,0 km/h (0 Bft) NW 315 ° 0 min 0,000 mm 0,0 UV-I 0 W/m² 10,0 °C 10,8 °C 0,0 km/h (0 Bft)
21.08.2019 03:06 10,8 °C 95 % 1025,5 hPa 0,0 mm 0,0 km/h (0 Bft) NW 315 ° 0 min 0,000 mm 0,0 UV-I 0 W/m² 10,0 °C 10,8 °C 0,0 km/h (0 Bft)
21.08.2019 03:07 10,8 °C 96 % 1025,4 hPa 0,0 mm 0,0 km/h (0 Bft) NW 315 ° 0 min 0,000 mm 0,0 UV-I 0 W/m² 10,2 °C 10,8 °C 0,0 km/h (0 Bft)
21.08.2019 03:08 10,8 °C 96 % 1025,4 hPa 0,0 mm 0,0 km/h (0 Bft) NW 315 ° 0 min 0,000 mm 0,0 UV-I 0 W/m² 10,2 °C 10,8 °C 0,0 km/h (0 Bft)
21.08.2019 03:09 10,8 °C 96 % 1025,5 hPa 0,0 mm 0,0 km/h (0 Bft) NW 315 ° 0 min 0,000 mm 0,0 UV-I 0 W/m² 10,2 °C 10,8 °C 0,0 km/h (0 Bft)
21.08.2019 03:10 10,8 °C 96 % 1025,4 hPa 0,0 mm 0,0 km/h (0 Bft) NW 315 ° 0 min 0,000 mm 0,0 UV-I 0 W/m² 10,2 °C 10,8 °C 0,0 km/h (0 Bft)
21.08.2019 03:11 10,8 °C 96 % 1025,3 hPa 0,0 mm 0,0 km/h (0 Bft) NW 315 ° 0 min 0,000 mm 0,0 UV-I 0 W/m² 10,2 °C 10,8 °C 0,0 km/h (0 Bft)
21.08.2019 03:12 10,8 °C 96 % 1025,3 hPa 0,0 mm 0,0 km/h (0 Bft) NW 315 ° 0 min 0,000 mm 0,0 UV-I 0 W/m² 10,2 °C 10,8 °C 0,0 km/h (0 Bft)
21.08.2019 03:13 10,8 °C 95 % 1025,2 hPa 0,2 mm 0,0 km/h (0 Bft) NW 315 ° 0 min 0,000 mm 0,0 UV-I 0 W/m² 10,0 °C 10,8 °C 0,0 km/h (0 Bft)
21.08.2019 03:14 10,8 °C 95 % 1025,2 hPa 0,0 mm 0,0 km/h (0 Bft) NW 315 ° 0 min 0,000 mm 0,0 UV-I 0 W/m² 10,0 °C 10,8 °C 0,0 km/h (0 Bft)
21.08.2019 03:15 10,8 °C 95 % 1025,2 hPa 0,0 mm 0,0 km/h (0 Bft) NW 315 ° 0 min 0,000 mm 0,0 UV-I 0 W/m² 10,0 °C 10,8 °C 0,0 km/h (0 Bft)
21.08.2019 03:16 10,8 °C 95 % 1025,1 hPa 0,0 mm 0,0 km/h (0 Bft) NW 315 ° 0 min 0,000 mm 0,0 UV-I 0 W/m² 10,0 °C 10,8 °C 0,0 km/h (0 Bft)
21.08.2019 03:17 10,8 °C 95 % 1025,1 hPa 0,0 mm 0,0 km/h (0 Bft) NW 315 ° 0 min 0,000 mm 0,0 UV-I 0 W/m² 10,0 °C 10,8 °C 0,0 km/h (0 Bft)
21.08.2019 03:18 10,8 °C 95 % 1025,1 hPa 0,0 mm 0,0 km/h (0 Bft) NW 315 ° 0 min 0,000 mm 0,0 UV-I 0 W/m² 10,0 °C 10,8 °C 0,0 km/h (0 Bft)
21.08.2019 03:19 10,8 °C 95 % 1025,1 hPa 0,0 mm 0,0 km/h (0 Bft) NW 315 ° 0 min 0,000 mm 0,0 UV-I 0 W/m² 10,0 °C 10,8 °C 0,0 km/h (0 Bft)
21.08.2019 03:20 10,8 °C 95 % 1025,1 hPa 0,0 mm 0,0 km/h (0 Bft) NW 315 ° 0 min 0,000 mm 0,0 UV-I 0 W/m² 10,0 °C 10,8 °C 0,0 km/h (0 Bft)
21.08.2019 03:21 10,8 °C 95 % 1025,1 hPa 0,0 mm 0,0 km/h (0 Bft) NW 315 ° 0 min 0,000 mm 0,0 UV-I 0 W/m² 10,0 °C 10,8 °C 0,0 km/h (0 Bft)
21.08.2019 03:22 10,7 °C 95 % 1025,1 hPa 0,0 mm 0,0 km/h (0 Bft) NW 315 ° 0 min 0,000 mm 0,0 UV-I 0 W/m² 9,9 °C 10,7 °C 0,0 km/h (0 Bft)
21.08.2019 03:23 10,7 °C 95 % 1025,1 hPa 0,0 mm 0,0 km/h (0 Bft) NW 315 ° 0 min 0,000 mm 0,0 UV-I 0 W/m² 9,9 °C 10,7 °C 0,0 km/h (0 Bft)
21.08.2019 03:24 10,7 °C 95 % 1025,1 hPa 0,0 mm 0,0 km/h (0 Bft) NW 315 ° 0 min 0,000 mm 0,0 UV-I 0 W/m² 9,9 °C 10,7 °C 0,0 km/h (0 Bft)
21.08.2019 03:25 10,7 °C 95 % 1025,1 hPa 0,2 mm 0,0 km/h (0 Bft) NW 315 ° 0 min 0,000 mm 0,0 UV-I 0 W/m² 9,9 °C 10,7 °C 0,0 km/h (0 Bft)
21.08.2019 03:26 10,7 °C 95 % 1025,1 hPa 0,0 mm 0,0 km/h (0 Bft) NW 315 ° 0 min 0,000 mm 0,0 UV-I 0 W/m² 9,9 °C 10,7 °C 0,0 km/h (0 Bft)
21.08.2019 03:27 10,7 °C 95 % 1025,2 hPa 0,0 mm 0,0 km/h (0 Bft) NW 315 ° 0 min 0,000 mm 0,0 UV-I 0 W/m² 9,9 °C 10,7 °C 0,0 km/h (0 Bft)
21.08.2019 03:28 10,7 °C 95 % 1025,2 hPa 0,0 mm 0,0 km/h (0 Bft) NW 315 ° 0 min 0,000 mm 0,0 UV-I 0 W/m² 9,9 °C 10,7 °C 0,0 km/h (0 Bft)
21.08.2019 03:29 10,7 °C 95 % 1025,2 hPa 0,0 mm 0,0 km/h (0 Bft) NW 315 ° 0 min 0,000 mm 0,0 UV-I 0 W/m² 9,9 °C 10,7 °C 0,0 km/h (0 Bft)
21.08.2019 03:30 10,7 °C 95 % 1025,2 hPa 0,0 mm 0,0 km/h (0 Bft) NW 315 ° 0 min 0,000 mm 0,0 UV-I 0 W/m² 9,9 °C 10,7 °C 0,0 km/h (0 Bft)
21.08.2019 03:31 10,7 °C 95 % 1025,2 hPa 0,0 mm 0,0 km/h (0 Bft) NW 315 ° 0 min 0,000 mm 0,0 UV-I 0 W/m² 9,9 °C 10,7 °C 0,0 km/h (0 Bft)
21.08.2019 03:32 10,7 °C 95 % 1025,3 hPa 0,0 mm 0,0 km/h (0 Bft) NW 315 ° 0 min 0,000 mm 0,0 UV-I 0 W/m² 9,9 °C 10,7 °C 0,0 km/h (0 Bft)
21.08.2019 03:33 10,7 °C 95 % 1025,3 hPa 0,0 mm 0,0 km/h (0 Bft) NW 315 ° 0 min 0,000 mm 0,0 UV-I 0 W/m² 9,9 °C 10,7 °C 0,0 km/h (0 Bft)
21.08.2019 03:34 10,7 °C 95 % 1025,3 hPa 0,0 mm 0,0 km/h (0 Bft) NW 315 ° 0 min 0,000 mm 0,0 UV-I 0 W/m² 9,9 °C 10,7 °C 0,0 km/h (0 Bft)
21.08.2019 03:35 10,6 °C 96 % 1025,2 hPa 0,0 mm 0,0 km/h (0 Bft) NW 315 ° 0 min 0,000 mm 0,0 UV-I 0 W/m² 10,0 °C 10,6 °C 0,0 km/h (0 Bft)
21.08.2019 03:36 10,6 °C 95 % 1025,3 hPa 0,2 mm 0,0 km/h (0 Bft) NW 315 ° 0 min 0,000 mm 0,0 UV-I 0 W/m² 9,8 °C 10,6 °C 0,0 km/h (0 Bft)
21.08.2019 03:37 10,6 °C 96 % 1025,3 hPa 0,0 mm 0,0 km/h (0 Bft) NW 315 ° 0 min 0,000 mm 0,0 UV-I 0 W/m² 10,0 °C 10,6 °C 0,0 km/h (0 Bft)
21.08.2019 03:38 10,7 °C 96 % 1025,3 hPa 0,0 mm 0,0 km/h (0 Bft) NW 315 ° 0 min 0,000 mm 0,0 UV-I 0 W/m² 10,1 °C 10,7 °C 0,0 km/h (0 Bft)
21.08.2019 03:39 10,7 °C 96 % 1025,3 hPa 0,0 mm 0,0 km/h (0 Bft) NW 315 ° 0 min 0,000 mm 0,0 UV-I 0 W/m² 10,1 °C 10,7 °C 0,0 km/h (0 Bft)
21.08.2019 03:40 10,7 °C 95 % 1025,2 hPa 0,0 mm 0,0 km/h (0 Bft) NW 315 ° 0 min 0,000 mm 0,0 UV-I 0 W/m² 9,9 °C 10,7 °C 0,0 km/h (0 Bft)
21.08.2019 03:41 10,7 °C 96 % 1025,3 hPa 0,0 mm 0,0 km/h (0 Bft) NW 315 ° 0 min 0,000 mm 0,0 UV-I 0 W/m² 10,1 °C 10,7 °C 0,0 km/h (0 Bft)
21.08.2019 03:42 10,7 °C 96 % 1025,2 hPa 0,0 mm 0,0 km/h (0 Bft) NW 315 ° 0 min 0,000 mm 0,0 UV-I 0 W/m² 10,1 °C 10,7 °C 0,0 km/h (0 Bft)
21.08.2019 03:43 10,7 °C 96 % 1025,3 hPa 0,0 mm 0,1 km/h (0 Bft) NW 317 ° 0 min 0,000 mm 0,0 UV-I 0 W/m² 10,1 °C 10,7 °C 1,6 km/h (1 Bft)
21.08.2019 03:44 10,8 °C 96 % 1025,3 hPa 0,0 mm 0,5 km/h (0 Bft) NW 317 ° 0 min 0,000 mm 0,0 UV-I 0 W/m² 10,2 °C 10,8 °C 1,6 km/h (1 Bft)
21.08.2019 03:45 10,8 °C 96 % 1025,4 hPa 0,0 mm 0,9 km/h (0 Bft) NW 317 ° 0 min 0,000 mm 0,0 UV-I 0 W/m² 10,2 °C 10,8 °C 3,2 km/h (1 Bft)
21.08.2019 03:46 10,8 °C 96 % 1025,4 hPa 0,0 mm 0,0 km/h (0 Bft) NW 317 ° 0 min 0,000 mm 0,0 UV-I 0 W/m² 10,2 °C 10,8 °C 0,0 km/h (0 Bft)
21.08.2019 03:47 10,8 °C 96 % 1025,4 hPa 0,0 mm 0,0 km/h (0 Bft) NW 317 ° 0 min 0,000 mm 0,0 UV-I 0 W/m² 10,2 °C 10,8 °C 0,0 km/h (0 Bft)
21.08.2019 03:48 10,8 °C 96 % 1025,4 hPa 0,0 mm 0,0 km/h (0 Bft) NW 317 ° 0 min 0,000 mm 0,0 UV-I 0 W/m² 10,2 °C 10,8 °C 0,0 km/h (0 Bft)
21.08.2019 03:49 10,8 °C 96 % 1025,4 hPa 0,2 mm 0,0 km/h (0 Bft) NW 317 ° 0 min 0,000 mm 0,0 UV-I 0 W/m² 10,2 °C 10,8 °C 0,0 km/h (0 Bft)
21.08.2019 03:50 10,8 °C 96 % 1025,3 hPa 0,0 mm 0,0 km/h (0 Bft) NW 317 ° 0 min 0,000 mm 0,0 UV-I 0 W/m² 10,2 °C 10,8 °C 0,0 km/h (0 Bft)
21.08.2019 03:51 10,8 °C 96 % 1025,5 hPa 0,0 mm 0,0 km/h (0 Bft) NW 317 ° 0 min 0,000 mm 0,0 UV-I 0 W/m² 10,2 °C 10,8 °C 0,0 km/h (0 Bft)
21.08.2019 03:52 10,9 °C 96 % 1025,5 hPa 0,0 mm 0,0 km/h (0 Bft) NW 317 ° 0 min 0,000 mm 0,0 UV-I 0 W/m² 10,3 °C 10,9 °C 0,0 km/h (0 Bft)
21.08.2019 03:53 10,9 °C 96 % 1025,5 hPa 0,0 mm 0,0 km/h (0 Bft) NW 317 ° 0 min 0,000 mm 0,0 UV-I 0 W/m² 10,3 °C 10,9 °C 0,0 km/h (0 Bft)
21.08.2019 03:54 10,8 °C 96 % 1025,5 hPa 0,0 mm 0,0 km/h (0 Bft) NW 317 ° 0 min 0,000 mm 0,0 UV-I 0 W/m² 10,2 °C 10,8 °C 0,0 km/h (0 Bft)
21.08.2019 03:55 10,9 °C 96 % 1025,6 hPa 0,0 mm 0,0 km/h (0 Bft) NW 317 ° 0 min 0,000 mm 0,0 UV-I 0 W/m² 10,3 °C 10,9 °C 0,0 km/h (0 Bft)
21.08.2019 03:56 10,9 °C 96 % 1025,6 hPa 0,0 mm 0,0 km/h (0 Bft) NW 317 ° 0 min 0,000 mm 0,0 UV-I 0 W/m² 10,3 °C 10,9 °C 0,0 km/h (0 Bft)
21.08.2019 03:57 10,9 °C 96 % 1025,6 hPa 0,0 mm 0,0 km/h (0 Bft) NW 317 ° 0 min 0,000 mm 0,0 UV-I 0 W/m² 10,3 °C 10,9 °C 0,0 km/h (0 Bft)
21.08.2019 03:58 10,9 °C 96 % 1025,7 hPa 0,0 mm 0,0 km/h (0 Bft) NW 317 ° 0 min 0,000 mm 0,0 UV-I 0 W/m² 10,3 °C 10,9 °C 0,0 km/h (0 Bft)
21.08.2019 03:59 10,9 °C 96 % 1025,6 hPa 0,0 mm 0,0 km/h (0 Bft) NW 317 ° 0 min 0,000 mm 0,0 UV-I 0 W/m² 10,3 °C 10,9 °C 0,0 km/h (0 Bft)
21.08.2019 04:00 10,9 °C 96 % 1025,6 hPa 0,0 mm 0,0 km/h (0 Bft) NW 317 ° 0 min 0,000 mm 0,0 UV-I 0 W/m² 10,3 °C 10,9 °C 0,0 km/h (0 Bft)
21.08.2019 04:01 10,8 °C 96 % 1025,6 hPa 0,2 mm 0,0 km/h (0 Bft) NW 317 ° 0 min 0,000 mm 0,0 UV-I 0 W/m² 10,2 °C 10,8 °C 0,0 km/h (0 Bft)
21.08.2019 04:02 10,8 °C 96 % 1025,6 hPa 0,0 mm 0,0 km/h (0 Bft) NW 317 ° 0 min 0,000 mm 0,0 UV-I 0 W/m² 10,2 °C 10,8 °C 0,0 km/h (0 Bft)
21.08.2019 04:03 10,8 °C 96 % 1025,6 hPa 0,0 mm 0,0 km/h (0 Bft) NW 317 ° 0 min 0,000 mm 0,0 UV-I 0 W/m² 10,2 °C 10,8 °C 0,0 km/h (0 Bft)
21.08.2019 04:04 10,8 °C 96 % 1025,6 hPa 0,0 mm 0,0 km/h (0 Bft) NW 317 ° 0 min 0,000 mm 0,0 UV-I 0 W/m² 10,2 °C 10,8 °C 0,0 km/h (0 Bft)
21.08.2019 04:05 10,8 °C 96 % 1025,6 hPa 0,0 mm 0,0 km/h (0 Bft) NW 317 ° 0 min 0,000 mm 0,0 UV-I 0 W/m² 10,2 °C 10,8 °C 0,0 km/h (0 Bft)
21.08.2019 04:06 10,8 °C 96 % 1025,6 hPa 0,0 mm 0,0 km/h (0 Bft) NW 317 ° 0 min 0,000 mm 0,0 UV-I 0 W/m² 10,2 °C 10,8 °C 0,0 km/h (0 Bft)
21.08.2019 04:07 10,8 °C 96 % 1025,6 hPa 0,0 mm 0,0 km/h (0 Bft) NW 317 ° 0 min 0,000 mm 0,0 UV-I 0 W/m² 10,2 °C 10,8 °C 0,0 km/h (0 Bft)
21.08.2019 04:08 10,8 °C 96 % 1025,6 hPa 0,0 mm 0,0 km/h (0 Bft) NW 317 ° 0 min 0,000 mm 0,0 UV-I 0 W/m² 10,2 °C 10,8 °C 0,0 km/h (0 Bft)
21.08.2019 04:09 10,8 °C 95 % 1025,7 hPa 0,0 mm 0,0 km/h (0 Bft) NW 317 ° 0 min 0,000 mm 0,0 UV-I 0 W/m² 10,0 °C 10,8 °C 0,0 km/h (0 Bft)
21.08.2019 04:10 10,8 °C 95 % 1025,6 hPa 0,0 mm 0,0 km/h (0 Bft) NW 317 ° 0 min 0,000 mm 0,0 UV-I 0 W/m² 10,0 °C 10,8 °C 0,0 km/h (0 Bft)
21.08.2019 04:11 10,7 °C 95 % 1025,6 hPa 0,0 mm 0,0 km/h (0 Bft) NW 317 ° 0 min 0,000 mm 0,0 UV-I 0 W/m² 9,9 °C 10,7 °C 0,0 km/h (0 Bft)
21.08.2019 04:12 10,8 °C 95 % 1025,6 hPa 0,0 mm 0,3 km/h (0 Bft) SO 132 ° 0 min 0,000 mm 0,0 UV-I 0 W/m² 10,0 °C 10,8 °C 3,2 km/h (1 Bft)
21.08.2019 04:13 10,8 °C 95 % 1025,6 hPa 0,0 mm 2,7 km/h (1 Bft) SO 132 ° 0 min 0,000 mm 0,0 UV-I 0 W/m² 10,0 °C 10,8 °C 4,8 km/h (1 Bft)
21.08.2019 04:14 10,8 °C 95 % 1025,6 hPa 0,2 mm 2,1 km/h (1 Bft) SO 132 ° 0 min 0,000 mm 0,0 UV-I 0 W/m² 10,0 °C 10,8 °C 3,2 km/h (1 Bft)
21.08.2019 04:15 10,8 °C 95 % 1025,6 hPa 0,0 mm 1,1 km/h (1 Bft) SO 132 ° 0 min 0,000 mm 0,0 UV-I 0 W/m² 10,0 °C 10,8 °C 3,2 km/h (1 Bft)
21.08.2019 04:16 10,8 °C 95 % 1025,7 hPa 0,0 mm 0,0 km/h (0 Bft) SO 132 ° 0 min 0,000 mm 0,0 UV-I 0 W/m² 10,0 °C 10,8 °C 0,0 km/h (0 Bft)
21.08.2019 04:17 10,8 °C 95 % 1025,7 hPa 0,0 mm 0,0 km/h (0 Bft) SO 132 ° 0 min 0,000 mm 0,0 UV-I 0 W/m² 10,0 °C 10,8 °C 0,0 km/h (0 Bft)
21.08.2019 04:18 10,8 °C 95 % 1025,7 hPa 0,0 mm 0,0 km/h (0 Bft) SO 132 ° 0 min 0,000 mm 0,0 UV-I 0 W/m² 10,0 °C 10,8 °C 0,0 km/h (0 Bft)
21.08.2019 04:19 10,7 °C 95 % 1025,7 hPa 0,0 mm 0,0 km/h (0 Bft) SO 132 ° 0 min 0,000 mm 0,0 UV-I 0 W/m² 9,9 °C 10,7 °C 0,0 km/h (0 Bft)
21.08.2019 04:20 10,7 °C 95 % 1025,6 hPa 0,0 mm 0,0 km/h (0 Bft) SO 132 ° 0 min 0,000 mm 0,0 UV-I 0 W/m² 9,9 °C 10,7 °C 0,0 km/h (0 Bft)
21.08.2019 04:21 10,8 °C 95 % 1025,6 hPa 0,0 mm 0,0 km/h (0 Bft) SO 132 ° 0 min 0,000 mm 0,0 UV-I 0 W/m² 10,0 °C 10,8 °C 0,0 km/h (0 Bft)
21.08.2019 04:22 10,7 °C 95 % 1025,6 hPa 0,0 mm 0,0 km/h (0 Bft) SO 132 ° 0 min 0,000 mm 0,0 UV-I 0 W/m² 9,9 °C 10,7 °C 0,0 km/h (0 Bft)
21.08.2019 04:23 10,7 °C 95 % 1025,6 hPa 0,0 mm 0,0 km/h (0 Bft) SO 132 ° 0 min 0,000 mm 0,0 UV-I 0 W/m² 9,9 °C 10,7 °C 0,0 km/h (0 Bft)
21.08.2019 04:24 10,7 °C 95 % 1025,6 hPa 0,0 mm 0,1 km/h (0 Bft) SO 132 ° 0 min 0,000 mm 0,0 UV-I 0 W/m² 9,9 °C 10,7 °C 1,6 km/h (1 Bft)
21.08.2019 04:25 10,7 °C 95 % 1025,5 hPa 0,0 mm 0,0 km/h (0 Bft) SO 132 ° 0 min 0,000 mm 0,0 UV-I 0 W/m² 9,9 °C 10,7 °C 0,0 km/h (0 Bft)
21.08.2019 04:26 10,7 °C 95 % 1025,5 hPa 0,2 mm 0,4 km/h (0 Bft) SO 132 ° 0 min 0,000 mm 0,0 UV-I 0 W/m² 9,9 °C 10,7 °C 1,6 km/h (1 Bft)
21.08.2019 04:27 10,7 °C 95 % 1025,5 hPa 0,0 mm 1,3 km/h (1 Bft) SO 132 ° 0 min 0,000 mm 0,0 UV-I 0 W/m² 9,9 °C 10,7 °C 3,2 km/h (1 Bft)
21.08.2019 04:28 10,7 °C 95 % 1025,5 hPa 0,0 mm 1,6 km/h (1 Bft) SO 132 ° 0 min 0,000 mm 0,0 UV-I 0 W/m² 9,9 °C 10,7 °C 3,2 km/h (1 Bft)
21.08.2019 04:29 10,7 °C 95 % 1025,5 hPa 0,0 mm 1,9 km/h (1 Bft) SO 132 ° 0 min 0,000 mm 0,0 UV-I 0 W/m² 9,9 °C 10,7 °C 3,2 km/h (1 Bft)
21.08.2019 04:30 10,7 °C 95 % 1025,5 hPa 0,0 mm 2,0 km/h (1 Bft) SO 132 ° 0 min 0,000 mm 0,0 UV-I 0 W/m² 9,9 °C 10,7 °C 3,2 km/h (1 Bft)
21.08.2019 04:31 10,7 °C 95 % 1025,6 hPa 0,0 mm 0,4 km/h (0 Bft) SO 132 ° 0 min 0,000 mm 0,0 UV-I 0 W/m² 9,9 °C 10,7 °C 1,6 km/h (1 Bft)
21.08.2019 04:32 10,7 °C 95 % 1025,5 hPa 0,0 mm 0,0 km/h (0 Bft) SO 132 ° 0 min 0,000 mm 0,0 UV-I 0 W/m² 9,9 °C 10,7 °C 0,0 km/h (0 Bft)
21.08.2019 04:33 10,7 °C 95 % 1025,5 hPa 0,0 mm 0,0 km/h (0 Bft) SO 132 ° 0 min 0,000 mm 0,0 UV-I 0 W/m² 9,9 °C 10,7 °C 0,0 km/h (0 Bft)
21.08.2019 04:34 10,7 °C 95 % 1025,6 hPa 0,0 mm 0,0 km/h (0 Bft) SO 132 ° 0 min 0,000 mm 0,0 UV-I 0 W/m² 9,9 °C 10,7 °C 0,0 km/h (0 Bft)
21.08.2019 04:35 10,7 °C 95 % 1025,5 hPa 0,0 mm 0,0 km/h (0 Bft) SO 132 ° 0 min 0,000 mm 0,0 UV-I 0 W/m² 9,9 °C 10,7 °C 0,0 km/h (0 Bft)
21.08.2019 04:36 10,7 °C 95 % 1025,5 hPa 0,0 mm 0,2 km/h (0 Bft) SO 132 ° 0 min 0,000 mm 0,0 UV-I 0 W/m² 9,9 °C 10,7 °C 1,6 km/h (1 Bft)
21.08.2019 04:37 10,7 °C 95 % 1025,5 hPa 0,0 mm 0,0 km/h (0 Bft) SO 132 ° 0 min 0,000 mm 0,0 UV-I 0 W/m² 9,9 °C 10,7 °C 0,0 km/h (0 Bft)
21.08.2019 04:38 10,7 °C 95 % 1025,5 hPa 0,0 mm 1,9 km/h (1 Bft) SO 132 ° 0 min 0,000 mm 0,0 UV-I 0 W/m² 9,9 °C 10,7 °C 3,2 km/h (1 Bft)
21.08.2019 04:39 10,7 °C 95 % 1025,5 hPa 0,0 mm 2,3 km/h (1 Bft) SO 132 ° 0 min 0,000 mm 0,0 UV-I 0 W/m² 9,9 °C 10,7 °C 4,8 km/h (1 Bft)
21.08.2019 04:40 10,7 °C 95 % 1025,6 hPa 0,2 mm 1,1 km/h (1 Bft) SO 132 ° 0 min 0,000 mm 0,0 UV-I 0 W/m² 9,9 °C 10,7 °C 1,6 km/h (1 Bft)
21.08.2019 04:41 10,6 °C 95 % 1025,7 hPa 0,0 mm 1,9 km/h (1 Bft) SO 139 ° 0 min 0,000 mm 0,0 UV-I 0 W/m² 9,8 °C 10,6 °C 4,8 km/h (1 Bft)
21.08.2019 04:42 10,6 °C 95 % 1025,6 hPa 0,0 mm 0,1 km/h (0 Bft) SO 139 ° 0 min 0,000 mm 0,0 UV-I 0 W/m² 9,8 °C 10,6 °C 1,6 km/h (1 Bft)
21.08.2019 04:43 10,6 °C 95 % 1025,6 hPa 0,0 mm 0,0 km/h (0 Bft) SO 139 ° 0 min 0,000 mm 0,0 UV-I 0 W/m² 9,8 °C 10,6 °C 0,0 km/h (0 Bft)
21.08.2019 04:44 10,6 °C 95 % 1025,6 hPa 0,0 mm 0,0 km/h (0 Bft) SO 139 ° 0 min 0,000 mm 0,0 UV-I 0 W/m² 9,8 °C 10,6 °C 0,0 km/h (0 Bft)
21.08.2019 04:45 10,7 °C 95 % 1025,7 hPa 0,0 mm 0,0 km/h (0 Bft) SO 139 ° 0 min 0,000 mm 0,0 UV-I 0 W/m² 9,9 °C 10,7 °C 0,0 km/h (0 Bft)
21.08.2019 04:46 10,7 °C 95 % 1025,7 hPa 0,0 mm 0,8 km/h (0 Bft) SO 139 ° 0 min 0,000 mm 0,0 UV-I 0 W/m² 9,9 °C 10,7 °C 3,2 km/h (1 Bft)
21.08.2019 04:47 10,7 °C 95 % 1025,7 hPa 0,0 mm 1,0 km/h (0 Bft) SO 139 ° 0 min 0,000 mm 0,0 UV-I 0 W/m² 9,9 °C 10,7 °C 1,6 km/h (1 Bft)
21.08.2019 04:48 10,7 °C 95 % 1025,7 hPa 0,0 mm 1,9 km/h (1 Bft) SO 139 ° 0 min 0,000 mm 0,0 UV-I 0 W/m² 9,9 °C 10,7 °C 3,2 km/h (1 Bft)
21.08.2019 04:49 10,6 °C 95 % 1025,7 hPa 0,0 mm 0,0 km/h (0 Bft) SO 139 ° 0 min 0,000 mm 0,0 UV-I 0 W/m² 9,8 °C 10,6 °C 0,0 km/h (0 Bft)
21.08.2019 04:50 10,6 °C 95 % 1025,7 hPa 0,0 mm 0,0 km/h (0 Bft) SO 139 ° 0 min 0,000 mm 0,0 UV-I 0 W/m² 9,8 °C 10,6 °C 0,0 km/h (0 Bft)
21.08.2019 04:51 10,6 °C 95 % 1025,8 hPa 0,0 mm 0,0 km/h (0 Bft) SO 139 ° 0 min 0,000 mm 0,0 UV-I 0 W/m² 9,8 °C 10,6 °C 0,0 km/h (0 Bft)
21.08.2019 04:52 10,6 °C 95 % 1025,7 hPa 0,0 mm 0,0 km/h (0 Bft) SO 139 ° 0 min 0,000 mm 0,0 UV-I 0 W/m² 9,8 °C 10,6 °C 0,0 km/h (0 Bft)
21.08.2019 04:53 10,7 °C 95 % 1025,7 hPa 0,2 mm 0,0 km/h (0 Bft) SO 139 ° 0 min 0,000 mm 0,0 UV-I 0 W/m² 9,9 °C 10,7 °C 0,0 km/h (0 Bft)
21.08.2019 04:54 10,7 °C 95 % 1025,6 hPa 0,0 mm 0,0 km/h (0 Bft) SO 139 ° 0 min 0,000 mm 0,0 UV-I 0 W/m² 9,9 °C 10,7 °C 0,0 km/h (0 Bft)
21.08.2019 04:55 10,7 °C 95 % 1025,6 hPa 0,0 mm 0,0 km/h (0 Bft) SO 139 ° 0 min 0,000 mm 0,0 UV-I 0 W/m² 9,9 °C 10,7 °C 0,0 km/h (0 Bft)
21.08.2019 04:56 10,7 °C 95 % 1025,6 hPa 0,0 mm 0,0 km/h (0 Bft) SO 139 ° 0 min 0,000 mm 0,0 UV-I 0 W/m² 9,9 °C 10,7 °C 0,0 km/h (0 Bft)
21.08.2019 04:57 10,7 °C 95 % 1025,7 hPa 0,0 mm 0,0 km/h (0 Bft) SO 139 ° 0 min 0,000 mm 0,0 UV-I 0 W/m² 9,9 °C 10,7 °C 0,0 km/h (0 Bft)
21.08.2019 04:58 10,7 °C 95 % 1025,7 hPa 0,0 mm 0,0 km/h (0 Bft) SO 139 ° 0 min 0,000 mm 0,0 UV-I 0 W/m² 9,9 °C 10,7 °C 0,0 km/h (0 Bft)
21.08.2019 04:59 10,7 °C 95 % 1025,8 hPa 0,0 mm 0,0 km/h (0 Bft) SO 139 ° 0 min 0,000 mm 0,0 UV-I 0 W/m² 9,9 °C 10,7 °C 0,0 km/h (0 Bft)
21.08.2019 05:00 10,7 °C 95 % 1025,8 hPa 0,0 mm 0,0 km/h (0 Bft) SO 139 ° 0 min 0,000 mm 0,0 UV-I 0 W/m² 9,9 °C 10,7 °C 0,0 km/h (0 Bft)
21.08.2019 05:01 10,7 °C 95 % 1025,8 hPa 0,0 mm 0,0 km/h (0 Bft) SO 139 ° 0 min 0,000 mm 0,0 UV-I 0 W/m² 9,9 °C 10,7 °C 0,0 km/h (0 Bft)
21.08.2019 05:02 10,7 °C 95 % 1025,7 hPa 0,0 mm 0,0 km/h (0 Bft) SO 139 ° 0 min 0,000 mm 0,0 UV-I 0 W/m² 9,9 °C 10,7 °C 0,0 km/h (0 Bft)
21.08.2019 05:03 10,7 °C 95 % 1025,7 hPa 0,0 mm 0,0 km/h (0 Bft) SO 139 ° 0 min 0,000 mm 0,0 UV-I 0 W/m² 9,9 °C 10,7 °C 0,0 km/h (0 Bft)
21.08.2019 05:04 10,7 °C 95 % 1025,6 hPa 0,0 mm 0,0 km/h (0 Bft) SO 139 ° 0 min 0,000 mm 0,0 UV-I 0 W/m² 9,9 °C 10,7 °C 0,0 km/h (0 Bft)
21.08.2019 05:05 10,7 °C 95 % 1025,6 hPa 0,0 mm 0,0 km/h (0 Bft) SO 139 ° 0 min 0,000 mm 0,0 UV-I 0 W/m² 9,9 °C 10,7 °C 0,0 km/h (0 Bft)
21.08.2019 05:06 10,7 °C 95 % 1025,6 hPa 0,0 mm 0,0 km/h (0 Bft) SO 139 ° 0 min 0,000 mm 0,0 UV-I 0 W/m² 9,9 °C 10,7 °C 0,0 km/h (0 Bft)
21.08.2019 05:07 10,7 °C 95 % 1025,6 hPa 0,0 mm 0,0 km/h (0 Bft) SO 139 ° 0 min 0,000 mm 0,0 UV-I 0 W/m² 9,9 °C 10,7 °C 0,0 km/h (0 Bft)
21.08.2019 05:08 10,7 °C 95 % 1025,6 hPa 0,2 mm 0,3 km/h (0 Bft) SO 135 ° 0 min 0,000 mm 0,0 UV-I 0 W/m² 9,9 °C 10,7 °C 3,2 km/h (1 Bft)
21.08.2019 05:09 10,7 °C 95 % 1025,6 hPa 0,0 mm 0,6 km/h (0 Bft) SO 135 ° 0 min 0,000 mm 0,0 UV-I 0 W/m² 9,9 °C 10,7 °C 3,2 km/h (1 Bft)
21.08.2019 05:10 10,7 °C 95 % 1025,6 hPa 0,0 mm 0,0 km/h (0 Bft) SO 135 ° 0 min 0,000 mm 0,0 UV-I 0 W/m² 9,9 °C 10,7 °C 0,0 km/h (0 Bft)
21.08.2019 05:11 10,7 °C 95 % 1025,6 hPa 0,0 mm 0,0 km/h (0 Bft) SO 135 ° 0 min 0,000 mm 0,0 UV-I 0 W/m² 9,9 °C 10,7 °C 0,0 km/h (0 Bft)
21.08.2019 05:12 10,7 °C 95 % 1025,6 hPa 0,0 mm 0,0 km/h (0 Bft) SO 135 ° 0 min 0,000 mm 0,0 UV-I 0 W/m² 9,9 °C 10,7 °C 0,0 km/h (0 Bft)
21.08.2019 05:13 10,7 °C 95 % 1025,6 hPa 0,0 mm 0,0 km/h (0 Bft) SO 135 ° 0 min 0,000 mm 0,0 UV-I 0 W/m² 9,9 °C 10,7 °C 0,0 km/h (0 Bft)
21.08.2019 05:14 10,7 °C 95 % 1025,6 hPa 0,0 mm 0,0 km/h (0 Bft) SO 135 ° 0 min 0,000 mm 0,0 UV-I 0 W/m² 9,9 °C 10,7 °C 0,0 km/h (0 Bft)
21.08.2019 05:15 10,7 °C 95 % 1025,6 hPa 0,0 mm 0,0 km/h (0 Bft) SO 135 ° 0 min 0,000 mm 0,0 UV-I 0 W/m² 9,9 °C 10,7 °C 0,0 km/h (0 Bft)
21.08.2019 05:16 10,7 °C 95 % 1025,6 hPa 0,0 mm 0,0 km/h (0 Bft) SO 135 ° 0 min 0,000 mm 0,0 UV-I 0 W/m² 9,9 °C 10,7 °C 0,0 km/h (0 Bft)
21.08.2019 05:17 10,7 °C 95 % 1025,6 hPa 0,0 mm 0,0 km/h (0 Bft) SO 127 ° 0 min 0,000 mm 0,0 UV-I 0 W/m² 9,9 °C 10,7 °C 0,0 km/h (0 Bft)
21.08.2019 05:18 10,7 °C 95 % 1025,6 hPa 0,0 mm 0,0 km/h (0 Bft) SO 127 ° 0 min 0,000 mm 0,0 UV-I 0 W/m² 9,9 °C 10,7 °C 0,0 km/h (0 Bft)
21.08.2019 05:19 10,7 °C 95 % 1025,6 hPa 0,0 mm 0,0 km/h (0 Bft) O-SO 103 ° 0 min 0,000 mm 0,0 UV-I 0 W/m² 9,9 °C 10,7 °C 0,0 km/h (0 Bft)
21.08.2019 05:20 10,7 °C 95 % 1025,6 hPa 0,0 mm 0,0 km/h (0 Bft) O-SO 104 ° 0 min 0,000 mm 0,0 UV-I 0 W/m² 9,9 °C 10,7 °C 0,0 km/h (0 Bft)
21.08.2019 05:21 10,7 °C 95 % 1025,6 hPa 0,2 mm 0,0 km/h (0 Bft) O-SO 104 ° 0 min 0,000 mm 0,0 UV-I 0 W/m² 9,9 °C 10,7 °C 0,0 km/h (0 Bft)
21.08.2019 05:22 10,7 °C 95 % 1025,6 hPa 0,0 mm 0,0 km/h (0 Bft) O-SO 104 ° 0 min 0,000 mm 0,0 UV-I 0 W/m² 9,9 °C 10,7 °C 0,0 km/h (0 Bft)
21.08.2019 05:23 10,7 °C 95 % 1025,7 hPa 0,0 mm 0,0 km/h (0 Bft) O-SO 104 ° 0 min 0,000 mm 0,0 UV-I 0 W/m² 9,9 °C 10,7 °C 0,0 km/h (0 Bft)
21.08.2019 05:24 10,7 °C 95 % 1025,7 hPa 0,0 mm 0,0 km/h (0 Bft) O-SO 104 ° 0 min 0,000 mm 0,0 UV-I 0 W/m² 9,9 °C 10,7 °C 0,0 km/h (0 Bft)
21.08.2019 05:25 10,7 °C 95 % 1025,7 hPa 0,0 mm 0,0 km/h (0 Bft) O-SO 104 ° 0 min 0,000 mm 0,0 UV-I 0 W/m² 9,9 °C 10,7 °C 0,0 km/h (0 Bft)
21.08.2019 05:26 10,7 °C 95 % 1025,7 hPa 0,0 mm 0,0 km/h (0 Bft) O-SO 104 ° 0 min 0,000 mm 0,0 UV-I 0 W/m² 9,9 °C 10,7 °C 0,0 km/h (0 Bft)
21.08.2019 05:27 10,7 °C 95 % 1025,7 hPa 0,0 mm 0,0 km/h (0 Bft) O-SO 104 ° 0 min 0,000 mm 0,0 UV-I 0 W/m² 9,9 °C 10,7 °C 0,0 km/h (0 Bft)
21.08.2019 05:28 10,7 °C 95 % 1025,7 hPa 0,0 mm 0,0 km/h (0 Bft) O-SO 104 ° 0 min 0,000 mm 0,0 UV-I 0 W/m² 9,9 °C 10,7 °C 0,0 km/h (0 Bft)
21.08.2019 05:29 10,7 °C 95 % 1025,7 hPa 0,0 mm 0,0 km/h (0 Bft) O-SO 104 ° 0 min 0,000 mm 0,0 UV-I 0 W/m² 9,9 °C 10,7 °C 0,0 km/h (0 Bft)
21.08.2019 05:30 10,7 °C 95 % 1025,7 hPa 0,0 mm 0,0 km/h (0 Bft) O-SO 104 ° 0 min 0,000 mm 0,0 UV-I 0 W/m² 9,9 °C 10,7 °C 0,0 km/h (0 Bft)
21.08.2019 05:31 10,7 °C 95 % 1025,7 hPa 0,0 mm 0,0 km/h (0 Bft) O-SO 104 ° 0 min 0,000 mm 0,0 UV-I 0 W/m² 9,9 °C 10,7 °C 0,0 km/h (0 Bft)
21.08.2019 05:32 10,7 °C 95 % 1025,8 hPa 0,0 mm 0,0 km/h (0 Bft) O-SO 104 ° 0 min 0,000 mm 0,0 UV-I 0 W/m² 9,9 °C 10,7 °C 0,0 km/h (0 Bft)
21.08.2019 05:33 10,7 °C 95 % 1025,7 hPa 0,0 mm 0,0 km/h (0 Bft) O-SO 104 ° 0 min 0,000 mm 0,0 UV-I 0 W/m² 9,9 °C 10,7 °C 0,0 km/h (0 Bft)
21.08.2019 05:34 10,7 °C 95 % 1025,7 hPa 0,0 mm 0,0 km/h (0 Bft) O-SO 104 ° 0 min 0,000 mm 0,0 UV-I 0 W/m² 9,9 °C 10,7 °C 0,0 km/h (0 Bft)
21.08.2019 05:35 10,7 °C 95 % 1025,7 hPa 0,0 mm 0,0 km/h (0 Bft) O-SO 104 ° 0 min 0,000 mm 0,0 UV-I 0 W/m² 9,9 °C 10,7 °C 0,0 km/h (0 Bft)
21.08.2019 05:36 10,7 °C 95 % 1025,6 hPa 0,0 mm 0,0 km/h (0 Bft) O-SO 104 ° 0 min 0,000 mm 0,0 UV-I 0 W/m² 9,9 °C 10,7 °C 0,0 km/h (0 Bft)
21.08.2019 05:37 10,7 °C 95 % 1025,6 hPa 0,2 mm 0,0 km/h (0 Bft) O-SO 104 ° 0 min 0,000 mm 0,0 UV-I 0 W/m² 9,9 °C 10,7 °C 0,0 km/h (0 Bft)
21.08.2019 05:38 10,7 °C 95 % 1025,6 hPa 0,0 mm 0,0 km/h (0 Bft) O-SO 104 ° 0 min 0,000 mm 0,0 UV-I 0 W/m² 9,9 °C 10,7 °C 0,0 km/h (0 Bft)
21.08.2019 05:39 10,7 °C 95 % 1025,6 hPa 0,0 mm 0,0 km/h (0 Bft) O-SO 104 ° 0 min 0,000 mm 0,0 UV-I 0 W/m² 9,9 °C 10,7 °C 0,0 km/h (0 Bft)
21.08.2019 05:40 10,7 °C 95 % 1025,6 hPa 0,0 mm 0,0 km/h (0 Bft) O-SO 104 ° 0 min 0,000 mm 0,0 UV-I 0 W/m² 9,9 °C 10,7 °C 0,0 km/h (0 Bft)
21.08.2019 05:41 10,7 °C 95 % 1025,6 hPa 0,0 mm 0,0 km/h (0 Bft) O-SO 104 ° 0 min 0,000 mm 0,0 UV-I 0 W/m² 9,9 °C 10,7 °C 0,0 km/h (0 Bft)
21.08.2019 05:42 10,7 °C 95 % 1025,6 hPa 0,0 mm 0,0 km/h (0 Bft) O-SO 104 ° 0 min 0,000 mm 0,0 UV-I 0 W/m² 9,9 °C 10,7 °C 0,0 km/h (0 Bft)
21.08.2019 05:43 10,7 °C 95 % 1025,6 hPa 0,0 mm 0,0 km/h (0 Bft) O-SO 104 ° 0 min 0,000 mm 0,0 UV-I 0 W/m² 9,9 °C 10,7 °C 0,0 km/h (0 Bft)
21.08.2019 05:44 10,7 °C 95 % 1025,6 hPa 0,0 mm 0,0 km/h (0 Bft) O-SO 104 ° 0 min 0,000 mm 0,0 UV-I 0 W/m² 9,9 °C 10,7 °C 0,0 km/h (0 Bft)
21.08.2019 05:45 10,7 °C 95 % 1025,6 hPa 0,0 mm 0,0 km/h (0 Bft) O-SO 104 ° 0 min 0,000 mm 0,0 UV-I 0 W/m² 9,9 °C 10,7 °C 0,0 km/h (0 Bft)
21.08.2019 05:46 10,7 °C 95 % 1025,7 hPa 0,0 mm 0,0 km/h (0 Bft) O-SO 104 ° 0 min 0,000 mm 0,0 UV-I 0 W/m² 9,9 °C 10,7 °C 0,0 km/h (0 Bft)
21.08.2019 05:47 10,7 °C 95 % 1025,7 hPa 0,0 mm 0,0 km/h (0 Bft) O-SO 104 ° 0 min 0,000 mm 0,0 UV-I 0 W/m² 9,9 °C 10,7 °C 0,0 km/h (0 Bft)
21.08.2019 05:48 10,7 °C 95 % 1025,7 hPa 0,0 mm 0,0 km/h (0 Bft) O-SO 104 ° 0 min 0,000 mm 0,0 UV-I 0 W/m² 9,9 °C 10,7 °C 0,0 km/h (0 Bft)
21.08.2019 05:49 10,7 °C 95 % 1025,7 hPa 0,0 mm 0,0 km/h (0 Bft) O-SO 104 ° 0 min 0,000 mm 0,0 UV-I 0 W/m² 9,9 °C 10,7 °C 0,0 km/h (0 Bft)
21.08.2019 05:50 10,7 °C 95 % 1025,7 hPa 0,0 mm 0,0 km/h (0 Bft) O-SO 104 ° 0 min 0,000 mm 0,0 UV-I 0 W/m² 9,9 °C 10,7 °C 0,0 km/h (0 Bft)
21.08.2019 05:51 10,7 °C 95 % 1025,7 hPa 0,2 mm 0,0 km/h (0 Bft) O-SO 104 ° 0 min 0,000 mm 0,0 UV-I 0 W/m² 9,9 °C 10,7 °C 0,0 km/h (0 Bft)
21.08.2019 05:52 10,7 °C 95 % 1025,8 hPa 0,0 mm 0,0 km/h (0 Bft) O-SO 104 ° 0 min 0,000 mm 0,0 UV-I 0 W/m² 9,9 °C 10,7 °C 0,0 km/h (0 Bft)
21.08.2019 05:53 10,7 °C 95 % 1025,8 hPa 0,0 mm 0,0 km/h (0 Bft) O-SO 104 ° 0 min 0,000 mm 0,0 UV-I 0 W/m² 9,9 °C 10,7 °C 0,0 km/h (0 Bft)
21.08.2019 05:54 10,7 °C 95 % 1025,8 hPa 0,0 mm 0,0 km/h (0 Bft) O-SO 104 ° 0 min 0,000 mm 0,0 UV-I 0 W/m² 9,9 °C 10,7 °C 0,0 km/h (0 Bft)
21.08.2019 05:55 10,7 °C 95 % 1025,9 hPa 0,0 mm 0,0 km/h (0 Bft) O-SO 104 ° 0 min 0,000 mm 0,0 UV-I 0 W/m² 9,9 °C 10,7 °C 0,0 km/h (0 Bft)
21.08.2019 05:56 10,7 °C 95 % 1025,9 hPa 0,0 mm 0,0 km/h (0 Bft) O-SO 104 ° 0 min 0,000 mm 0,0 UV-I 0 W/m² 9,9 °C 10,7 °C 0,0 km/h (0 Bft)
21.08.2019 05:57 10,6 °C 95 % 1025,9 hPa 0,0 mm 0,0 km/h (0 Bft) O-SO 104 ° 0 min 0,000 mm 0,0 UV-I 0 W/m² 9,8 °C 10,6 °C 0,0 km/h (0 Bft)
21.08.2019 05:58 10,7 °C 95 % 1025,9 hPa 0,0 mm 0,0 km/h (0 Bft) O-SO 104 ° 0 min 0,000 mm 0,0 UV-I 0 W/m² 9,9 °C 10,7 °C 0,0 km/h (0 Bft)
21.08.2019 05:59 10,6 °C 95 % 1026,0 hPa 0,0 mm 0,0 km/h (0 Bft) O-SO 104 ° 0 min 0,000 mm 0,0 UV-I 0 W/m² 9,8 °C 10,6 °C 0,0 km/h (0 Bft)
21.08.2019 06:00 10,6 °C 95 % 1026,0 hPa 0,0 mm 0,0 km/h (0 Bft) O-SO 104 ° 0 min 0,000 mm 0,0 UV-I 0 W/m² 9,8 °C 10,6 °C 0,0 km/h (0 Bft)
21.08.2019 06:01 10,6 °C 95 % 1026,1 hPa 0,0 mm 0,0 km/h (0 Bft) O-SO 104 ° 0 min 0,000 mm 0,0 UV-I 0 W/m² 9,8 °C 10,6 °C 0,0 km/h (0 Bft)
21.08.2019 06:02 10,6 °C 95 % 1026,1 hPa 0,0 mm 0,0 km/h (0 Bft) O-SO 104 ° 0 min 0,000 mm 0,0 UV-I 0 W/m² 9,8 °C 10,6 °C 0,0 km/h (0 Bft)
21.08.2019 06:03 10,6 °C 95 % 1026,0 hPa 0,0 mm 0,0 km/h (0 Bft) O-SO 104 ° 0 min 0,000 mm 0,0 UV-I 0 W/m² 9,8 °C 10,6 °C 0,0 km/h (0 Bft)
21.08.2019 06:04 10,6 °C 95 % 1026,0 hPa 0,0 mm 0,0 km/h (0 Bft) O-SO 104 ° 0 min 0,000 mm 0,0 UV-I 0 W/m² 9,8 °C 10,6 °C 0,0 km/h (0 Bft)
21.08.2019 06:05 10,6 °C 95 % 1026,0 hPa 0,0 mm 0,0 km/h (0 Bft) O-SO 104 ° 0 min 0,000 mm 0,0 UV-I 0 W/m² 9,8 °C 10,6 °C 0,0 km/h (0 Bft)
21.08.2019 06:06 10,6 °C 95 % 1026,0 hPa 0,0 mm 0,0 km/h (0 Bft) O-SO 104 ° 0 min 0,000 mm 0,0 UV-I 0 W/m² 9,8 °C 10,6 °C 0,0 km/h (0 Bft)
21.08.2019 06:07 10,6 °C 95 % 1026,0 hPa 0,2 mm 0,0 km/h (0 Bft) O-SO 104 ° 0 min 0,000 mm 0,0 UV-I 0 W/m² 9,8 °C 10,6 °C 0,0 km/h (0 Bft)
21.08.2019 06:08 10,6 °C 95 % 1026,0 hPa 0,0 mm 0,0 km/h (0 Bft) O-SO 104 ° 0 min 0,000 mm 0,0 UV-I 0 W/m² 9,8 °C 10,6 °C 0,0 km/h (0 Bft)
21.08.2019 06:09 10,6 °C 95 % 1026,0 hPa 0,0 mm 0,0 km/h (0 Bft) O-SO 104 ° 0 min 0,000 mm 0,0 UV-I 0 W/m² 9,8 °C 10,6 °C 0,0 km/h (0 Bft)
21.08.2019 06:10 10,6 °C 95 % 1026,0 hPa 0,0 mm 0,0 km/h (0 Bft) O-SO 104 ° 0 min 0,000 mm 0,0 UV-I 0 W/m² 9,8 °C 10,6 °C 0,0 km/h (0 Bft)
21.08.2019 06:11 10,6 °C 95 % 1025,9 hPa 0,0 mm 0,0 km/h (0 Bft) O-SO 104 ° 0 min 0,000 mm 0,0 UV-I 0 W/m² 9,8 °C 10,6 °C 0,0 km/h (0 Bft)
21.08.2019 06:12 10,6 °C 95 % 1025,9 hPa 0,0 mm 0,0 km/h (0 Bft) O-SO 104 ° 0 min 0,000 mm 0,0 UV-I 0 W/m² 9,8 °C 10,6 °C 0,0 km/h (0 Bft)
21.08.2019 06:13 10,7 °C 95 % 1025,9 hPa 0,0 mm 0,0 km/h (0 Bft) O-SO 104 ° 0 min 0,000 mm 0,0 UV-I 0 W/m² 9,9 °C 10,7 °C 0,0 km/h (0 Bft)
21.08.2019 06:14 10,7 °C 95 % 1025,9 hPa 0,0 mm 0,0 km/h (0 Bft) O-SO 104 ° 0 min 0,000 mm 0,0 UV-I 0 W/m² 9,9 °C 10,7 °C 0,0 km/h (0 Bft)
21.08.2019 06:15 10,7 °C 95 % 1025,9 hPa 0,0 mm 0,0 km/h (0 Bft) O-SO 104 ° 0 min 0,000 mm 0,0 UV-I 0 W/m² 9,9 °C 10,7 °C 0,0 km/h (0 Bft)
21.08.2019 06:16 10,7 °C 95 % 1025,9 hPa 0,0 mm 1,5 km/h (1 Bft) O-SO 104 ° 0 min 0,000 mm 0,0 UV-I 0 W/m² 9,9 °C 10,7 °C 3,2 km/h (1 Bft)
21.08.2019 06:17 10,7 °C 95 % 1025,9 hPa 0,0 mm 1,5 km/h (1 Bft) O-NO 66 ° 0 min 0,000 mm 0,0 UV-I 0 W/m² 9,9 °C 10,7 °C 4,8 km/h (1 Bft)
21.08.2019 06:18 10,7 °C 95 % 1025,9 hPa 0,0 mm 4,0 km/h (1 Bft) O-NO 61 ° 0 min 0,000 mm 0,0 UV-I 0 W/m² 9,9 °C 10,7 °C 4,8 km/h (1 Bft)
21.08.2019 06:19 10,7 °C 95 % 1025,9 hPa 0,0 mm 2,4 km/h (1 Bft) O-NO 61 ° 0 min 0,000 mm 0,0 UV-I 0 W/m² 9,9 °C 10,7 °C 4,8 km/h (1 Bft)
21.08.2019 06:20 10,7 °C 95 % 1025,8 hPa 0,0 mm 3,8 km/h (1 Bft) O 94 ° 0 min 0,000 mm 0,0 UV-I 0 W/m² 9,9 °C 10,7 °C 4,8 km/h (1 Bft)
21.08.2019 06:21 10,7 °C 95 % 1025,8 hPa 0,0 mm 3,0 km/h (1 Bft) O 93 ° 0 min 0,000 mm 0,0 UV-I 0 W/m² 9,9 °C 10,7 °C 4,8 km/h (1 Bft)
21.08.2019 06:22 10,7 °C 95 % 1025,9 hPa 0,2 mm 2,4 km/h (1 Bft) O 90 ° 0 min 0,000 mm 0,0 UV-I 0 W/m² 9,9 °C 10,7 °C 4,8 km/h (1 Bft)
21.08.2019 06:23 10,6 °C 95 % 1025,9 hPa 0,0 mm 2,7 km/h (1 Bft) O 90 ° 0 min 0,000 mm 0,0 UV-I 0 W/m² 9,8 °C 10,6 °C 4,8 km/h (1 Bft)
21.08.2019 06:24 10,6 °C 95 % 1025,9 hPa 0,0 mm 0,5 km/h (0 Bft) O 90 ° 0 min 0,000 mm 0,0 UV-I 0 W/m² 9,8 °C 10,6 °C 3,2 km/h (1 Bft)
21.08.2019 06:25 10,7 °C 95 % 1025,9 hPa 0,0 mm 0,0 km/h (0 Bft) O 90 ° 0 min 0,000 mm 0,0 UV-I 0 W/m² 9,9 °C 10,7 °C 0,0 km/h (0 Bft)
21.08.2019 06:26 10,6 °C 95 % 1025,9 hPa 0,0 mm 0,0 km/h (0 Bft) O 90 ° 0 min 0,000 mm 0,0 UV-I 0 W/m² 9,8 °C 10,6 °C 0,0 km/h (0 Bft)
21.08.2019 06:27 10,7 °C 95 % 1025,9 hPa 0,0 mm 0,2 km/h (0 Bft) O 90 ° 0 min 0,000 mm 0,0 UV-I 0 W/m² 9,9 °C 10,7 °C 1,6 km/h (1 Bft)
21.08.2019 06:28 10,6 °C 95 % 1025,9 hPa 0,0 mm 0,2 km/h (0 Bft) O 90 ° 0 min 0,000 mm 0,0 UV-I 0 W/m² 9,8 °C 10,6 °C 1,6 km/h (1 Bft)
21.08.2019 06:29 10,6 °C 95 % 1025,9 hPa 0,0 mm 3,3 km/h (1 Bft) O 87 ° 0 min 0,000 mm 0,0 UV-I 0 W/m² 9,8 °C 10,6 °C 6,4 km/h (2 Bft)
21.08.2019 06:30 10,6 °C 95 % 1025,8 hPa 0,0 mm 3,5 km/h (1 Bft) O-NO 61 ° 0 min 0,000 mm 0,0 UV-I 0 W/m² 9,8 °C 10,6 °C 6,4 km/h (2 Bft)
21.08.2019 06:31 10,6 °C 95 % 1025,9 hPa 0,0 mm 3,9 km/h (1 Bft) O-NO 61 ° 0 min 0,000 mm 0,0 UV-I 0 W/m² 9,8 °C 10,6 °C 4,8 km/h (1 Bft)
21.08.2019 06:32 10,6 °C 95 % 1025,9 hPa 0,0 mm 1,5 km/h (1 Bft) O-NO 61 ° 0 min 0,000 mm 0,0 UV-I 0 W/m² 9,8 °C 10,6 °C 3,2 km/h (1 Bft)
21.08.2019 06:33 10,6 °C 95 % 1025,9 hPa 0,0 mm 0,8 km/h (0 Bft) O-NO 61 ° 0 min 0,000 mm 0,0 UV-I 0 W/m² 9,8 °C 10,6 °C 3,2 km/h (1 Bft)
21.08.2019 06:34 10,6 °C 95 % 1025,9 hPa 0,0 mm 3,1 km/h (1 Bft) SO 126 ° 0 min 0,000 mm 0,0 UV-I 0 W/m² 9,8 °C 10,6 °C 4,8 km/h (1 Bft)
21.08.2019 06:35 10,6 °C 95 % 1025,8 hPa 0,0 mm 1,4 km/h (1 Bft) O-SO 116 ° 0 min 0,000 mm 0,0 UV-I 0 W/m² 9,8 °C 10,6 °C 3,2 km/h (1 Bft)
21.08.2019 06:36 10,6 °C 95 % 1025,9 hPa 0,0 mm 0,0 km/h (0 Bft) O-SO 116 ° 0 min 0,000 mm 0,0 UV-I 0 W/m² 9,8 °C 10,6 °C 0,0 km/h (0 Bft)
21.08.2019 06:37 10,6 °C 95 % 1025,8 hPa 0,0 mm 1,2 km/h (1 Bft) O-SO 104 ° 0 min 0,000 mm 0,0 UV-I 0 W/m² 9,8 °C 10,6 °C 3,2 km/h (1 Bft)
21.08.2019 06:38 10,6 °C 95 % 1025,9 hPa 0,0 mm 0,9 km/h (0 Bft) O-SO 104 ° 0 min 0,000 mm 0,0 UV-I 0 W/m² 9,8 °C 10,6 °C 1,6 km/h (1 Bft)
21.08.2019 06:39 10,6 °C 95 % 1025,9 hPa 0,0 mm 0,0 km/h (0 Bft) O-SO 104 ° 0 min 0,000 mm 0,0 UV-I 0 W/m² 9,8 °C 10,6 °C 0,0 km/h (0 Bft)
21.08.2019 06:40 10,6 °C 95 % 1025,8 hPa 0,0 mm 1,3 km/h (1 Bft) O-SO 115 ° 0 min 0,000 mm 0,0 UV-I 0 W/m² 9,8 °C 10,6 °C 4,8 km/h (1 Bft)
21.08.2019 06:41 10,6 °C 95 % 1025,8 hPa 0,2 mm 0,0 km/h (0 Bft) O-SO 115 ° 0 min 0,000 mm 0,0 UV-I 0 W/m² 9,8 °C 10,6 °C 0,0 km/h (0 Bft)
21.08.2019 06:42 10,6 °C 95 % 1025,8 hPa 0,0 mm 0,0 km/h (0 Bft) O-SO 115 ° 0 min 0,000 mm 0,0 UV-I 5 W/m² 9,8 °C 10,6 °C 0,0 km/h (0 Bft)
21.08.2019 06:43 10,6 °C 95 % 1025,8 hPa 0,0 mm 0,0 km/h (0 Bft) O-SO 115 ° 0 min 0,000 mm 0,0 UV-I 5 W/m² 9,8 °C 10,6 °C 0,0 km/h (0 Bft)
21.08.2019 06:44 10,6 °C 95 % 1025,9 hPa 0,0 mm 0,0 km/h (0 Bft) O-SO 115 ° 0 min 0,000 mm 0,0 UV-I 7 W/m² 9,8 °C 10,6 °C 0,0 km/h (0 Bft)
21.08.2019 06:45 10,6 °C 95 % 1025,9 hPa 0,0 mm 0,0 km/h (0 Bft) O-SO 115 ° 0 min 0,000 mm 0,0 UV-I 7 W/m² 9,8 °C 10,6 °C 0,0 km/h (0 Bft)
21.08.2019 06:46 10,6 °C 95 % 1025,9 hPa 0,0 mm 1,3 km/h (1 Bft) O-SO 107 ° 0 min 0,000 mm 0,0 UV-I 9 W/m² 9,8 °C 10,6 °C 4,8 km/h (1 Bft)
21.08.2019 06:47 10,6 °C 95 % 1025,8 hPa 0,0 mm 2,3 km/h (1 Bft) O-SO 109 ° 0 min 0,000 mm 0,0 UV-I 9 W/m² 9,8 °C 10,6 °C 3,2 km/h (1 Bft)
21.08.2019 06:48 10,6 °C 95 % 1025,9 hPa 0,0 mm 2,0 km/h (1 Bft) O-SO 109 ° 0 min 0,000 mm 0,0 UV-I 11 W/m² 9,8 °C 10,6 °C 3,2 km/h (1 Bft)
21.08.2019 06:49 10,6 °C 95 % 1025,9 hPa 0,0 mm 1,7 km/h (1 Bft) O-SO 109 ° 0 min 0,000 mm 0,0 UV-I 11 W/m² 9,8 °C 10,6 °C 3,2 km/h (1 Bft)
21.08.2019 06:50 10,6 °C 95 % 1025,9 hPa 0,0 mm 0,1 km/h (0 Bft) O-SO 109 ° 0 min 0,000 mm 0,0 UV-I 11 W/m² 9,8 °C 10,6 °C 1,6 km/h (1 Bft)
21.08.2019 06:51 10,6 °C 95 % 1025,9 hPa 0,0 mm 1,4 km/h (1 Bft) O-SO 108 ° 0 min 0,000 mm 0,0 UV-I 11 W/m² 9,8 °C 10,6 °C 3,2 km/h (1 Bft)
21.08.2019 06:52 10,6 °C 95 % 1025,9 hPa 0,0 mm 1,2 km/h (1 Bft) O-SO 108 ° 0 min 0,000 mm 0,0 UV-I 11 W/m² 9,8 °C 10,6 °C 3,2 km/h (1 Bft)
21.08.2019 06:53 10,6 °C 95 % 1025,9 hPa 0,0 mm 0,3 km/h (0 Bft) O-SO 108 ° 0 min 0,000 mm 0,0 UV-I 11 W/m² 9,8 °C 10,6 °C 1,6 km/h (1 Bft)
21.08.2019 06:54 10,6 °C 95 % 1025,9 hPa 0,0 mm 3,6 km/h (1 Bft) O 85 ° 0 min 0,000 mm 0,0 UV-I 11 W/m² 9,8 °C 10,6 °C 6,4 km/h (2 Bft)
21.08.2019 06:55 10,6 °C 95 % 1025,9 hPa 0,0 mm 3,7 km/h (1 Bft) O 93 ° 0 min 0,000 mm 0,0 UV-I 11 W/m² 9,8 °C 10,6 °C 4,8 km/h (1 Bft)
21.08.2019 06:56 10,6 °C 95 % 1025,9 hPa 0,0 mm 2,6 km/h (1 Bft) O 92 ° 0 min 0,000 mm 0,0 UV-I 11 W/m² 9,8 °C 10,6 °C 6,4 km/h (2 Bft)
21.08.2019 06:57 10,7 °C 95 % 1025,9 hPa 0,0 mm 4,1 km/h (1 Bft) O 92 ° 0 min 0,000 mm 0,0 UV-I 12 W/m² 9,9 °C 10,7 °C 6,4 km/h (2 Bft)
21.08.2019 06:58 10,6 °C 95 % 1025,9 hPa 0,2 mm 3,7 km/h (1 Bft) O-SO 105 ° 0 min 0,000 mm 0,0 UV-I 12 W/m² 9,8 °C 10,6 °C 6,4 km/h (2 Bft)
21.08.2019 06:59 10,6 °C 95 % 1025,9 hPa 0,0 mm 0,1 km/h (0 Bft) O-SO 107 ° 0 min 0,000 mm 0,0 UV-I 12 W/m² 9,8 °C 10,6 °C 1,6 km/h (1 Bft)
21.08.2019 07:00 10,6 °C 95 % 1025,9 hPa 0,0 mm 2,1 km/h (1 Bft) NO 47 ° 0 min 0,000 mm 0,0 UV-I 12 W/m² 9,8 °C 10,6 °C 6,4 km/h (2 Bft)
21.08.2019 07:01 10,6 °C 95 % 1025,9 hPa 0,0 mm 1,4 km/h (1 Bft) N-NO 24 ° 0 min 0,000 mm 0,0 UV-I 12 W/m² 9,8 °C 10,6 °C 3,2 km/h (1 Bft)
21.08.2019 07:02 10,6 °C 95 % 1025,9 hPa 0,0 mm 2,5 km/h (1 Bft) O-NO 61 ° 0 min 0,000 mm 0,0 UV-I 11 W/m² 9,8 °C 10,6 °C 3,2 km/h (1 Bft)
21.08.2019 07:03 10,7 °C 95 % 1025,9 hPa 0,0 mm 0,9 km/h (0 Bft) S-SW 196 ° 0 min 0,000 mm 0,0 UV-I 11 W/m² 9,9 °C 10,7 °C 3,2 km/h (1 Bft)
21.08.2019 07:04 10,7 °C 95 % 1026,0 hPa 0,0 mm 2,6 km/h (1 Bft) O-SO 103 ° 0 min 0,000 mm 0,0 UV-I 11 W/m² 9,9 °C 10,7 °C 4,8 km/h (1 Bft)
21.08.2019 07:05 10,7 °C 95 % 1026,0 hPa 0,0 mm 4,4 km/h (1 Bft) O-NO 57 ° 0 min 0,000 mm 0,0 UV-I 11 W/m² 9,9 °C 10,7 °C 8,0 km/h (2 Bft)
21.08.2019 07:06 10,6 °C 95 % 1026,0 hPa 0,0 mm 1,7 km/h (1 Bft) O-SO 108 ° 0 min 0,000 mm 0,0 UV-I 11 W/m² 9,8 °C 10,6 °C 3,2 km/h (1 Bft)
21.08.2019 07:07 10,6 °C 95 % 1026,0 hPa 0,0 mm 0,8 km/h (0 Bft) O-SO 107 ° 0 min 0,000 mm 0,0 UV-I 12 W/m² 9,8 °C 10,6 °C 3,2 km/h (1 Bft)
21.08.2019 07:08 10,6 °C 95 % 1026,0 hPa 0,0 mm 0,4 km/h (0 Bft) O-SO 107 ° 0 min 0,000 mm 0,0 UV-I 14 W/m² 9,8 °C 10,6 °C 1,6 km/h (1 Bft)
21.08.2019 07:09 10,6 °C 95 % 1026,0 hPa 0,0 mm 1,8 km/h (1 Bft) O-SO 107 ° 0 min 0,000 mm 0,0 UV-I 16 W/m² 9,8 °C 10,6 °C 3,2 km/h (1 Bft)
21.08.2019 07:10 10,7 °C 95 % 1026,0 hPa 0,0 mm 1,4 km/h (1 Bft) O 90 ° 0 min 0,000 mm 0,0 UV-I 16 W/m² 9,9 °C 10,7 °C 3,2 km/h (1 Bft)
21.08.2019 07:11 10,7 °C 95 % 1026,0 hPa 0,0 mm 0,0 km/h (0 Bft) O 90 ° 0 min 0,000 mm 0,0 UV-I 18 W/m² 9,9 °C 10,7 °C 0,0 km/h (0 Bft)
21.08.2019 07:12 10,7 °C 95 % 1026,0 hPa 0,0 mm 0,1 km/h (0 Bft) O 90 ° 0 min 0,000 mm 0,0 UV-I 16 W/m² 9,9 °C 10,7 °C 1,6 km/h (1 Bft)
21.08.2019 07:13 10,7 °C 95 % 1026,0 hPa 0,0 mm 0,0 km/h (0 Bft) O 90 ° 0 min 0,000 mm 0,0 UV-I 16 W/m² 9,9 °C 10,7 °C 0,0 km/h (0 Bft)
21.08.2019 07:14 10,7 °C 95 % 1026,0 hPa 0,0 mm 0,8 km/h (0 Bft) O 90 ° 0 min 0,000 mm 0,0 UV-I 16 W/m² 9,9 °C 10,7 °C 3,2 km/h (1 Bft)
21.08.2019 07:15 10,7 °C 95 % 1026,0 hPa 0,0 mm 0,3 km/h (0 Bft) O 90 ° 0 min 0,000 mm 0,0 UV-I 16 W/m² 9,9 °C 10,7 °C 1,6 km/h (1 Bft)
21.08.2019 07:16 10,7 °C 95 % 1026,0 hPa 0,0 mm 0,7 km/h (0 Bft) O 90 ° 0 min 0,000 mm 0,0 UV-I 14 W/m² 9,9 °C 10,7 °C 3,2 km/h (1 Bft)
21.08.2019 07:17 10,7 °C 95 % 1026,0 hPa 0,0 mm 2,3 km/h (1 Bft) O 90 ° 0 min 0,000 mm 0,0 UV-I 14 W/m² 9,9 °C 10,7 °C 3,2 km/h (1 Bft)
21.08.2019 07:18 10,7 °C 95 % 1025,9 hPa 0,2 mm 2,2 km/h (1 Bft) W-SW 247 ° 0 min 0,000 mm 0,0 UV-I 14 W/m² 9,9 °C 10,7 °C 3,2 km/h (1 Bft)
21.08.2019 07:19 10,8 °C 95 % 1025,9 hPa 0,0 mm 0,4 km/h (0 Bft) W-SW 247 ° 0 min 0,000 mm 0,0 UV-I 14 W/m² 10,0 °C 10,8 °C 3,2 km/h (1 Bft)
21.08.2019 07:20 10,7 °C 95 % 1025,9 hPa 0,0 mm 0,4 km/h (0 Bft) O 89 ° 0 min 0,000 mm 0,0 UV-I 14 W/m² 9,9 °C 10,7 °C 3,2 km/h (1 Bft)
21.08.2019 07:21 10,8 °C 95 % 1025,9 hPa 0,0 mm 2,7 km/h (1 Bft) O-SO 117 ° 0 min 0,000 mm 0,0 UV-I 14 W/m² 10,0 °C 10,8 °C 6,4 km/h (2 Bft)
21.08.2019 07:22 10,8 °C 95 % 1025,9 hPa 0,0 mm 1,9 km/h (1 Bft) O-SO 115 ° 0 min 0,000 mm 0,0 UV-I 16 W/m² 10,0 °C 10,8 °C 3,2 km/h (1 Bft)
21.08.2019 07:23 10,8 °C 95 % 1025,8 hPa 0,0 mm 2,3 km/h (1 Bft) O-NO 61 ° 0 min 0,000 mm 0,0 UV-I 16 W/m² 10,0 °C 10,8 °C 6,4 km/h (2 Bft)
21.08.2019 07:24 10,8 °C 95 % 1025,9 hPa 0,0 mm 3,5 km/h (1 Bft) O-NO 59 ° 0 min 0,000 mm 0,0 UV-I 16 W/m² 10,0 °C 10,8 °C 4,8 km/h (1 Bft)
21.08.2019 07:25 10,8 °C 95 % 1025,8 hPa 0,0 mm 2,9 km/h (1 Bft) O-NO 59 ° 0 min 0,000 mm 0,0 UV-I 19 W/m² 10,0 °C 10,8 °C 4,8 km/h (1 Bft)
21.08.2019 07:26 10,8 °C 95 % 1025,9 hPa 0,0 mm 2,0 km/h (1 Bft) O-NO 59 ° 0 min 0,000 mm 0,0 UV-I 21 W/m² 10,0 °C 10,8 °C 3,2 km/h (1 Bft)
21.08.2019 07:27 10,8 °C 95 % 1025,9 hPa 0,0 mm 1,8 km/h (1 Bft) O-NO 59 ° 0 min 0,000 mm 0,0 UV-I 25 W/m² 10,0 °C 10,8 °C 4,8 km/h (1 Bft)
21.08.2019 07:28 10,8 °C 95 % 1025,9 hPa 0,0 mm 1,3 km/h (1 Bft) O-NO 59 ° 0 min 0,000 mm 0,0 UV-I 28 W/m² 10,0 °C 10,8 °C 3,2 km/h (1 Bft)
21.08.2019 07:29 10,8 °C 95 % 1025,9 hPa 0,0 mm 1,3 km/h (1 Bft) O-NO 59 ° 0 min 0,000 mm 0,0 UV-I 30 W/m² 10,0 °C 10,8 °C 1,6 km/h (1 Bft)
21.08.2019 07:30 10,8 °C 95 % 1025,9 hPa 0,0 mm 0,5 km/h (0 Bft) O-NO 59 ° 0 min 0,000 mm 0,0 UV-I 28 W/m² 10,0 °C 10,8 °C 1,6 km/h (1 Bft)
21.08.2019 07:31 10,9 °C 95 % 1025,9 hPa 0,0 mm 0,7 km/h (0 Bft) O-NO 59 ° 0 min 0,000 mm 0,0 UV-I 30 W/m² 10,1 °C 10,9 °C 1,6 km/h (1 Bft)
21.08.2019 07:32 10,8 °C 95 % 1025,9 hPa 0,0 mm 0,0 km/h (0 Bft) O-NO 59 ° 0 min 0,000 mm 0,0 UV-I 32 W/m² 10,0 °C 10,8 °C 0,0 km/h (0 Bft)
21.08.2019 07:33 10,8 °C 95 % 1025,9 hPa 0,0 mm 0,0 km/h (0 Bft) O-NO 59 ° 0 min 0,000 mm 0,0 UV-I 33 W/m² 10,0 °C 10,8 °C 0,0 km/h (0 Bft)
21.08.2019 07:34 10,8 °C 95 % 1026,0 hPa 0,0 mm 0,0 km/h (0 Bft) O-NO 59 ° 0 min 0,000 mm 0,0 UV-I 35 W/m² 10,0 °C 10,8 °C 0,0 km/h (0 Bft)
21.08.2019 07:35 10,8 °C 95 % 1026,0 hPa 0,2 mm 0,0 km/h (0 Bft) O-NO 59 ° 0 min 0,000 mm 0,0 UV-I 35 W/m² 10,0 °C 10,8 °C 0,0 km/h (0 Bft)
21.08.2019 07:36 10,8 °C 95 % 1026,0 hPa 0,0 mm 0,2 km/h (0 Bft) O-NO 59 ° 0 min 0,000 mm 0,0 UV-I 37 W/m² 10,0 °C 10,8 °C 1,6 km/h (1 Bft)
21.08.2019 07:37 10,9 °C 95 % 1026,0 hPa 0,0 mm 0,1 km/h (0 Bft) O-NO 59 ° 0 min 0,000 mm 0,0 UV-I 37 W/m² 10,1 °C 10,9 °C 1,6 km/h (1 Bft)
21.08.2019 07:38 10,9 °C 95 % 1026,0 hPa 0,0 mm 0,0 km/h (0 Bft) O-NO 59 ° 0 min 0,000 mm 0,0 UV-I 37 W/m² 10,1 °C 10,9 °C 0,0 km/h (0 Bft)
21.08.2019 07:39 10,9 °C 95 % 1026,1 hPa 0,0 mm 0,0 km/h (0 Bft) O-NO 59 ° 0 min 0,000 mm 0,0 UV-I 37 W/m² 10,1 °C 10,9 °C 0,0 km/h (0 Bft)
21.08.2019 07:40 10,9 °C 95 % 1026,0 hPa 0,0 mm 0,0 km/h (0 Bft) O-NO 59 ° 0 min 0,000 mm 0,0 UV-I 39 W/m² 10,1 °C 10,9 °C 0,0 km/h (0 Bft)
21.08.2019 07:41 11,1 °C 95 % 1026,1 hPa 0,0 mm 0,0 km/h (0 Bft) O-NO 59 ° 0 min 0,000 mm 0,0 UV-I 39 W/m² 10,3 °C 11,1 °C 0,0 km/h (0 Bft)
21.08.2019 07:42 11,1 °C 95 % 1026,1 hPa 0,0 mm 0,0 km/h (0 Bft) O-NO 59 ° 0 min 0,000 mm 0,0 UV-I 39 W/m² 10,3 °C 11,1 °C 0,0 km/h (0 Bft)
21.08.2019 07:43 11,1 °C 95 % 1026,1 hPa 0,0 mm 0,0 km/h (0 Bft) O-NO 59 ° 0 min 0,000 mm 0,0 UV-I 42 W/m² 10,3 °C 11,1 °C 0,0 km/h (0 Bft)
21.08.2019 07:44 11,0 °C 95 % 1026,1 hPa 0,0 mm 0,0 km/h (0 Bft) O-NO 59 ° 0 min 0,000 mm 0,0 UV-I 42 W/m² 10,2 °C 11,0 °C 0,0 km/h (0 Bft)
21.08.2019 07:45 11,0 °C 95 % 1026,1 hPa 0,0 mm 0,0 km/h (0 Bft) O-NO 59 ° 0 min 0,000 mm 0,0 UV-I 44 W/m² 10,2 °C 11,0 °C 0,0 km/h (0 Bft)
21.08.2019 07:46 10,9 °C 95 % 1026,1 hPa 0,0 mm 0,0 km/h (0 Bft) O-NO 59 ° 0 min 0,000 mm 0,0 UV-I 46 W/m² 10,1 °C 10,9 °C 0,0 km/h (0 Bft)
21.08.2019 07:47 11,0 °C 95 % 1026,1 hPa 0,0 mm 0,0 km/h (0 Bft) O-NO 59 ° 0 min 0,000 mm 0,0 UV-I 46 W/m² 10,2 °C 11,0 °C 0,0 km/h (0 Bft)
21.08.2019 07:48 10,9 °C 95 % 1026,1 hPa 0,0 mm 0,0 km/h (0 Bft) O-NO 59 ° 0 min 0,000 mm 0,0 UV-I 47 W/m² 10,1 °C 10,9 °C 0,0 km/h (0 Bft)
21.08.2019 07:49 11,0 °C 95 % 1026,1 hPa 0,0 mm 0,0 km/h (0 Bft) O-NO 59 ° 0 min 0,000 mm 0,0 UV-I 51 W/m² 10,2 °C 11,0 °C 0,0 km/h (0 Bft)
21.08.2019 07:50 10,9 °C 95 % 1026,1 hPa 0,0 mm 0,0 km/h (0 Bft) O-NO 59 ° 0 min 0,000 mm 0,0 UV-I 54 W/m² 10,1 °C 10,9 °C 0,0 km/h (0 Bft)
21.08.2019 07:51 11,0 °C 95 % 1026,1 hPa 0,0 mm 0,0 km/h (0 Bft) O-NO 59 ° 0 min 0,000 mm 0,0 UV-I 54 W/m² 10,2 °C 11,0 °C 0,0 km/h (0 Bft)
21.08.2019 07:52 11,1 °C 95 % 1026,1 hPa 0,0 mm 0,0 km/h (0 Bft) O-NO 59 ° 0 min 0,000 mm 0,0 UV-I 54 W/m² 10,3 °C 11,1 °C 0,0 km/h (0 Bft)
21.08.2019 07:53 11,1 °C 95 % 1026,1 hPa 0,0 mm 1,4 km/h (1 Bft) O-NO 59 ° 0 min 0,000 mm 0,5 UV-I 60 W/m² 10,3 °C 11,1 °C 3,2 km/h (1 Bft)
21.08.2019 07:54 11,1 °C 95 % 1026,1 hPa 0,0 mm 1,1 km/h (1 Bft) O-NO 59 ° 0 min 0,000 mm 0,5 UV-I 60 W/m² 10,3 °C 11,1 °C 1,6 km/h (1 Bft)
21.08.2019 07:55 11,2 °C 95 % 1026,2 hPa 0,0 mm 0,2 km/h (0 Bft) O-NO 59 ° 0 min 0,000 mm 0,5 UV-I 62 W/m² 10,4 °C 11,2 °C 1,6 km/h (1 Bft)
21.08.2019 07:56 11,1 °C 95 % 1026,2 hPa 0,0 mm 0,4 km/h (0 Bft) O-NO 59 ° 0 min 0,000 mm 0,5 UV-I 63 W/m² 10,3 °C 11,1 °C 1,6 km/h (1 Bft)
21.08.2019 07:57 11,1 °C 95 % 1026,2 hPa 0,2 mm 2,4 km/h (1 Bft) O-NO 59 ° 0 min 0,000 mm 0,5 UV-I 65 W/m² 10,3 °C 11,1 °C 3,2 km/h (1 Bft)
21.08.2019 07:58 11,2 °C 95 % 1026,2 hPa 0,0 mm 3,5 km/h (1 Bft) O-NO 59 ° 0 min 0,000 mm 0,5 UV-I 69 W/m² 10,4 °C 11,2 °C 4,8 km/h (1 Bft)
21.08.2019 07:59 11,1 °C 95 % 1026,3 hPa 0,0 mm 2,6 km/h (1 Bft) O-NO 59 ° 0 min 0,000 mm 0,5 UV-I 81 W/m² 10,3 °C 11,1 °C 3,2 km/h (1 Bft)
21.08.2019 08:00 11,1 °C 95 % 1026,2 hPa 0,0 mm 0,9 km/h (0 Bft) O-NO 59 ° 0 min 0,000 mm 0,5 UV-I 60 W/m² 10,3 °C 11,1 °C 3,2 km/h (1 Bft)
21.08.2019 08:01 11,1 °C 95 % 1026,2 hPa 0,0 mm 0,0 km/h (0 Bft) O-NO 59 ° 0 min 0,025 mm 0,5 UV-I 60 W/m² 10,3 °C 11,1 °C 0,0 km/h (0 Bft)
21.08.2019 08:03 11,2 °C 95 % 1026,2 hPa 0,0 mm 0,0 km/h (0 Bft) O-NO 59 ° 0 min 0,000 mm 0,5 UV-I 60 W/m² 10,4 °C 11,2 °C 1,6 km/h (1 Bft)
21.08.2019 08:04 11,2 °C 95 % 1026,2 hPa 0,0 mm 0,0 km/h (0 Bft) O-NO 59 ° 0 min 0,000 mm 0,5 UV-I 60 W/m² 10,4 °C 11,2 °C 0,0 km/h (0 Bft)
21.08.2019 08:05 11,3 °C 95 % 1026,3 hPa 0,0 mm 0,0 km/h (0 Bft) O-NO 59 ° 0 min 0,000 mm 0,6 UV-I 60 W/m² 10,5 °C 11,3 °C 0,0 km/h (0 Bft)
21.08.2019 08:06 11,2 °C 95 % 1026,2 hPa 0,0 mm 0,0 km/h (0 Bft) O-NO 59 ° 0 min 0,000 mm 0,6 UV-I 67 W/m² 10,4 °C 11,2 °C 0,0 km/h (0 Bft)
21.08.2019 08:07 11,2 °C 95 % 1026,2 hPa 0,0 mm 0,7 km/h (0 Bft) O-NO 59 ° 0 min 0,000 mm 0,6 UV-I 58 W/m² 10,4 °C 11,2 °C 3,2 km/h (1 Bft)
21.08.2019 08:08 11,2 °C 95 % 1026,3 hPa 0,0 mm 1,9 km/h (1 Bft) O-NO 59 ° 0 min 0,000 mm 0,0 UV-I 54 W/m² 10,4 °C 11,2 °C 3,2 km/h (1 Bft)
21.08.2019 08:09 11,2 °C 95 % 1026,3 hPa 0,0 mm 0,3 km/h (0 Bft) O-NO 59 ° 0 min 0,000 mm 0,0 UV-I 51 W/m² 10,4 °C 11,2 °C 1,6 km/h (1 Bft)
21.08.2019 08:10 11,2 °C 95 % 1026,3 hPa 0,0 mm 0,6 km/h (0 Bft) O-NO 59 ° 0 min 0,000 mm 0,0 UV-I 47 W/m² 10,4 °C 11,2 °C 3,2 km/h (1 Bft)
21.08.2019 08:11 11,2 °C 95 % 1026,3 hPa 0,0 mm 2,4 km/h (1 Bft) O-NO 59 ° 0 min 0,000 mm 0,0 UV-I 46 W/m² 10,4 °C 11,2 °C 3,2 km/h (1 Bft)
21.08.2019 08:12 11,2 °C 95 % 1026,3 hPa 0,0 mm 1,3 km/h (1 Bft) O-NO 59 ° 0 min 0,000 mm 0,0 UV-I 44 W/m² 10,4 °C 11,2 °C 3,2 km/h (1 Bft)
21.08.2019 08:13 11,2 °C 95 % 1026,3 hPa 0,0 mm 0,0 km/h (0 Bft) O-NO 59 ° 0 min 0,000 mm 0,0 UV-I 44 W/m² 10,4 °C 11,2 °C 0,0 km/h (0 Bft)
21.08.2019 08:14 11,2 °C 95 % 1026,3 hPa 0,2 mm 2,5 km/h (1 Bft) NO 43 ° 0 min 0,000 mm 0,0 UV-I 42 W/m² 10,4 °C 11,2 °C 4,8 km/h (1 Bft)
21.08.2019 08:15 11,2 °C 95 % 1026,2 hPa 0,0 mm 2,0 km/h (1 Bft) NO 43 ° 0 min 0,000 mm 0,0 UV-I 42 W/m² 10,4 °C 11,2 °C 3,2 km/h (1 Bft)
21.08.2019 08:16 11,2 °C 95 % 1026,3 hPa 0,0 mm 1,7 km/h (1 Bft) NO 42 ° 0 min 0,000 mm 0,0 UV-I 42 W/m² 10,4 °C 11,2 °C 3,2 km/h (1 Bft)
21.08.2019 08:17 11,2 °C 95 % 1026,3 hPa 0,0 mm 1,3 km/h (1 Bft) NO 42 ° 0 min 0,000 mm 0,0 UV-I 44 W/m² 10,4 °C 11,2 °C 3,2 km/h (1 Bft)
21.08.2019 08:18 11,2 °C 95 % 1026,3 hPa 0,0 mm 2,2 km/h (1 Bft) NO 42 ° 0 min 0,000 mm 0,0 UV-I 51 W/m² 10,4 °C 11,2 °C 4,8 km/h (1 Bft)
21.08.2019 08:19 11,2 °C 95 % 1026,2 hPa 0,0 mm 1,4 km/h (1 Bft) NO 43 ° 0 min 0,000 mm 0,0 UV-I 54 W/m² 10,4 °C 11,2 °C 3,2 km/h (1 Bft)
21.08.2019 08:20 11,2 °C 95 % 1026,2 hPa 0,0 mm 2,3 km/h (1 Bft) NO 43 ° 0 min 0,000 mm 0,8 UV-I 60 W/m² 10,4 °C 11,2 °C 3,2 km/h (1 Bft)
21.08.2019 08:21 11,2 °C 95 % 1026,2 hPa 0,0 mm 0,2 km/h (0 Bft) NO 42 ° 0 min 0,000 mm 0,8 UV-I 60 W/m² 10,4 °C 11,2 °C 1,6 km/h (1 Bft)
21.08.2019 08:22 11,2 °C 95 % 1026,2 hPa 0,0 mm 0,0 km/h (0 Bft) NO 43 ° 0 min 0,000 mm 0,9 UV-I 60 W/m² 10,4 °C 11,2 °C 0,0 km/h (0 Bft)
21.08.2019 08:23 11,2 °C 95 % 1026,2 hPa 0,0 mm 0,0 km/h (0 Bft) NO 43 ° 0 min 0,000 mm 0,9 UV-I 58 W/m² 10,4 °C 11,2 °C 0,0 km/h (0 Bft)
21.08.2019 08:24 11,2 °C 95 % 1026,2 hPa 0,0 mm 1,3 km/h (1 Bft) O-NO 71 ° 0 min 0,000 mm 0,9 UV-I 141 W/m² 10,4 °C 11,2 °C 4,8 km/h (1 Bft)
21.08.2019 08:25 11,2 °C 95 % 1026,2 hPa 0,0 mm 3,4 km/h (1 Bft) O 86 ° 0 min 0,000 mm 1,0 UV-I 167 W/m² 10,4 °C 11,2 °C 4,8 km/h (1 Bft)
21.08.2019 08:26 11,2 °C 95 % 1026,2 hPa 0,0 mm 3,0 km/h (1 Bft) O-NO 78 ° 0 min 0,000 mm 1,0 UV-I 167 W/m² 10,4 °C 11,2 °C 4,8 km/h (1 Bft)
21.08.2019 08:27 11,3 °C 95 % 1026,2 hPa 0,0 mm 2,6 km/h (1 Bft) O-NO 78 ° 0 min 0,000 mm 1,1 UV-I 190 W/m² 10,5 °C 11,3 °C 4,8 km/h (1 Bft)
21.08.2019 08:28 11,3 °C 95 % 1026,2 hPa 0,0 mm 1,4 km/h (1 Bft) O-NO 78 ° 0 min 0,000 mm 1,0 UV-I 169 W/m² 10,5 °C 11,3 °C 3,2 km/h (1 Bft)
21.08.2019 08:29 11,3 °C 95 % 1026,3 hPa 0,0 mm 0,4 km/h (0 Bft) O-NO 78 ° 0 min 0,000 mm 1,0 UV-I 125 W/m² 10,5 °C 11,3 °C 1,6 km/h (1 Bft)
21.08.2019 08:30 11,4 °C 95 % 1026,3 hPa 0,0 mm 0,2 km/h (0 Bft) O-NO 78 ° 0 min 0,000 mm 0,8 UV-I 114 W/m² 10,6 °C 11,4 °C 1,6 km/h (1 Bft)
21.08.2019 08:31 11,4 °C 95 % 1026,2 hPa 0,0 mm 0,4 km/h (0 Bft) O-NO 78 ° 0 min 0,000 mm 0,8 UV-I 102 W/m² 10,6 °C 11,4 °C 3,2 km/h (1 Bft)
21.08.2019 08:32 11,4 °C 95 % 1026,2 hPa 0,0 mm 2,3 km/h (1 Bft) O-NO 78 ° 0 min 0,000 mm 0,8 UV-I 95 W/m² 10,6 °C 11,4 °C 4,8 km/h (1 Bft)
21.08.2019 08:33 11,4 °C 95 % 1026,3 hPa 0,0 mm 2,5 km/h (1 Bft) O-NO 78 ° 0 min 0,000 mm 0,8 UV-I 95 W/m² 10,6 °C 11,4 °C 3,2 km/h (1 Bft)
21.08.2019 08:34 11,4 °C 95 % 1026,3 hPa 0,0 mm 1,9 km/h (1 Bft) O-NO 78 ° 0 min 0,000 mm 0,8 UV-I 98 W/m² 10,6 °C 11,4 °C 6,4 km/h (2 Bft)
21.08.2019 08:35 11,4 °C 95 % 1026,2 hPa 0,0 mm 0,9 km/h (0 Bft) O-NO 78 ° 0 min 0,000 mm 0,8 UV-I 102 W/m² 10,6 °C 11,4 °C 3,2 km/h (1 Bft)
21.08.2019 08:36 11,4 °C 95 % 1026,3 hPa 0,2 mm 0,0 km/h (0 Bft) O-NO 78 ° 0 min 0,000 mm 0,8 UV-I 111 W/m² 10,6 °C 11,4 °C 0,0 km/h (0 Bft)
21.08.2019 08:37 11,4 °C 95 % 1026,3 hPa 0,0 mm 0,0 km/h (0 Bft) O-NO 78 ° 0 min 0,000 mm 0,9 UV-I 107 W/m² 10,6 °C 11,4 °C 0,0 km/h (0 Bft)
21.08.2019 08:38 11,4 °C 95 % 1026,4 hPa 0,0 mm 2,5 km/h (1 Bft) O-SO 104 ° 0 min 0,000 mm 0,8 UV-I 100 W/m² 10,6 °C 11,4 °C 4,8 km/h (1 Bft)
21.08.2019 08:39 11,3 °C 95 % 1026,3 hPa 0,0 mm 6,0 km/h (2 Bft) O 94 ° 0 min 0,000 mm 0,9 UV-I 109 W/m² 10,5 °C 11,3 °C 9,7 km/h (2 Bft)
21.08.2019 08:40 11,3 °C 95 % 1026,3 hPa 0,0 mm 1,4 km/h (1 Bft) O 94 ° 0 min 0,000 mm 0,9 UV-I 118 W/m² 10,5 °C 11,3 °C 6,4 km/h (2 Bft)
21.08.2019 08:41 11,3 °C 94 % 1026,3 hPa 0,0 mm 3,4 km/h (1 Bft) O-NO 67 ° 0 min 0,000 mm 0,9 UV-I 125 W/m² 10,4 °C 11,3 °C 4,8 km/h (1 Bft)
21.08.2019 08:42 11,3 °C 94 % 1026,2 hPa 0,0 mm 3,4 km/h (1 Bft) O-NO 66 ° 0 min 0,000 mm 0,9 UV-I 105 W/m² 10,4 °C 11,3 °C 4,8 km/h (1 Bft)
21.08.2019 08:43 11,3 °C 95 % 1026,2 hPa 0,0 mm 1,1 km/h (1 Bft) O-NO 68 ° 0 min 0,000 mm 0,9 UV-I 98 W/m² 10,5 °C 11,3 °C 3,2 km/h (1 Bft)
21.08.2019 08:44 11,3 °C 95 % 1026,2 hPa 0,0 mm 1,6 km/h (1 Bft) O-NO 65 ° 0 min 0,000 mm 0,9 UV-I 95 W/m² 10,5 °C 11,3 °C 3,2 km/h (1 Bft)
21.08.2019 08:45 11,4 °C 95 % 1026,2 hPa 0,0 mm 4,0 km/h (1 Bft) NO 40 ° 0 min 0,000 mm 0,9 UV-I 111 W/m² 10,6 °C 11,4 °C 8,0 km/h (2 Bft)
21.08.2019 08:46 11,3 °C 95 % 1026,2 hPa 0,0 mm 6,6 km/h (2 Bft) NO 54 ° 0 min 0,000 mm 1,0 UV-I 137 W/m² 10,5 °C 11,3 °C 9,7 km/h (2 Bft)
21.08.2019 08:47 11,3 °C 95 % 1026,2 hPa 0,0 mm 7,6 km/h (2 Bft) NO 36 ° 0 min 0,000 mm 1,1 UV-I 149 W/m² 10,5 °C 11,3 °C 12,9 km/h (3 Bft)
21.08.2019 08:48 11,3 °C 95 % 1026,2 hPa 0,0 mm 5,2 km/h (1 Bft) O-NO 67 ° 0 min 0,000 mm 1,1 UV-I 134 W/m² 10,5 °C 11,3 °C 8,0 km/h (2 Bft)
21.08.2019 08:49 11,3 °C 95 % 1026,2 hPa 0,0 mm 7,0 km/h (2 Bft) N-NO 26 ° 0 min 0,000 mm 1,0 UV-I 121 W/m² 10,5 °C 11,3 °C 9,7 km/h (2 Bft)
21.08.2019 08:50 11,3 °C 95 % 1026,3 hPa 0,0 mm 1,9 km/h (1 Bft) N-NO 26 ° 0 min 0,000 mm 1,0 UV-I 116 W/m² 10,5 °C 11,3 °C 6,4 km/h (2 Bft)
21.08.2019 08:51 11,3 °C 95 % 1026,2 hPa 0,0 mm 2,5 km/h (1 Bft) O 88 ° 0 min 0,000 mm 1,0 UV-I 132 W/m² 10,5 °C 11,3 °C 9,7 km/h (2 Bft)
21.08.2019 08:52 11,3 °C 95 % 1026,3 hPa 0,0 mm 4,7 km/h (1 Bft) NO 55 ° 0 min 0,000 mm 1,0 UV-I 148 W/m² 10,5 °C 11,3 °C 6,4 km/h (2 Bft)
21.08.2019 08:53 11,3 °C 95 % 1026,2 hPa 0,0 mm 2,7 km/h (1 Bft) O-NO 78 ° 0 min 0,000 mm 1,0 UV-I 155 W/m² 10,5 °C 11,3 °C 4,8 km/h (1 Bft)
21.08.2019 08:54 11,4 °C 95 % 1026,2 hPa 0,0 mm 4,1 km/h (1 Bft) O-NO 70 ° 0 min 0,000 mm 1,0 UV-I 162 W/m² 10,6 °C 11,4 °C 4,8 km/h (1 Bft)
21.08.2019 08:55 11,4 °C 95 % 1026,2 hPa 0,2 mm 5,4 km/h (1 Bft) O 82 ° 0 min 0,000 mm 1,0 UV-I 156 W/m² 10,6 °C 11,4 °C 6,4 km/h (2 Bft)
21.08.2019 08:56 11,4 °C 95 % 1026,2 hPa 0,0 mm 2,6 km/h (1 Bft) O-NO 78 ° 0 min 0,000 mm 1,0 UV-I 148 W/m² 10,6 °C 11,4 °C 4,8 km/h (1 Bft)
21.08.2019 08:57 11,4 °C 95 % 1026,2 hPa 0,0 mm 4,4 km/h (1 Bft) O-NO 62 ° 0 min 0,000 mm 0,9 UV-I 141 W/m² 10,6 °C 11,4 °C 6,4 km/h (2 Bft)
21.08.2019 08:58 11,4 °C 95 % 1026,2 hPa 0,0 mm 2,7 km/h (1 Bft) O-NO 62 ° 0 min 0,000 mm 0,9 UV-I 153 W/m² 10,6 °C 11,4 °C 4,8 km/h (1 Bft)
21.08.2019 08:59 11,5 °C 95 % 1026,1 hPa 0,0 mm 5,4 km/h (1 Bft) O-NO 77 ° 0 min 0,000 mm 1,0 UV-I 160 W/m² 10,7 °C 11,5 °C 8,0 km/h (2 Bft)
21.08.2019 09:00 11,5 °C 94 % 1026,1 hPa 0,0 mm 1,9 km/h (1 Bft) O-NO 77 ° 0 min 0,000 mm 0,9 UV-I 144 W/m² 10,6 °C 11,5 °C 3,2 km/h (1 Bft)
21.08.2019 09:01 11,5 °C 94 % 1026,1 hPa 0,0 mm 5,1 km/h (1 Bft) O-NO 59 ° 0 min 0,051 mm 0,9 UV-I 130 W/m² 10,6 °C 11,5 °C 8,0 km/h (2 Bft)
21.08.2019 09:02 11,5 °C 94 % 1026,1 hPa 0,0 mm 5,9 km/h (2 Bft) O-NO 57 ° 0 min 0,000 mm 0,9 UV-I 134 W/m² 10,6 °C 11,5 °C 8,0 km/h (2 Bft)
21.08.2019 09:03 11,6 °C 94 % 1026,1 hPa 0,0 mm 3,4 km/h (1 Bft) O-NO 77 ° 0 min 0,000 mm 1,0 UV-I 139 W/m² 10,7 °C 11,6 °C 6,4 km/h (2 Bft)
21.08.2019 09:04 11,6 °C 94 % 1026,1 hPa 0,0 mm 5,5 km/h (1 Bft) O-NO 63 ° 0 min 0,000 mm 1,0 UV-I 141 W/m² 10,7 °C 11,6 °C 11,3 km/h (2 Bft)
21.08.2019 09:05 11,5 °C 94 % 1026,1 hPa 0,0 mm 4,4 km/h (1 Bft) N 11 ° 0 min 0,000 mm 1,0 UV-I 144 W/m² 10,6 °C 11,5 °C 8,0 km/h (2 Bft)
21.08.2019 09:06 11,5 °C 94 % 1026,1 hPa 0,0 mm 3,8 km/h (1 Bft) O-NO 63 ° 0 min 0,000 mm 1,0 UV-I 132 W/m² 10,6 °C 11,5 °C 6,4 km/h (2 Bft)
21.08.2019 09:07 11,6 °C 94 % 1026,1 hPa 0,0 mm 4,6 km/h (1 Bft) O-NO 57 ° 0 min 0,000 mm 0,9 UV-I 123 W/m² 10,7 °C 11,6 °C 8,0 km/h (2 Bft)
21.08.2019 09:08 11,6 °C 94 % 1026,1 hPa 0,0 mm 4,2 km/h (1 Bft) O-NO 62 ° 0 min 0,000 mm 1,0 UV-I 146 W/m² 10,7 °C 11,6 °C 4,8 km/h (1 Bft)
21.08.2019 09:09 11,6 °C 94 % 1026,1 hPa 0,0 mm 4,9 km/h (1 Bft) N-NO 27 ° 0 min 0,000 mm 1,1 UV-I 165 W/m² 10,7 °C 11,6 °C 8,0 km/h (2 Bft)
21.08.2019 09:10 11,6 °C 94 % 1026,1 hPa 0,0 mm 3,5 km/h (1 Bft) O-NO 77 ° 0 min 0,000 mm 1,1 UV-I 174 W/m² 10,7 °C 11,6 °C 6,4 km/h (2 Bft)
21.08.2019 09:11 11,6 °C 94 % 1026,0 hPa 0,0 mm 4,8 km/h (1 Bft) NO 47 ° 0 min 0,000 mm 1,1 UV-I 160 W/m² 10,7 °C 11,6 °C 8,0 km/h (2 Bft)
21.08.2019 09:12 11,6 °C 94 % 1026,1 hPa 0,0 mm 1,2 km/h (1 Bft) NO 47 ° 0 min 0,000 mm 1,0 UV-I 153 W/m² 10,7 °C 11,6 °C 3,2 km/h (1 Bft)
21.08.2019 09:13 11,6 °C 94 % 1026,1 hPa 0,0 mm 4,5 km/h (1 Bft) O 87 ° 0 min 0,000 mm 0,9 UV-I 134 W/m² 10,7 °C 11,6 °C 6,4 km/h (2 Bft)
21.08.2019 09:14 11,6 °C 94 % 1026,1 hPa 0,0 mm 6,3 km/h (2 Bft) O-NO 67 ° 0 min 0,000 mm 0,8 UV-I 105 W/m² 10,7 °C 11,6 °C 9,7 km/h (2 Bft)
21.08.2019 09:15 11,6 °C 94 % 1026,1 hPa 0,0 mm 6,2 km/h (2 Bft) O-NO 62 ° 0 min 0,000 mm 0,7 UV-I 86 W/m² 10,7 °C 11,6 °C 8,0 km/h (2 Bft)
21.08.2019 09:16 11,6 °C 94 % 1026,1 hPa 0,0 mm 4,1 km/h (1 Bft) O-NO 78 ° 0 min 0,000 mm 0,6 UV-I 77 W/m² 10,7 °C 11,6 °C 6,4 km/h (2 Bft)
21.08.2019 09:17 11,6 °C 94 % 1026,1 hPa 0,0 mm 5,0 km/h (1 Bft) NO 52 ° 0 min 0,000 mm 0,6 UV-I 76 W/m² 10,7 °C 11,6 °C 9,7 km/h (2 Bft)
21.08.2019 09:18 11,6 °C 94 % 1026,1 hPa 0,2 mm 2,7 km/h (1 Bft) O 80 ° 0 min 0,000 mm 0,8 UV-I 84 W/m² 10,7 °C 11,6 °C 9,7 km/h (2 Bft)
21.08.2019 09:19 11,6 °C 94 % 1026,1 hPa 0,0 mm 8,0 km/h (2 Bft) NO 56 ° 0 min 0,000 mm 0,9 UV-I 121 W/m² 10,7 °C 11,6 °C 11,3 km/h (2 Bft)
21.08.2019 09:20 11,6 °C 94 % 1026,0 hPa 0,0 mm 3,0 km/h (1 Bft) N-NO 30 ° 0 min 0,000 mm 1,0 UV-I 144 W/m² 10,7 °C 11,6 °C 4,8 km/h (1 Bft)
21.08.2019 09:21 11,6 °C 94 % 1026,0 hPa 0,0 mm 5,8 km/h (2 Bft) O-NO 76 ° 0 min 0,000 mm 1,0 UV-I 156 W/m² 10,7 °C 11,6 °C 11,3 km/h (2 Bft)
21.08.2019 09:22 11,6 °C 94 % 1026,0 hPa 0,0 mm 2,7 km/h (1 Bft) NO 38 ° 0 min 0,000 mm 1,0 UV-I 142 W/m² 10,7 °C 11,6 °C 6,4 km/h (2 Bft)
21.08.2019 09:23 11,6 °C 94 % 1026,0 hPa 0,0 mm 4,4 km/h (1 Bft) O-NO 64 ° 0 min 0,000 mm 0,8 UV-I 135 W/m² 10,7 °C 11,6 °C 6,4 km/h (2 Bft)
21.08.2019 09:24 11,6 °C 94 % 1026,0 hPa 0,0 mm 4,2 km/h (1 Bft) O-NO 69 ° 0 min 0,000 mm 0,8 UV-I 146 W/m² 10,7 °C 11,6 °C 6,4 km/h (2 Bft)
21.08.2019 09:25 11,6 °C 94 % 1026,0 hPa 0,0 mm 4,6 km/h (1 Bft) O 80 ° 0 min 0,000 mm 0,8 UV-I 149 W/m² 10,7 °C 11,6 °C 8,0 km/h (2 Bft)
21.08.2019 09:26 11,6 °C 94 % 1026,0 hPa 0,0 mm 3,4 km/h (1 Bft) O-NO 69 ° 0 min 0,000 mm 0,8 UV-I 132 W/m² 10,7 °C 11,6 °C 4,8 km/h (1 Bft)
21.08.2019 09:27 11,6 °C 94 % 1026,1 hPa 0,0 mm 6,2 km/h (2 Bft) O 86 ° 0 min 0,000 mm 0,7 UV-I 114 W/m² 10,7 °C 11,6 °C 11,3 km/h (2 Bft)
21.08.2019 09:28 11,7 °C 94 % 1026,1 hPa 0,0 mm 3,1 km/h (1 Bft) O-NO 70 ° 0 min 0,000 mm 0,7 UV-I 109 W/m² 10,8 °C 11,7 °C 4,8 km/h (1 Bft)
21.08.2019 09:29 11,6 °C 94 % 1026,1 hPa 0,0 mm 4,6 km/h (1 Bft) O-NO 69 ° 0 min 0,000 mm 0,6 UV-I 95 W/m² 10,7 °C 11,6 °C 9,7 km/h (2 Bft)
21.08.2019 09:30 11,6 °C 94 % 1026,2 hPa 0,0 mm 5,0 km/h (1 Bft) O-NO 60 ° 0 min 0,000 mm 0,6 UV-I 84 W/m² 10,7 °C 11,6 °C 6,4 km/h (2 Bft)
21.08.2019 09:31 11,6 °C 94 % 1026,2 hPa 0,0 mm 1,8 km/h (1 Bft) O-NO 60 ° 0 min 0,000 mm 0,6 UV-I 84 W/m² 10,7 °C 11,6 °C 3,2 km/h (1 Bft)
21.08.2019 09:32 11,6 °C 94 % 1026,2 hPa 0,0 mm 2,8 km/h (1 Bft) O-NO 60 ° 0 min 0,000 mm 0,6 UV-I 88 W/m² 10,7 °C 11,6 °C 8,0 km/h (2 Bft)
21.08.2019 09:33 11,6 °C 94 % 1026,2 hPa 0,0 mm 4,5 km/h (1 Bft) N-NO 20 ° 0 min 0,000 mm 0,7 UV-I 93 W/m² 10,7 °C 11,6 °C 8,0 km/h (2 Bft)
21.08.2019 09:34 11,6 °C 94 % 1026,2 hPa 0,0 mm 6,4 km/h (2 Bft) O-NO 67 ° 0 min 0,000 mm 0,7 UV-I 116 W/m² 10,7 °C 11,6 °C 9,7 km/h (2 Bft)
21.08.2019 09:35 11,6 °C 94 % 1026,2 hPa 0,0 mm 5,9 km/h (2 Bft) N-NO 24 ° 0 min 0,000 mm 0,9 UV-I 128 W/m² 10,7 °C 11,6 °C 9,7 km/h (2 Bft)
21.08.2019 09:36 11,6 °C 94 % 1026,2 hPa 0,2 mm 3,5 km/h (1 Bft) NO 55 ° 0 min 0,000 mm 0,9 UV-I 134 W/m² 10,7 °C 11,6 °C 4,8 km/h (1 Bft)
21.08.2019 09:37 11,7 °C 94 % 1026,2 hPa 0,0 mm 1,9 km/h (1 Bft) O-NO 59 ° 0 min 0,000 mm 0,9 UV-I 127 W/m² 10,8 °C 11,7 °C 3,2 km/h (1 Bft)
21.08.2019 09:38 11,7 °C 94 % 1026,2 hPa 0,0 mm 2,5 km/h (1 Bft) N 355 ° 0 min 0,000 mm 0,9 UV-I 125 W/m² 10,8 °C 11,7 °C 4,8 km/h (1 Bft)
21.08.2019 09:39 11,7 °C 94 % 1026,2 hPa 0,0 mm 5,8 km/h (2 Bft) NO 48 ° 0 min 0,000 mm 0,9 UV-I 125 W/m² 10,8 °C 11,7 °C 6,4 km/h (2 Bft)
21.08.2019 09:40 11,7 °C 94 % 1026,2 hPa 0,0 mm 3,9 km/h (1 Bft) O-NO 59 ° 0 min 0,000 mm 0,9 UV-I 130 W/m² 10,8 °C 11,7 °C 6,4 km/h (2 Bft)
21.08.2019 09:41 11,7 °C 94 % 1026,2 hPa 0,0 mm 2,7 km/h (1 Bft) O 80 ° 0 min 0,000 mm 1,1 UV-I 151 W/m² 10,8 °C 11,7 °C 6,4 km/h (2 Bft)
21.08.2019 09:42 11,8 °C 94 % 1026,2 hPa 0,0 mm 0,4 km/h (0 Bft) O-NO 68 ° 0 min 0,000 mm 1,2 UV-I 162 W/m² 10,9 °C 11,8 °C 4,8 km/h (1 Bft)
21.08.2019 09:43 11,8 °C 94 % 1026,2 hPa 0,0 mm 5,5 km/h (1 Bft) N-NO 16 ° 0 min 0,000 mm 1,2 UV-I 162 W/m² 10,9 °C 11,8 °C 6,4 km/h (2 Bft)
21.08.2019 09:44 11,8 °C 94 % 1026,2 hPa 0,0 mm 6,8 km/h (2 Bft) O 100 ° 0 min 0,000 mm 1,2 UV-I 162 W/m² 10,9 °C 11,8 °C 11,3 km/h (2 Bft)
21.08.2019 09:45 11,8 °C 94 % 1026,2 hPa 0,0 mm 5,8 km/h (2 Bft) NO 51 ° 0 min 0,000 mm 1,1 UV-I 158 W/m² 10,9 °C 11,8 °C 9,7 km/h (2 Bft)
21.08.2019 09:46 11,8 °C 94 % 1026,2 hPa 0,0 mm 3,1 km/h (1 Bft) O-NO 58 ° 0 min 0,000 mm 1,0 UV-I 141 W/m² 10,9 °C 11,8 °C 6,4 km/h (2 Bft)
21.08.2019 09:47 11,9 °C 94 % 1026,2 hPa 0,0 mm 2,0 km/h (1 Bft) NO 56 ° 0 min 0,000 mm 1,0 UV-I 146 W/m² 11,0 °C 11,9 °C 4,8 km/h (1 Bft)
21.08.2019 09:48 11,9 °C 94 % 1026,2 hPa 0,0 mm 2,3 km/h (1 Bft) NO 55 ° 0 min 0,000 mm 1,1 UV-I 146 W/m² 11,0 °C 11,9 °C 4,8 km/h (1 Bft)
21.08.2019 09:49 11,9 °C 94 % 1026,2 hPa 0,0 mm 5,2 km/h (1 Bft) O-NO 57 ° 0 min 0,000 mm 1,3 UV-I 167 W/m² 11,0 °C 11,9 °C 9,7 km/h (2 Bft)
21.08.2019 09:50 11,9 °C 94 % 1026,2 hPa 0,0 mm 4,3 km/h (1 Bft) O-NO 74 ° 0 min 0,000 mm 1,4 UV-I 192 W/m² 11,0 °C 11,9 °C 6,4 km/h (2 Bft)
21.08.2019 09:51 11,9 °C 94 % 1026,2 hPa 0,0 mm 1,3 km/h (1 Bft) O-NO 74 ° 0 min 0,000 mm 1,4 UV-I 206 W/m² 11,0 °C 11,9 °C 3,2 km/h (1 Bft)
21.08.2019 09:52 12,0 °C 94 % 1026,2 hPa 0,0 mm 0,6 km/h (0 Bft) O-NO 74 ° 0 min 0,000 mm 1,6 UV-I 236 W/m² 11,1 °C 12,0 °C 3,2 km/h (1 Bft)
21.08.2019 09:53 12,1 °C 94 % 1026,2 hPa 0,0 mm 4,9 km/h (1 Bft) O 86 ° 0 min 0,000 mm 1,5 UV-I 220 W/m² 11,2 °C 12,1 °C 9,7 km/h (2 Bft)
21.08.2019 09:54 12,1 °C 94 % 1026,2 hPa 0,0 mm 0,7 km/h (0 Bft) O 88 ° 0 min 0,000 mm 1,5 UV-I 207 W/m² 11,2 °C 12,1 °C 1,6 km/h (1 Bft)
21.08.2019 09:55 12,1 °C 94 % 1026,2 hPa 0,0 mm 4,4 km/h (1 Bft) O-NO 65 ° 0 min 0,000 mm 1,6 UV-I 236 W/m² 11,2 °C 12,1 °C 6,4 km/h (2 Bft)
21.08.2019 09:56 12,2 °C 94 % 1026,2 hPa 0,0 mm 6,1 km/h (2 Bft) NO 54 ° 0 min 0,000 mm 1,6 UV-I 244 W/m² 11,3 °C 12,2 °C 8,0 km/h (2 Bft)
21.08.2019 09:57 12,2 °C 93 % 1026,1 hPa 0,0 mm 3,3 km/h (1 Bft) O-NO 63 ° 0 min 0,000 mm 1,6 UV-I 244 W/m² 11,1 °C 12,2 °C 4,8 km/h (1 Bft)
21.08.2019 09:58 12,2 °C 93 % 1026,1 hPa 0,0 mm 4,4 km/h (1 Bft) O-SO 104 ° 0 min 0,000 mm 1,7 UV-I 229 W/m² 11,1 °C 12,2 °C 9,7 km/h (2 Bft)
21.08.2019 09:59 12,2 °C 93 % 1026,2 hPa 0,0 mm 5,4 km/h (1 Bft) O-SO 103 ° 0 min 0,000 mm 1,6 UV-I 223 W/m² 11,1 °C 12,2 °C 9,7 km/h (2 Bft)
21.08.2019 10:00 12,2 °C 94 % 1026,1 hPa 0,2 mm 6,3 km/h (2 Bft) NO 46 ° 0 min 0,076 mm 1,6 UV-I 229 W/m² 11,3 °C 12,2 °C 9,7 km/h (2 Bft)
21.08.2019 10:01 12,2 °C 93 % 1026,2 hPa 0,0 mm 5,2 km/h (1 Bft) N-NO 19 ° 0 min 0,000 mm 1,6 UV-I 204 W/m² 11,1 °C 12,2 °C 11,3 km/h (2 Bft)
21.08.2019 10:02 12,2 °C 93 % 1026,1 hPa 0,0 mm 5,7 km/h (1 Bft) NO 55 ° 0 min 0,000 mm 1,5 UV-I 192 W/m² 11,1 °C 12,2 °C 8,0 km/h (2 Bft)
21.08.2019 10:03 12,2 °C 93 % 1026,1 hPa 0,0 mm 4,8 km/h (1 Bft) O-NO 77 ° 0 min 0,000 mm 1,6 UV-I 225 W/m² 11,1 °C 12,2 °C 6,4 km/h (2 Bft)
21.08.2019 10:04 12,2 °C 93 % 1026,2 hPa 0,0 mm 4,5 km/h (1 Bft) O-NO 59 ° 0 min 0,000 mm 1,7 UV-I 218 W/m² 11,1 °C 12,2 °C 8,0 km/h (2 Bft)
21.08.2019 10:05 12,3 °C 93 % 1026,1 hPa 0,0 mm 6,8 km/h (2 Bft) O-NO 69 ° 0 min 0,000 mm 1,7 UV-I 220 W/m² 11,2 °C 12,3 °C 11,3 km/h (2 Bft)
21.08.2019 10:06 12,2 °C 93 % 1026,1 hPa 0,0 mm 8,0 km/h (2 Bft) O-NO 66 ° 0 min 0,000 mm 1,6 UV-I 209 W/m² 11,1 °C 12,2 °C 12,9 km/h (3 Bft)
21.08.2019 10:07 12,2 °C 93 % 1026,1 hPa 0,0 mm 4,3 km/h (1 Bft) O-NO 67 ° 0 min 0,000 mm 1,5 UV-I 199 W/m² 11,1 °C 12,2 °C 8,0 km/h (2 Bft)
21.08.2019 10:08 12,2 °C 93 % 1026,1 hPa 0,0 mm 7,2 km/h (2 Bft) NO 44 ° 0 min 0,000 mm 1,4 UV-I 183 W/m² 11,1 °C 12,2 °C 9,7 km/h (2 Bft)
21.08.2019 10:09 12,2 °C 93 % 1026,1 hPa 0,0 mm 6,3 km/h (2 Bft) NO 36 ° 0 min 0,000 mm 1,3 UV-I 172 W/m² 11,1 °C 12,2 °C 8,0 km/h (2 Bft)
21.08.2019 10:10 12,2 °C 93 % 1026,1 hPa 0,0 mm 4,1 km/h (1 Bft) NO 55 ° 0 min 0,000 mm 1,2 UV-I 167 W/m² 11,1 °C 12,2 °C 6,4 km/h (2 Bft)
21.08.2019 10:11 12,3 °C 93 % 1026,1 hPa 0,0 mm 3,7 km/h (1 Bft) O-NO 58 ° 0 min 0,000 mm 1,1 UV-I 162 W/m² 11,2 °C 12,3 °C 4,8 km/h (1 Bft)
21.08.2019 10:12 12,2 °C 93 % 1026,2 hPa 0,0 mm 6,5 km/h (2 Bft) O-NO 66 ° 0 min 0,000 mm 1,0 UV-I 151 W/m² 11,1 °C 12,2 °C 12,9 km/h (3 Bft)
21.08.2019 10:13 12,2 °C 93 % 1026,2 hPa 0,0 mm 7,3 km/h (2 Bft) NO 55 ° 0 min 0,000 mm 1,0 UV-I 148 W/m² 11,1 °C 12,2 °C 12,9 km/h (3 Bft)
21.08.2019 10:14 12,2 °C 93 % 1026,1 hPa 0,0 mm 5,9 km/h (2 Bft) NO 37 ° 0 min 0,000 mm 1,0 UV-I 146 W/m² 11,1 °C 12,2 °C 8,0 km/h (2 Bft)
21.08.2019 10:15 12,2 °C 93 % 1026,2 hPa 0,0 mm 3,2 km/h (1 Bft) NO 34 ° 0 min 0,000 mm 0,9 UV-I 139 W/m² 11,1 °C 12,2 °C 8,0 km/h (2 Bft)
21.08.2019 10:16 12,2 °C 93 % 1026,1 hPa 0,0 mm 3,1 km/h (1 Bft) NO 54 ° 0 min 0,000 mm 0,9 UV-I 137 W/m² 11,1 °C 12,2 °C 8,0 km/h (2 Bft)
21.08.2019 10:17 12,2 °C 93 % 1026,2 hPa 0,0 mm 5,0 km/h (1 Bft) O 82 ° 0 min 0,000 mm 0,9 UV-I 132 W/m² 11,1 °C 12,2 °C 12,9 km/h (3 Bft)
21.08.2019 10:18 12,2 °C 93 % 1026,2 hPa 0,0 mm 4,2 km/h (1 Bft) O 90 ° 0 min 0,000 mm 0,8 UV-I 123 W/m² 11,1 °C 12,2 °C 6,4 km/h (2 Bft)
21.08.2019 10:19 12,2 °C 93 % 1026,2 hPa 0,2 mm 7,2 km/h (2 Bft) O-NO 61 ° 0 min 0,000 mm 0,9 UV-I 132 W/m² 11,1 °C 12,2 °C 11,3 km/h (2 Bft)
21.08.2019 10:20 12,2 °C 93 % 1026,2 hPa 0,0 mm 5,6 km/h (1 Bft) NO 54 ° 0 min 0,000 mm 1,0 UV-I 139 W/m² 11,1 °C 12,2 °C 9,7 km/h (2 Bft)
21.08.2019 10:21 12,2 °C 93 % 1026,2 hPa 0,0 mm 5,2 km/h (1 Bft) O-NO 61 ° 0 min 0,000 mm 1,0 UV-I 141 W/m² 11,1 °C 12,2 °C 8,0 km/h (2 Bft)
21.08.2019 10:22 12,2 °C 93 % 1026,2 hPa 0,0 mm 4,4 km/h (1 Bft) O-NO 61 ° 0 min 0,000 mm 0,9 UV-I 139 W/m² 11,1 °C 12,2 °C 6,4 km/h (2 Bft)
21.08.2019 10:23 12,2 °C 93 % 1026,2 hPa 0,0 mm 3,9 km/h (1 Bft) NO 38 ° 0 min 0,000 mm 0,9 UV-I 130 W/m² 11,1 °C 12,2 °C 6,4 km/h (2 Bft)
21.08.2019 10:24 12,2 °C 93 % 1026,2 hPa 0,0 mm 5,9 km/h (2 Bft) NO 50 ° 0 min 0,000 mm 0,8 UV-I 116 W/m² 11,1 °C 12,2 °C 8,0 km/h (2 Bft)
21.08.2019 10:25 12,2 °C 93 % 1026,2 hPa 0,0 mm 3,6 km/h (1 Bft) O-NO 58 ° 0 min 0,000 mm 0,7 UV-I 104 W/m² 11,1 °C 12,2 °C 6,4 km/h (2 Bft)
21.08.2019 10:26 12,2 °C 93 % 1026,2 hPa 0,0 mm 4,9 km/h (1 Bft) NO 54 ° 0 min 0,000 mm 0,7 UV-I 98 W/m² 11,1 °C 12,2 °C 9,7 km/h (2 Bft)
21.08.2019 10:27 12,2 °C 93 % 1026,2 hPa 0,0 mm 9,8 km/h (2 Bft) O-NO 59 ° 0 min 0,000 mm 0,8 UV-I 137 W/m² 11,1 °C 12,2 °C 14,5 km/h (3 Bft)
21.08.2019 10:28 12,2 °C 93 % 1026,2 hPa 0,0 mm 5,2 km/h (1 Bft) NO 36 ° 0 min 0,000 mm 1,1 UV-I 155 W/m² 11,1 °C 12,2 °C 11,3 km/h (2 Bft)
21.08.2019 10:29 12,2 °C 93 % 1026,2 hPa 0,0 mm 5,8 km/h (2 Bft) N-NO 32 ° 0 min 0,000 mm 1,1 UV-I 155 W/m² 11,1 °C 12,2 °C 9,7 km/h (2 Bft)
21.08.2019 10:30 12,1 °C 93 % 1026,2 hPa 0,0 mm 6,6 km/h (2 Bft) O 82 ° 0 min 0,000 mm 1,0 UV-I 146 W/m² 11,0 °C 12,1 °C 12,9 km/h (3 Bft)
21.08.2019 10:31 12,1 °C 93 % 1026,3 hPa 0,0 mm 3,8 km/h (1 Bft) NO 49 ° 0 min 0,000 mm 1,0 UV-I 144 W/m² 11,0 °C 12,1 °C 6,4 km/h (2 Bft)
21.08.2019 10:32 12,1 °C 93 % 1026,4 hPa 0,0 mm 8,8 km/h (2 Bft) N-NO 16 ° 0 min 0,000 mm 1,1 UV-I 155 W/m² 11,0 °C 12,1 °C 12,9 km/h (3 Bft)
21.08.2019 10:33 12,1 °C 93 % 1026,3 hPa 0,0 mm 4,9 km/h (1 Bft) NO 51 ° 0 min 0,000 mm 1,1 UV-I 169 W/m² 11,0 °C 12,1 °C 11,3 km/h (2 Bft)
21.08.2019 10:34 12,1 °C 93 % 1026,3 hPa 0,0 mm 7,9 km/h (2 Bft) O 92 ° 0 min 0,000 mm 1,2 UV-I 171 W/m² 11,0 °C 12,1 °C 12,9 km/h (3 Bft)
21.08.2019 10:35 12,2 °C 93 % 1026,3 hPa 0,0 mm 6,4 km/h (2 Bft) NO 42 ° 0 min 0,000 mm 1,2 UV-I 171 W/m² 11,1 °C 12,2 °C 11,3 km/h (2 Bft)
21.08.2019 10:36 12,2 °C 93 % 1026,3 hPa 0,0 mm 8,0 km/h (2 Bft) NO 36 ° 0 min 0,000 mm 1,3 UV-I 179 W/m² 11,1 °C 12,2 °C 12,9 km/h (3 Bft)
21.08.2019 10:37 12,2 °C 93 % 1026,3 hPa 0,0 mm 5,9 km/h (2 Bft) O-NO 68 ° 0 min 0,000 mm 1,5 UV-I 206 W/m² 11,1 °C 12,2 °C 8,0 km/h (2 Bft)
21.08.2019 10:38 12,3 °C 93 % 1026,3 hPa 0,0 mm 5,0 km/h (1 Bft) O 96 ° 0 min 0,000 mm 1,6 UV-I 223 W/m² 11,2 °C 12,3 °C 8,0 km/h (2 Bft)
21.08.2019 10:39 12,3 °C 93 % 1026,3 hPa 0,0 mm 4,4 km/h (1 Bft) N-NO 12 ° 0 min 0,000 mm 1,6 UV-I 234 W/m² 11,2 °C 12,3 °C 8,0 km/h (2 Bft)
21.08.2019 10:40 12,3 °C 93 % 1026,3 hPa 0,2 mm 2,9 km/h (1 Bft) N-NO 28 ° 0 min 0,000 mm 1,5 UV-I 229 W/m² 11,2 °C 12,3 °C 6,4 km/h (2 Bft)
21.08.2019 10:41 12,4 °C 93 % 1026,2 hPa 0,0 mm 4,5 km/h (1 Bft) O-NO 69 ° 0 min 0,000 mm 1,4 UV-I 213 W/m² 11,3 °C 12,4 °C 6,4 km/h (2 Bft)
21.08.2019 10:42 12,4 °C 93 % 1026,2 hPa 0,0 mm 5,5 km/h (1 Bft) NO 53 ° 0 min 0,000 mm 1,5 UV-I 214 W/m² 11,3 °C 12,4 °C 11,3 km/h (2 Bft)
21.08.2019 10:43 12,4 °C 93 % 1026,3 hPa 0,0 mm 3,0 km/h (1 Bft) NO 48 ° 0 min 0,000 mm 1,5 UV-I 218 W/m² 11,3 °C 12,4 °C 9,7 km/h (2 Bft)
21.08.2019 10:44 12,4 °C 93 % 1026,2 hPa 0,0 mm 7,9 km/h (2 Bft) O 82 ° 0 min 0,000 mm 1,6 UV-I 236 W/m² 11,3 °C 12,4 °C 11,3 km/h (2 Bft)
21.08.2019 10:45 12,4 °C 93 % 1026,2 hPa 0,0 mm 6,6 km/h (2 Bft) NO 52 ° 0 min 0,000 mm 1,8 UV-I 255 W/m² 11,3 °C 12,4 °C 9,7 km/h (2 Bft)
21.08.2019 10:46 12,4 °C 93 % 1026,2 hPa 0,0 mm 5,0 km/h (1 Bft) N 355 ° 0 min 0,000 mm 2,1 UV-I 267 W/m² 11,3 °C 12,4 °C 8,0 km/h (2 Bft)
21.08.2019 10:47 12,4 °C 93 % 1026,2 hPa 0,0 mm 8,8 km/h (2 Bft) NO 54 ° 0 min 0,000 mm 2,1 UV-I 283 W/m² 11,3 °C 12,4 °C 9,7 km/h (2 Bft)
21.08.2019 10:48 12,4 °C 93 % 1026,2 hPa 0,0 mm 6,6 km/h (2 Bft) O-NO 69 ° 0 min 0,000 mm 2,3 UV-I 302 W/m² 11,3 °C 12,4 °C 11,3 km/h (2 Bft)
21.08.2019 10:49 12,4 °C 93 % 1026,2 hPa 0,0 mm 4,5 km/h (1 Bft) O-NO 72 ° 0 min 0,000 mm 2,5 UV-I 334 W/m² 11,3 °C 12,4 °C 8,0 km/h (2 Bft)
21.08.2019 10:50 12,4 °C 93 % 1026,2 hPa 0,0 mm 4,2 km/h (1 Bft) O 79 ° 0 min 0,000 mm 2,6 UV-I 362 W/m² 11,3 °C 12,4 °C 6,4 km/h (2 Bft)
21.08.2019 10:51 12,4 °C 93 % 1026,3 hPa 0,0 mm 5,4 km/h (1 Bft) N-NO 31 ° 0 min 0,000 mm 2,7 UV-I 364 W/m² 11,3 °C 12,4 °C 6,4 km/h (2 Bft)
21.08.2019 10:52 12,5 °C 93 % 1026,2 hPa 0,0 mm 5,7 km/h (1 Bft) NO 49 ° 0 min 0,000 mm 2,8 UV-I 374 W/m² 11,4 °C 12,5 °C 9,7 km/h (2 Bft)
21.08.2019 10:53 12,6 °C 93 % 1026,2 hPa 0,0 mm 6,3 km/h (2 Bft) NO 51 ° 0 min 0,000 mm 2,9 UV-I 394 W/m² 11,5 °C 12,6 °C 11,3 km/h (2 Bft)
21.08.2019 10:54 12,7 °C 93 % 1026,2 hPa 0,0 mm 7,0 km/h (2 Bft) NO 38 ° 0 min 0,000 mm 3,0 UV-I 388 W/m² 11,6 °C 12,7 °C 9,7 km/h (2 Bft)
21.08.2019 10:55 12,8 °C 93 % 1026,2 hPa 0,0 mm 2,9 km/h (1 Bft) NO 54 ° 0 min 0,000 mm 3,1 UV-I 410 W/m² 11,7 °C 12,8 °C 6,4 km/h (2 Bft)
21.08.2019 10:56 12,8 °C 93 % 1026,2 hPa 0,0 mm 4,9 km/h (1 Bft) O-NO 78 ° 0 min 0,000 mm 3,1 UV-I 415 W/m² 11,7 °C 12,8 °C 8,0 km/h (2 Bft)
21.08.2019 10:57 12,9 °C 93 % 1026,2 hPa 0,0 mm 9,4 km/h (2 Bft) N-NO 16 ° 0 min 0,000 mm 2,8 UV-I 364 W/m² 11,8 °C 12,9 °C 12,9 km/h (3 Bft)
21.08.2019 10:58 12,8 °C 93 % 1026,2 hPa 0,0 mm 9,3 km/h (2 Bft) NO 37 ° 0 min 0,000 mm 2,5 UV-I 316 W/m² 11,7 °C 12,8 °C 11,3 km/h (2 Bft)
21.08.2019 10:59 12,8 °C 92 % 1026,2 hPa 0,0 mm 6,3 km/h (2 Bft) N-NO 24 ° 0 min 0,000 mm 2,4 UV-I 304 W/m² 11,5 °C 12,8 °C 12,9 km/h (3 Bft)
21.08.2019 11:00 12,8 °C 92 % 1026,2 hPa 0,0 mm 4,4 km/h (1 Bft) N-NO 19 ° 0 min 0,102 mm 2,5 UV-I 311 W/m² 11,5 °C 12,8 °C 6,4 km/h (2 Bft)
21.08.2019 11:01 12,8 °C 93 % 1026,2 hPa 0,2 mm 8,2 km/h (2 Bft) NO 49 ° 0 min 0,000 mm 2,7 UV-I 338 W/m² 11,7 °C 12,8 °C 11,3 km/h (2 Bft)
21.08.2019 11:02 12,8 °C 92 % 1026,2 hPa 0,0 mm 9,2 km/h (2 Bft) N-NO 22 ° 0 min 0,000 mm 2,8 UV-I 350 W/m² 11,5 °C 12,8 °C 14,5 km/h (3 Bft)
21.08.2019 11:03 12,9 °C 92 % 1026,1 hPa 0,0 mm 6,5 km/h (2 Bft) NO 51 ° 0 min 0,000 mm 2,5 UV-I 325 W/m² 11,6 °C 12,9 °C 12,9 km/h (3 Bft)
21.08.2019 11:04 12,9 °C 92 % 1026,1 hPa 0,0 mm 5,0 km/h (1 Bft) NO 49 ° 0 min 0,000 mm 2,4 UV-I 323 W/m² 11,6 °C 12,9 °C 9,7 km/h (2 Bft)
21.08.2019 11:05 12,9 °C 91 % 1026,2 hPa 0,0 mm 4,4 km/h (1 Bft) O 92 ° 0 min 0,000 mm 2,4 UV-I 334 W/m² 11,5 °C 12,9 °C 9,7 km/h (2 Bft)
21.08.2019 11:06 12,9 °C 91 % 1026,1 hPa 0,0 mm 2,7 km/h (1 Bft) O 93 ° 0 min 0,000 mm 2,3 UV-I 313 W/m² 11,5 °C 12,9 °C 6,4 km/h (2 Bft)
21.08.2019 11:07 12,9 °C 91 % 1026,1 hPa 0,0 mm 3,9 km/h (1 Bft) N-NO 30 ° 0 min 0,000 mm 2,3 UV-I 304 W/m² 11,5 °C 12,9 °C 6,4 km/h (2 Bft)
21.08.2019 11:08 12,9 °C 92 % 1026,1 hPa 0,0 mm 5,4 km/h (1 Bft) O-NO 58 ° 0 min 0,000 mm 2,4 UV-I 315 W/m² 11,6 °C 12,9 °C 9,7 km/h (2 Bft)
21.08.2019 11:09 12,9 °C 91 % 1026,2 hPa 0,0 mm 4,8 km/h (1 Bft) NO 52 ° 0 min 0,000 mm 2,5 UV-I 315 W/m² 11,5 °C 12,9 °C 11,3 km/h (2 Bft)
21.08.2019 11:10 12,9 °C 91 % 1026,2 hPa 0,0 mm 2,8 km/h (1 Bft) NO 54 ° 0 min 0,000 mm 2,5 UV-I 323 W/m² 11,5 °C 12,9 °C 6,4 km/h (2 Bft)
21.08.2019 11:11 13,1 °C 92 % 1026,2 hPa 0,0 mm 4,2 km/h (1 Bft) O 91 ° 0 min 0,000 mm 2,7 UV-I 341 W/m² 11,8 °C 13,1 °C 8,0 km/h (2 Bft)
21.08.2019 11:12 13,1 °C 91 % 1026,2 hPa 0,0 mm 3,2 km/h (1 Bft) NO 41 ° 0 min 0,000 mm 2,7 UV-I 350 W/m² 11,7 °C 13,1 °C 6,4 km/h (2 Bft)
21.08.2019 11:13 13,1 °C 91 % 1026,2 hPa 0,0 mm 1,1 km/h (1 Bft) O-NO 65 ° 0 min 0,000 mm 2,7 UV-I 345 W/m² 11,7 °C 13,1 °C 3,2 km/h (1 Bft)
21.08.2019 11:14 13,1 °C 91 % 1026,2 hPa 0,0 mm 2,7 km/h (1 Bft) NO 34 ° 0 min 0,000 mm 2,5 UV-I 309 W/m² 11,7 °C 13,1 °C 9,7 km/h (2 Bft)
21.08.2019 11:15 13,2 °C 91 % 1026,2 hPa 0,0 mm 7,1 km/h (2 Bft) NO 39 ° 0 min 0,000 mm 2,0 UV-I 262 W/m² 11,8 °C 13,2 °C 12,9 km/h (3 Bft)
21.08.2019 11:16 13,1 °C 91 % 1026,2 hPa 0,0 mm 7,4 km/h (2 Bft) NO 44 ° 0 min 0,000 mm 1,6 UV-I 214 W/m² 11,7 °C 13,1 °C 9,7 km/h (2 Bft)
21.08.2019 11:17 13,2 °C 91 % 1026,2 hPa 0,0 mm 10,2 km/h (2 Bft) NO 49 ° 0 min 0,000 mm 1,5 UV-I 193 W/m² 11,8 °C 13,2 °C 17,7 km/h (3 Bft)
21.08.2019 11:18 13,1 °C 91 % 1026,2 hPa 0,0 mm 7,8 km/h (2 Bft) O-NO 63 ° 0 min 0,000 mm 1,5 UV-I 185 W/m² 11,7 °C 13,1 °C 14,5 km/h (3 Bft)
21.08.2019 11:19 13,1 °C 91 % 1026,2 hPa 0,0 mm 7,0 km/h (2 Bft) NO 50 ° 0 min 0,000 mm 1,3 UV-I 169 W/m² 11,7 °C 13,1 °C 11,3 km/h (2 Bft)
21.08.2019 11:20 13,0 °C 91 % 1026,2 hPa 0,2 mm 7,8 km/h (2 Bft) NO 34 ° 0 min 0,000 mm 1,3 UV-I 156 W/m² 11,6 °C 13,0 °C 14,5 km/h (3 Bft)
21.08.2019 11:21 12,9 °C 91 % 1026,2 hPa 0,0 mm 7,9 km/h (2 Bft) NO 35 ° 0 min 0,000 mm 1,2 UV-I 153 W/m² 11,5 °C 12,9 °C 14,5 km/h (3 Bft)
21.08.2019 11:22 12,9 °C 91 % 1026,2 hPa 0,0 mm 2,2 km/h (1 Bft) O-NO 61 ° 0 min 0,000 mm 1,1 UV-I 146 W/m² 11,5 °C 12,9 °C 6,4 km/h (2 Bft)
21.08.2019 11:23 12,8 °C 91 % 1026,2 hPa 0,0 mm 7,5 km/h (2 Bft) NO 41 ° 0 min 0,000 mm 1,2 UV-I 151 W/m² 11,4 °C 12,8 °C 11,3 km/h (2 Bft)
21.08.2019 11:24 12,8 °C 91 % 1026,2 hPa 0,0 mm 7,4 km/h (2 Bft) NO 48 ° 0 min 0,000 mm 1,2 UV-I 160 W/m² 11,4 °C 12,8 °C 12,9 km/h (3 Bft)
21.08.2019 11:25 12,8 °C 91 % 1026,2 hPa 0,0 mm 10,3 km/h (2 Bft) O-NO 75 ° 0 min 0,000 mm 1,2 UV-I 144 W/m² 11,4 °C 12,8 °C 17,7 km/h (3 Bft)
21.08.2019 11:26 12,8 °C 91 % 1026,2 hPa 0,0 mm 9,7 km/h (2 Bft) NO 36 ° 0 min 0,000 mm 1,2 UV-I 146 W/m² 11,4 °C 12,8 °C 12,9 km/h (3 Bft)
21.08.2019 11:27 12,8 °C 91 % 1026,2 hPa 0,0 mm 6,5 km/h (2 Bft) NO 46 ° 0 min 0,000 mm 1,4 UV-I 178 W/m² 11,4 °C 12,8 °C 8,0 km/h (2 Bft)
21.08.2019 11:28 12,8 °C 91 % 1026,2 hPa 0,0 mm 4,4 km/h (1 Bft) N-NO 31 ° 0 min 0,000 mm 1,6 UV-I 209 W/m² 11,4 °C 12,8 °C 9,7 km/h (2 Bft)
21.08.2019 11:29 12,8 °C 91 % 1026,2 hPa 0,0 mm 10,7 km/h (2 Bft) O-NO 69 ° 0 min 0,000 mm 1,5 UV-I 204 W/m² 11,4 °C 12,8 °C 16,1 km/h (3 Bft)
21.08.2019 11:30 12,8 °C 92 % 1026,2 hPa 0,0 mm 7,4 km/h (2 Bft) NO 49 ° 0 min 0,000 mm 1,6 UV-I 207 W/m² 11,5 °C 12,8 °C 11,3 km/h (2 Bft)
21.08.2019 11:31 12,8 °C 91 % 1026,1 hPa 0,0 mm 4,9 km/h (1 Bft) NO 35 ° 0 min 0,000 mm 1,7 UV-I 209 W/m² 11,4 °C 12,8 °C 6,4 km/h (2 Bft)
21.08.2019 11:32 12,8 °C 92 % 1026,1 hPa 0,0 mm 4,6 km/h (1 Bft) NO 36 ° 0 min 0,000 mm 1,5 UV-I 188 W/m² 11,5 °C 12,8 °C 6,4 km/h (2 Bft)
21.08.2019 11:33 12,8 °C 92 % 1026,1 hPa 0,0 mm 3,9 km/h (1 Bft) O-NO 59 ° 0 min 0,000 mm 1,3 UV-I 165 W/m² 11,5 °C 12,8 °C 4,8 km/h (1 Bft)
21.08.2019 11:34 12,8 °C 92 % 1026,1 hPa 0,0 mm 2,8 km/h (1 Bft) O-NO 58 ° 0 min 0,000 mm 1,1 UV-I 144 W/m² 11,5 °C 12,8 °C 4,8 km/h (1 Bft)
21.08.2019 11:35 12,9 °C 92 % 1026,1 hPa 0,0 mm 3,0 km/h (1 Bft) NO 56 ° 0 min 0,000 mm 1,1 UV-I 137 W/m² 11,6 °C 12,9 °C 4,8 km/h (1 Bft)
21.08.2019 11:36 12,9 °C 92 % 1026,1 hPa 0,0 mm 7,2 km/h (2 Bft) O-NO 74 ° 0 min 0,000 mm 1,0 UV-I 132 W/m² 11,6 °C 12,9 °C 17,7 km/h (3 Bft)
21.08.2019 11:37 12,9 °C 92 % 1026,1 hPa 0,0 mm 9,7 km/h (2 Bft) O-NO 70 ° 0 min 0,000 mm 1,0 UV-I 144 W/m² 11,6 °C 12,9 °C 14,5 km/h (3 Bft)
21.08.2019 11:38 12,8 °C 92 % 1026,1 hPa 0,0 mm 7,0 km/h (2 Bft) O-NO 65 ° 0 min 0,000 mm 1,2 UV-I 156 W/m² 11,5 °C 12,8 °C 14,5 km/h (3 Bft)
21.08.2019 11:39 12,8 °C 92 % 1026,1 hPa 0,0 mm 8,6 km/h (2 Bft) O-NO 73 ° 0 min 0,000 mm 1,3 UV-I 165 W/m² 11,5 °C 12,8 °C 14,5 km/h (3 Bft)
21.08.2019 11:40 12,8 °C 91 % 1026,1 hPa 0,0 mm 6,5 km/h (2 Bft) O-NO 64 ° 0 min 0,000 mm 1,3 UV-I 171 W/m² 11,4 °C 12,8 °C 9,7 km/h (2 Bft)
21.08.2019 11:41 12,8 °C 92 % 1026,1 hPa 0,0 mm 7,3 km/h (2 Bft) O-SO 104 ° 0 min 0,000 mm 1,5 UV-I 181 W/m² 11,5 °C 12,8 °C 12,9 km/h (3 Bft)
21.08.2019 11:42 12,8 °C 91 % 1026,1 hPa 0,0 mm 5,9 km/h (2 Bft) O 91 ° 0 min 0,000 mm 1,5 UV-I 186 W/m² 11,4 °C 12,8 °C 12,9 km/h (3 Bft)
21.08.2019 11:43 12,8 °C 91 % 1026,1 hPa 0,2 mm 10,3 km/h (2 Bft) O-NO 64 ° 0 min 0,000 mm 1,5 UV-I 218 W/m² 11,4 °C 12,8 °C 17,7 km/h (3 Bft)
21.08.2019 11:44 12,8 °C 91 % 1026,0 hPa 0,0 mm 7,2 km/h (2 Bft) NO 46 ° 0 min 0,000 mm 2,1 UV-I 262 W/m² 11,4 °C 12,8 °C 9,7 km/h (2 Bft)
21.08.2019 11:45 12,7 °C 92 % 1026,0 hPa 0,0 mm 7,2 km/h (2 Bft) O-NO 70 ° 0 min 0,000 mm 2,2 UV-I 276 W/m² 11,4 °C 12,7 °C 11,3 km/h (2 Bft)
21.08.2019 11:46 12,8 °C 92 % 1026,0 hPa 0,0 mm 5,2 km/h (1 Bft) NO 40 ° 0 min 0,000 mm 2,5 UV-I 309 W/m² 11,5 °C 12,8 °C 11,3 km/h (2 Bft)
21.08.2019 11:47 12,8 °C 92 % 1026,0 hPa 0,0 mm 4,7 km/h (1 Bft) N-NO 33 ° 0 min 0,000 mm 2,6 UV-I 323 W/m² 11,5 °C 12,8 °C 8,0 km/h (2 Bft)
21.08.2019 11:48 12,9 °C 92 % 1026,0 hPa 0,0 mm 5,2 km/h (1 Bft) O-NO 77 ° 0 min 0,000 mm 2,5 UV-I 313 W/m² 11,6 °C 12,9 °C 6,4 km/h (2 Bft)
21.08.2019 11:49 13,0 °C 92 % 1026,0 hPa 0,0 mm 3,0 km/h (1 Bft) NO 53 ° 0 min 0,000 mm 2,3 UV-I 265 W/m² 11,7 °C 13,0 °C 6,4 km/h (2 Bft)
21.08.2019 11:50 13,1 °C 92 % 1025,9 hPa 0,0 mm 5,6 km/h (1 Bft) O-NO 59 ° 0 min 0,000 mm 2,2 UV-I 260 W/m² 11,8 °C 13,1 °C 11,3 km/h (2 Bft)
21.08.2019 11:51 13,1 °C 92 % 1026,0 hPa 0,0 mm 5,4 km/h (1 Bft) O-NO 64 ° 0 min 0,000 mm 2,2 UV-I 274 W/m² 11,8 °C 13,1 °C 9,7 km/h (2 Bft)
21.08.2019 11:52 13,1 °C 92 % 1026,0 hPa 0,0 mm 3,7 km/h (1 Bft) O-NO 76 ° 0 min 0,000 mm 2,4 UV-I 302 W/m² 11,8 °C 13,1 °C 6,4 km/h (2 Bft)
21.08.2019 11:53 13,2 °C 92 % 1025,9 hPa 0,0 mm 3,4 km/h (1 Bft) O-NO 58 ° 0 min 0,000 mm 2,5 UV-I 320 W/m² 11,9 °C 13,2 °C 6,4 km/h (2 Bft)
21.08.2019 11:54 13,2 °C 92 % 1025,9 hPa 0,0 mm 5,6 km/h (1 Bft) NO 55 ° 0 min 0,000 mm 2,4 UV-I 315 W/m² 11,9 °C 13,2 °C 8,0 km/h (2 Bft)
21.08.2019 11:55 13,2 °C 92 % 1025,9 hPa 0,0 mm 4,8 km/h (1 Bft) O 101 ° 0 min 0,000 mm 2,4 UV-I 302 W/m² 11,9 °C 13,2 °C 11,3 km/h (2 Bft)
21.08.2019 11:56 13,3 °C 92 % 1025,9 hPa 0,0 mm 6,7 km/h (2 Bft) O-NO 64 ° 0 min 0,000 mm 2,3 UV-I 299 W/m² 12,0 °C 13,3 °C 12,9 km/h (3 Bft)
21.08.2019 11:57 13,3 °C 92 % 1025,9 hPa 0,0 mm 9,0 km/h (2 Bft) O 84 ° 0 min 0,000 mm 2,2 UV-I 288 W/m² 12,0 °C 13,3 °C 16,1 km/h (3 Bft)
21.08.2019 11:58 13,3 °C 92 % 1025,8 hPa 0,0 mm 7,8 km/h (2 Bft) O-SO 118 ° 0 min 0,000 mm 2,2 UV-I 278 W/m² 12,0 °C 13,3 °C 14,5 km/h (3 Bft)
21.08.2019 11:59 13,3 °C 91 % 1025,8 hPa 0,0 mm 5,7 km/h (1 Bft) O-NO 61 ° 0 min 0,000 mm 2,1 UV-I 260 W/m² 11,9 °C 13,3 °C 9,7 km/h (2 Bft)
21.08.2019 12:00 13,3 °C 91 % 1025,8 hPa 0,0 mm 8,0 km/h (2 Bft) O 88 ° 0 min 0,000 mm 2,0 UV-I 243 W/m² 11,9 °C 13,3 °C 12,9 km/h (3 Bft)
21.08.2019 12:01 13,2 °C 91 % 1025,8 hPa 0,0 mm 4,8 km/h (1 Bft) O 79 ° 0 min 0,127 mm 2,1 UV-I 290 W/m² 11,8 °C 13,2 °C 8,0 km/h (2 Bft)
21.08.2019 12:02 13,2 °C 91 % 1025,8 hPa 0,0 mm 7,0 km/h (2 Bft) O-NO 61 ° 0 min 0,000 mm 2,4 UV-I 301 W/m² 11,8 °C 13,2 °C 11,3 km/h (2 Bft)
21.08.2019 12:03 13,3 °C 91 % 1025,8 hPa 0,2 mm 5,6 km/h (1 Bft) O-NO 64 ° 0 min 0,000 mm 2,2 UV-I 281 W/m² 11,9 °C 13,3 °C 6,4 km/h (2 Bft)
21.08.2019 12:04 13,3 °C 91 % 1025,8 hPa 0,0 mm 6,3 km/h (2 Bft) O-NO 63 ° 0 min 0,000 mm 2,0 UV-I 257 W/m² 11,9 °C 13,3 °C 8,0 km/h (2 Bft)
21.08.2019 12:05 13,3 °C 91 % 1025,8 hPa 0,0 mm 6,2 km/h (2 Bft) O-NO 65 ° 0 min 0,000 mm 1,9 UV-I 239 W/m² 11,9 °C 13,3 °C 9,7 km/h (2 Bft)
21.08.2019 12:06 13,4 °C 91 % 1025,8 hPa 0,0 mm 8,4 km/h (2 Bft) O-SO 111 ° 0 min 0,000 mm 1,8 UV-I 232 W/m² 12,0 °C 13,4 °C 14,5 km/h (3 Bft)
21.08.2019 12:07 13,4 °C 91 % 1025,8 hPa 0,0 mm 4,8 km/h (1 Bft) NO 44 ° 0 min 0,000 mm 1,8 UV-I 220 W/m² 12,0 °C 13,4 °C 8,0 km/h (2 Bft)
21.08.2019 12:08 13,4 °C 91 % 1025,8 hPa 0,0 mm 7,4 km/h (2 Bft) O-NO 62 ° 0 min 0,000 mm 1,7 UV-I 216 W/m² 12,0 °C 13,4 °C 11,3 km/h (2 Bft)
21.08.2019 12:09 13,3 °C 91 % 1025,8 hPa 0,0 mm 6,8 km/h (2 Bft) O-NO 67 ° 0 min 0,000 mm 1,6 UV-I 209 W/m² 11,9 °C 13,3 °C 9,7 km/h (2 Bft)
21.08.2019 12:10 13,3 °C 91 % 1025,8 hPa 0,0 mm 4,9 km/h (1 Bft) NO 55 ° 0 min 0,000 mm 1,6 UV-I 202 W/m² 11,9 °C 13,3 °C 8,0 km/h (2 Bft)
21.08.2019 12:11 13,3 °C 91 % 1025,8 hPa 0,0 mm 2,6 km/h (1 Bft) O 90 ° 0 min 0,000 mm 1,5 UV-I 197 W/m² 11,9 °C 13,3 °C 4,8 km/h (1 Bft)
21.08.2019 12:12 13,3 °C 91 % 1025,8 hPa 0,0 mm 0,3 km/h (0 Bft) O 88 ° 0 min 0,000 mm 1,4 UV-I 188 W/m² 11,9 °C 13,3 °C 3,2 km/h (1 Bft)
21.08.2019 12:13 13,3 °C 91 % 1025,8 hPa 0,0 mm 2,2 km/h (1 Bft) O-NO 78 ° 0 min 0,000 mm 1,4 UV-I 181 W/m² 11,9 °C 13,3 °C 6,4 km/h (2 Bft)
21.08.2019 12:14 13,3 °C 91 % 1025,8 hPa 0,0 mm 5,6 km/h (1 Bft) O-SO 118 ° 0 min 0,000 mm 1,3 UV-I 171 W/m² 11,9 °C 13,3 °C 8,0 km/h (2 Bft)
21.08.2019 12:15 13,3 °C 91 % 1025,8 hPa 0,0 mm 3,0 km/h (1 Bft) O-SO 119 ° 0 min 0,000 mm 1,2 UV-I 160 W/m² 11,9 °C 13,3 °C 6,4 km/h (2 Bft)
21.08.2019 12:16 13,3 °C 91 % 1025,8 hPa 0,0 mm 6,3 km/h (2 Bft) NO 37 ° 0 min 0,000 mm 1,2 UV-I 153 W/m² 11,9 °C 13,3 °C 8,0 km/h (2 Bft)
21.08.2019 12:17 13,3 °C 91 % 1025,8 hPa 0,0 mm 7,6 km/h (2 Bft) O-NO 71 ° 0 min 0,000 mm 1,1 UV-I 151 W/m² 11,9 °C 13,3 °C 12,9 km/h (3 Bft)
21.08.2019 12:18 13,3 °C 91 % 1025,8 hPa 0,0 mm 5,2 km/h (1 Bft) O 81 ° 0 min 0,000 mm 1,1 UV-I 144 W/m² 11,9 °C 13,3 °C 8,0 km/h (2 Bft)
21.08.2019 12:19 13,3 °C 91 % 1025,8 hPa 0,0 mm 4,0 km/h (1 Bft) O-SO 119 ° 0 min 0,000 mm 1,2 UV-I 149 W/m² 11,9 °C 13,3 °C 6,4 km/h (2 Bft)
21.08.2019 12:20 13,2 °C 91 % 1025,8 hPa 0,0 mm 4,8 km/h (1 Bft) NO 40 ° 0 min 0,000 mm 1,3 UV-I 162 W/m² 11,8 °C 13,2 °C 6,4 km/h (2 Bft)
21.08.2019 12:21 13,2 °C 91 % 1025,8 hPa 0,0 mm 5,1 km/h (1 Bft) O 91 ° 0 min 0,000 mm 1,4 UV-I 167 W/m² 11,8 °C 13,2 °C 9,7 km/h (2 Bft)
21.08.2019 12:22 13,2 °C 91 % 1025,8 hPa 0,0 mm 7,1 km/h (2 Bft) O-NO 59 ° 0 min 0,000 mm 1,3 UV-I 160 W/m² 11,8 °C 13,2 °C 9,7 km/h (2 Bft)
21.08.2019 12:23 13,2 °C 91 % 1025,8 hPa 0,0 mm 5,7 km/h (1 Bft) O-NO 57 ° 0 min 0,000 mm 1,2 UV-I 144 W/m² 11,8 °C 13,2 °C 9,7 km/h (2 Bft)
21.08.2019 12:24 13,2 °C 91 % 1025,8 hPa 0,0 mm 5,2 km/h (1 Bft) O-NO 60 ° 0 min 0,000 mm 1,0 UV-I 116 W/m² 11,8 °C 13,2 °C 8,0 km/h (2 Bft)
21.08.2019 12:25 13,2 °C 91 % 1025,8 hPa 0,0 mm 3,6 km/h (1 Bft) NO 47 ° 0 min 0,000 mm 1,0 UV-I 121 W/m² 11,8 °C 13,2 °C 6,4 km/h (2 Bft)
21.08.2019 12:26 13,2 °C 91 % 1025,7 hPa 0,0 mm 3,2 km/h (1 Bft) NO 55 ° 0 min 0,000 mm 1,0 UV-I 125 W/m² 11,8 °C 13,2 °C 8,0 km/h (2 Bft)
21.08.2019 12:27 13,2 °C 91 % 1025,8 hPa 0,0 mm 3,0 km/h (1 Bft) O-NO 78 ° 0 min 0,000 mm 1,0 UV-I 125 W/m² 11,8 °C 13,2 °C 6,4 km/h (2 Bft)
21.08.2019 12:28 13,1 °C 90 % 1025,8 hPa 0,2 mm 6,0 km/h (2 Bft) O-NO 69 ° 0 min 0,000 mm 0,9 UV-I 116 W/m² 11,5 °C 13,1 °C 8,0 km/h (2 Bft)
21.08.2019 12:29 13,1 °C 90 % 1025,8 hPa 0,0 mm 5,7 km/h (1 Bft) NO 53 ° 0 min 0,000 mm 0,9 UV-I 111 W/m² 11,5 °C 13,1 °C 8,0 km/h (2 Bft)
21.08.2019 12:30 13,1 °C 91 % 1025,8 hPa 0,0 mm 4,0 km/h (1 Bft) NO 51 ° 0 min 0,000 mm 0,9 UV-I 123 W/m² 11,7 °C 13,1 °C 6,4 km/h (2 Bft)
21.08.2019 12:31 13,1 °C 91 % 1025,8 hPa 0,0 mm 1,3 km/h (1 Bft) NO 51 ° 0 min 0,000 mm 1,1 UV-I 137 W/m² 11,7 °C 13,1 °C 3,2 km/h (1 Bft)
21.08.2019 12:32 13,2 °C 91 % 1025,8 hPa 0,0 mm 2,3 km/h (1 Bft) O-NO 65 ° 0 min 0,000 mm 1,1 UV-I 141 W/m² 11,8 °C 13,2 °C 4,8 km/h (1 Bft)
21.08.2019 12:33 13,2 °C 91 % 1025,8 hPa 0,0 mm 0,5 km/h (0 Bft) O-NO 65 ° 0 min 0,000 mm 1,0 UV-I 134 W/m² 11,8 °C 13,2 °C 3,2 km/h (1 Bft)
21.08.2019 12:34 13,2 °C 91 % 1025,9 hPa 0,0 mm 4,5 km/h (1 Bft) O-NO 64 ° 0 min 0,000 mm 1,0 UV-I 127 W/m² 11,8 °C 13,2 °C 8,0 km/h (2 Bft)
21.08.2019 12:35 13,2 °C 91 % 1025,8 hPa 0,0 mm 3,6 km/h (1 Bft) O-NO 60 ° 0 min 0,000 mm 0,9 UV-I 118 W/m² 11,8 °C 13,2 °C 8,0 km/h (2 Bft)
21.08.2019 12:36 13,3 °C 91 % 1025,8 hPa 0,0 mm 7,2 km/h (2 Bft) O-NO 62 ° 0 min 0,000 mm 0,9 UV-I 141 W/m² 11,9 °C 13,3 °C 11,3 km/h (2 Bft)
21.08.2019 12:37 13,2 °C 91 % 1025,8 hPa 0,0 mm 4,3 km/h (1 Bft) O-NO 62 ° 0 min 0,000 mm 1,7 UV-I 193 W/m² 11,8 °C 13,2 °C 6,4 km/h (2 Bft)
21.08.2019 12:38 13,2 °C 91 % 1025,8 hPa 0,0 mm 1,1 km/h (1 Bft) O-NO 62 ° 0 min 0,000 mm 1,7 UV-I 204 W/m² 11,8 °C 13,2 °C 3,2 km/h (1 Bft)
21.08.2019 12:39 13,3 °C 92 % 1025,8 hPa 0,0 mm 2,1 km/h (1 Bft) O 98 ° 0 min 0,000 mm 1,5 UV-I 186 W/m² 12,0 °C 13,3 °C 4,8 km/h (1 Bft)
21.08.2019 12:40 13,3 °C 92 % 1025,8 hPa 0,0 mm 0,6 km/h (0 Bft) O 98 ° 0 min 0,000 mm 1,4 UV-I 178 W/m² 12,0 °C 13,3 °C 3,2 km/h (1 Bft)
21.08.2019 12:41 13,3 °C 92 % 1025,7 hPa 0,0 mm 2,8 km/h (1 Bft) NO 55 ° 0 min 0,000 mm 1,4 UV-I 179 W/m² 12,0 °C 13,3 °C 4,8 km/h (1 Bft)
21.08.2019 12:42 13,3 °C 92 % 1025,7 hPa 0,0 mm 4,6 km/h (1 Bft) O-NO 75 ° 0 min 0,000 mm 1,5 UV-I 186 W/m² 12,0 °C 13,3 °C 8,0 km/h (2 Bft)
21.08.2019 12:43 13,3 °C 91 % 1025,7 hPa 0,0 mm 3,6 km/h (1 Bft) NO 49 ° 0 min 0,000 mm 1,3 UV-I 171 W/m² 11,9 °C 13,3 °C 4,8 km/h (1 Bft)
21.08.2019 12:44 13,3 °C 92 % 1025,7 hPa 0,0 mm 2,0 km/h (1 Bft) NO 49 ° 0 min 0,000 mm 1,3 UV-I 179 W/m² 12,0 °C 13,3 °C 3,2 km/h (1 Bft)
21.08.2019 12:45 13,3 °C 91 % 1025,7 hPa 0,0 mm 6,7 km/h (2 Bft) O-NO 69 ° 0 min 0,000 mm 1,5 UV-I 193 W/m² 11,9 °C 13,3 °C 12,9 km/h (3 Bft)
21.08.2019 12:46 13,3 °C 91 % 1025,6 hPa 0,0 mm 6,3 km/h (2 Bft) NO 41 ° 0 min 0,000 mm 1,5 UV-I 200 W/m² 11,9 °C 13,3 °C 9,7 km/h (2 Bft)
21.08.2019 12:47 13,3 °C 91 % 1025,6 hPa 0,0 mm 4,5 km/h (1 Bft) O-NO 61 ° 0 min 0,000 mm 1,5 UV-I 202 W/m² 11,9 °C 13,3 °C 8,0 km/h (2 Bft)
21.08.2019 12:48 13,3 °C 91 % 1025,7 hPa 0,0 mm 5,2 km/h (1 Bft) NO 38 ° 0 min 0,000 mm 1,6 UV-I 237 W/m² 11,9 °C 13,3 °C 9,7 km/h (2 Bft)
21.08.2019 12:49 13,2 °C 91 % 1025,6 hPa 0,0 mm 4,5 km/h (1 Bft) O 96 ° 0 min 0,000 mm 2,1 UV-I 267 W/m² 11,8 °C 13,2 °C 11,3 km/h (2 Bft)
21.08.2019 12:50 13,2 °C 91 % 1025,6 hPa 0,0 mm 1,2 km/h (1 Bft) O 88 ° 0 min 0,000 mm 2,1 UV-I 274 W/m² 11,8 °C 13,2 °C 6,4 km/h (2 Bft)
21.08.2019 12:51 13,3 °C 92 % 1025,7 hPa 0,0 mm 5,0 km/h (1 Bft) NO 40 ° 0 min 0,000 mm 2,0 UV-I 258 W/m² 12,0 °C 13,3 °C 8,0 km/h (2 Bft)
21.08.2019 12:52 13,3 °C 91 % 1025,6 hPa 0,0 mm 5,2 km/h (1 Bft) SO 128 ° 0 min 0,000 mm 1,8 UV-I 239 W/m² 11,9 °C 13,3 °C 9,7 km/h (2 Bft)
21.08.2019 12:53 13,3 °C 91 % 1025,7 hPa 0,0 mm 4,3 km/h (1 Bft) O 81 ° 0 min 0,000 mm 1,6 UV-I 183 W/m² 11,9 °C 13,3 °C 9,7 km/h (2 Bft)
21.08.2019 12:54 13,3 °C 91 % 1025,6 hPa 0,2 mm 7,8 km/h (2 Bft) O 80 ° 0 min 0,000 mm 1,2 UV-I 162 W/m² 11,9 °C 13,3 °C 11,3 km/h (2 Bft)
21.08.2019 12:55 13,3 °C 91 % 1025,6 hPa 0,0 mm 5,2 km/h (1 Bft) NO 56 ° 0 min 0,000 mm 1,1 UV-I 146 W/m² 11,9 °C 13,3 °C 8,0 km/h (2 Bft)
21.08.2019 12:56 13,3 °C 91 % 1025,6 hPa 0,0 mm 3,6 km/h (1 Bft) O-NO 65 ° 0 min 0,000 mm 1,0 UV-I 130 W/m² 11,9 °C 13,3 °C 8,0 km/h (2 Bft)
21.08.2019 12:57 13,3 °C 92 % 1025,6 hPa 0,0 mm 6,2 km/h (2 Bft) O 93 ° 0 min 0,000 mm 1,0 UV-I 123 W/m² 12,0 °C 13,3 °C 8,0 km/h (2 Bft)
21.08.2019 12:58 13,3 °C 91 % 1025,6 hPa 0,0 mm 4,0 km/h (1 Bft) NO 56 ° 0 min 0,000 mm 0,9 UV-I 118 W/m² 11,9 °C 13,3 °C 8,0 km/h (2 Bft)
21.08.2019 12:59 13,3 °C 92 % 1025,6 hPa 0,0 mm 5,0 km/h (1 Bft) O 87 ° 0 min 0,000 mm 0,9 UV-I 118 W/m² 12,0 °C 13,3 °C 8,0 km/h (2 Bft)
21.08.2019 13:00 13,3 °C 91 % 1025,6 hPa 0,0 mm 6,9 km/h (2 Bft) O-NO 75 ° 0 min 0,000 mm 1,0 UV-I 127 W/m² 11,9 °C 13,3 °C 11,3 km/h (2 Bft)
21.08.2019 13:01 13,3 °C 92 % 1025,6 hPa 0,0 mm 0,5 km/h (0 Bft) O-NO 75 ° 0 min 0,102 mm 1,0 UV-I 128 W/m² 12,0 °C 13,3 °C 3,2 km/h (1 Bft)
21.08.2019 13:02 13,3 °C 92 % 1025,6 hPa 0,0 mm 0,0 km/h (0 Bft) O-NO 75 ° 0 min 0,000 mm 1,0 UV-I 130 W/m² 12,0 °C 13,3 °C 0,0 km/h (0 Bft)
21.08.2019 13:03 13,3 °C 92 % 1025,6 hPa 0,0 mm 0,0 km/h (0 Bft) O-NO 75 ° 0 min 0,000 mm 1,1 UV-I 135 W/m² 12,0 °C 13,3 °C 0,0 km/h (0 Bft)
21.08.2019 13:04 13,4 °C 92 % 1025,6 hPa 0,0 mm 3,2 km/h (1 Bft) SO 136 ° 0 min 0,000 mm 1,1 UV-I 139 W/m² 12,1 °C 13,4 °C 6,4 km/h (2 Bft)
21.08.2019 13:05 13,4 °C 92 % 1025,5 hPa 0,0 mm 2,8 km/h (1 Bft) O 86 ° 0 min 0,000 mm 1,2 UV-I 148 W/m² 12,1 °C 13,4 °C 6,4 km/h (2 Bft)
21.08.2019 13:06 13,4 °C 92 % 1025,5 hPa 0,0 mm 3,1 km/h (1 Bft) NO 49 ° 0 min 0,000 mm 1,2 UV-I 146 W/m² 12,1 °C 13,4 °C 6,4 km/h (2 Bft)
21.08.2019 13:07 13,4 °C 92 % 1025,5 hPa 0,0 mm 2,7 km/h (1 Bft) NO 51 ° 0 min 0,000 mm 1,2 UV-I 149 W/m² 12,1 °C 13,4 °C 6,4 km/h (2 Bft)
21.08.2019 13:08 13,4 °C 92 % 1025,5 hPa 0,0 mm 2,6 km/h (1 Bft) O 84 ° 0 min 0,000 mm 1,2 UV-I 155 W/m² 12,1 °C 13,4 °C 4,8 km/h (1 Bft)
21.08.2019 13:09 13,5 °C 92 % 1025,5 hPa 0,0 mm 5,8 km/h (2 Bft) O 83 ° 0 min 0,000 mm 1,3 UV-I 162 W/m² 12,2 °C 13,5 °C 9,7 km/h (2 Bft)
21.08.2019 13:10 13,4 °C 91 % 1025,4 hPa 0,0 mm 8,3 km/h (2 Bft) O-NO 68 ° 0 min 0,000 mm 1,5 UV-I 179 W/m² 12,0 °C 13,4 °C 9,7 km/h (2 Bft)
21.08.2019 13:11 13,4 °C 91 % 1025,4 hPa 0,0 mm 5,3 km/h (1 Bft) NO 52 ° 0 min 0,000 mm 1,7 UV-I 236 W/m² 12,0 °C 13,4 °C 8,0 km/h (2 Bft)
21.08.2019 13:12 13,4 °C 91 % 1025,4 hPa 0,0 mm 5,1 km/h (1 Bft) O-NO 59 ° 0 min 0,000 mm 2,4 UV-I 278 W/m² 12,0 °C 13,4 °C 8,0 km/h (2 Bft)
21.08.2019 13:13 13,5 °C 91 % 1025,4 hPa 0,0 mm 3,4 km/h (1 Bft) O-NO 66 ° 0 min 0,000 mm 2,7 UV-I 322 W/m² 12,1 °C 13,5 °C 6,4 km/h (2 Bft)
21.08.2019 13:14 13,6 °C 90 % 1025,4 hPa 0,0 mm 4,0 km/h (1 Bft) NO 37 ° 0 min 0,000 mm 3,0 UV-I 357 W/m² 12,0 °C 13,6 °C 4,8 km/h (1 Bft)
21.08.2019 13:15 13,6 °C 91 % 1025,5 hPa 0,0 mm 4,0 km/h (1 Bft) O-NO 70 ° 0 min 0,000 mm 3,2 UV-I 387 W/m² 12,2 °C 13,6 °C 8,0 km/h (2 Bft)
21.08.2019 13:16 13,7 °C 91 % 1025,4 hPa 0,0 mm 4,0 km/h (1 Bft) O-NO 73 ° 0 min 0,000 mm 3,5 UV-I 422 W/m² 12,3 °C 13,7 °C 8,0 km/h (2 Bft)
21.08.2019 13:17 13,7 °C 91 % 1025,4 hPa 0,0 mm 5,5 km/h (1 Bft) NO 47 ° 0 min 0,000 mm 3,5 UV-I 436 W/m² 12,3 °C 13,7 °C 8,0 km/h (2 Bft)
21.08.2019 13:18 13,8 °C 91 % 1025,4 hPa 0,0 mm 4,4 km/h (1 Bft) NO 39 ° 0 min 0,000 mm 3,3 UV-I 436 W/m² 12,4 °C 13,8 °C 8,0 km/h (2 Bft)
21.08.2019 13:19 13,8 °C 90 % 1025,4 hPa 0,0 mm 2,6 km/h (1 Bft) N 10 ° 0 min 0,000 mm 3,1 UV-I 436 W/m² 12,2 °C 13,8 °C 6,4 km/h (2 Bft)
21.08.2019 13:20 13,9 °C 91 % 1025,4 hPa 0,2 mm 5,4 km/h (1 Bft) O-NO 62 ° 0 min 0,000 mm 2,8 UV-I 355 W/m² 12,5 °C 13,9 °C 12,9 km/h (3 Bft)
21.08.2019 13:21 14,0 °C 90 % 1025,4 hPa 0,0 mm 9,6 km/h (2 Bft) O-NO 67 ° 0 min 0,000 mm 2,5 UV-I 334 W/m² 12,4 °C 14,0 °C 14,5 km/h (3 Bft)
21.08.2019 13:22 13,9 °C 89 % 1025,4 hPa 0,0 mm 6,6 km/h (2 Bft) O-NO 59 ° 0 min 0,000 mm 2,2 UV-I 279 W/m² 12,1 °C 13,9 °C 9,7 km/h (2 Bft)
21.08.2019 13:23 14,0 °C 90 % 1025,4 hPa 0,0 mm 2,7 km/h (1 Bft) O-NO 65 ° 0 min 0,000 mm 2,2 UV-I 332 W/m² 12,4 °C 14,0 °C 9,7 km/h (2 Bft)
21.08.2019 13:24 14,0 °C 89 % 1025,4 hPa 0,0 mm 4,6 km/h (1 Bft) NO 54 ° 0 min 0,000 mm 2,9 UV-I 366 W/m² 12,2 °C 14,0 °C 6,4 km/h (2 Bft)
21.08.2019 13:25 14,1 °C 90 % 1025,4 hPa 0,0 mm 5,8 km/h (2 Bft) NO 55 ° 0 min 0,000 mm 3,0 UV-I 366 W/m² 12,5 °C 14,1 °C 8,0 km/h (2 Bft)
21.08.2019 13:26 14,2 °C 90 % 1025,4 hPa 0,0 mm 5,3 km/h (1 Bft) O-NO 71 ° 0 min 0,000 mm 3,2 UV-I 390 W/m² 12,6 °C 14,2 °C 8,0 km/h (2 Bft)
21.08.2019 13:27 14,2 °C 89 % 1025,4 hPa 0,0 mm 4,2 km/h (1 Bft) O-NO 63 ° 0 min 0,000 mm 3,1 UV-I 383 W/m² 12,4 °C 14,2 °C 6,4 km/h (2 Bft)
21.08.2019 13:28 14,2 °C 89 % 1025,4 hPa 0,0 mm 3,5 km/h (1 Bft) O-NO 60 ° 0 min 0,000 mm 3,1 UV-I 373 W/m² 12,4 °C 14,2 °C 9,7 km/h (2 Bft)
21.08.2019 13:29 14,3 °C 90 % 1025,4 hPa 0,0 mm 7,4 km/h (2 Bft) O-NO 63 ° 0 min 0,000 mm 3,0 UV-I 353 W/m² 12,7 °C 14,3 °C 12,9 km/h (3 Bft)
21.08.2019 13:30 14,3 °C 88 % 1025,4 hPa 0,0 mm 6,6 km/h (2 Bft) O-NO 61 ° 0 min 0,000 mm 2,9 UV-I 343 W/m² 12,3 °C 14,3 °C 12,9 km/h (3 Bft)
21.08.2019 13:31 14,3 °C 89 % 1025,3 hPa 0,0 mm 3,2 km/h (1 Bft) NO 54 ° 0 min 0,000 mm 2,7 UV-I 339 W/m² 12,5 °C 14,3 °C 4,8 km/h (1 Bft)
21.08.2019 13:32 14,3 °C 89 % 1025,4 hPa 0,0 mm 2,9 km/h (1 Bft) NO 52 ° 0 min 0,000 mm 2,7 UV-I 336 W/m² 12,5 °C 14,3 °C 6,4 km/h (2 Bft)
21.08.2019 13:33 14,3 °C 89 % 1025,3 hPa 0,0 mm 5,4 km/h (1 Bft) NO 49 ° 0 min 0,000 mm 2,7 UV-I 334 W/m² 12,5 °C 14,3 °C 8,0 km/h (2 Bft)
21.08.2019 13:34 14,3 °C 89 % 1025,3 hPa 0,0 mm 6,4 km/h (2 Bft) O-NO 58 ° 0 min 0,000 mm 2,6 UV-I 327 W/m² 12,5 °C 14,3 °C 11,3 km/h (2 Bft)
21.08.2019 13:35 14,3 °C 88 % 1025,3 hPa 0,0 mm 12,0 km/h (2 Bft) O 99 ° 0 min 0,000 mm 2,9 UV-I 338 W/m² 12,3 °C 14,3 °C 16,1 km/h (3 Bft)
21.08.2019 13:36 14,2 °C 88 % 1025,3 hPa 0,0 mm 6,0 km/h (2 Bft) NO 36 ° 0 min 0,000 mm 3,1 UV-I 367 W/m² 12,2 °C 14,2 °C 11,3 km/h (2 Bft)
21.08.2019 13:37 14,3 °C 88 % 1025,3 hPa 0,0 mm 5,0 km/h (1 Bft) N-NO 19 ° 0 min 0,000 mm 3,3 UV-I 401 W/m² 12,3 °C 14,3 °C 8,0 km/h (2 Bft)
21.08.2019 13:38 14,3 °C 88 % 1025,4 hPa 0,0 mm 6,6 km/h (2 Bft) O-NO 63 ° 0 min 0,000 mm 3,2 UV-I 401 W/m² 12,3 °C 14,3 °C 12,9 km/h (3 Bft)
21.08.2019 13:39 14,3 °C 89 % 1025,4 hPa 0,0 mm 4,8 km/h (1 Bft) N-NO 30 ° 0 min 0,000 mm 2,9 UV-I 378 W/m² 12,5 °C 14,3 °C 6,4 km/h (2 Bft)
21.08.2019 13:40 14,3 °C 89 % 1025,4 hPa 0,0 mm 5,2 km/h (1 Bft) O-NO 70 ° 0 min 0,000 mm 2,7 UV-I 313 W/m² 12,5 °C 14,3 °C 8,0 km/h (2 Bft)
21.08.2019 13:41 14,3 °C 89 % 1025,4 hPa 0,0 mm 4,4 km/h (1 Bft) O-SO 112 ° 0 min 0,000 mm 2,4 UV-I 313 W/m² 12,5 °C 14,3 °C 11,3 km/h (2 Bft)
21.08.2019 13:42 14,3 °C 88 % 1025,4 hPa 0,0 mm 7,2 km/h (2 Bft) O 85 ° 0 min 0,000 mm 1,8 UV-I 239 W/m² 12,3 °C 14,3 °C 9,7 km/h (2 Bft)
21.08.2019 13:43 14,3 °C 89 % 1025,4 hPa 0,0 mm 3,2 km/h (1 Bft) O-NO 57 ° 0 min 0,000 mm 1,5 UV-I 202 W/m² 12,5 °C 14,3 °C 6,4 km/h (2 Bft)
21.08.2019 13:44 14,3 °C 88 % 1025,4 hPa 0,0 mm 7,0 km/h (2 Bft) O-NO 60 ° 0 min 0,000 mm 1,3 UV-I 179 W/m² 12,3 °C 14,3 °C 9,7 km/h (2 Bft)
21.08.2019 13:45 14,3 °C 88 % 1025,4 hPa 0,0 mm 5,6 km/h (1 Bft) O-NO 61 ° 0 min 0,000 mm 1,3 UV-I 165 W/m² 12,3 °C 14,3 °C 9,7 km/h (2 Bft)
21.08.2019 13:46 14,2 °C 88 % 1025,4 hPa 0,0 mm 5,6 km/h (1 Bft) NO 53 ° 0 min 0,000 mm 1,2 UV-I 156 W/m² 12,2 °C 14,2 °C 8,0 km/h (2 Bft)
21.08.2019 13:47 14,3 °C 88 % 1025,4 hPa 0,0 mm 2,7 km/h (1 Bft) N-NW 345 ° 0 min 0,000 mm 1,1 UV-I 141 W/m² 12,3 °C 14,3 °C 6,4 km/h (2 Bft)
21.08.2019 13:48 14,2 °C 88 % 1025,4 hPa 0,0 mm 5,0 km/h (1 Bft) O-NO 71 ° 0 min 0,000 mm 1,0 UV-I 127 W/m² 12,2 °C 14,2 °C 8,0 km/h (2 Bft)
21.08.2019 13:49 14,1 °C 88 % 1025,4 hPa 0,0 mm 4,7 km/h (1 Bft) O-NO 60 ° 0 min 0,000 mm 1,0 UV-I 114 W/m² 12,1 °C 14,1 °C 6,4 km/h (2 Bft)
21.08.2019 13:50 14,1 °C 88 % 1025,3 hPa 0,0 mm 3,8 km/h (1 Bft) O-NO 66 ° 0 min 0,000 mm 1,0 UV-I 111 W/m² 12,1 °C 14,1 °C 6,4 km/h (2 Bft)
21.08.2019 13:51 14,1 °C 88 % 1025,4 hPa 0,2 mm 3,4 km/h (1 Bft) NO 56 ° 0 min 0,000 mm 1,0 UV-I 114 W/m² 12,1 °C 14,1 °C 6,4 km/h (2 Bft)
21.08.2019 13:52 14,1 °C 88 % 1025,4 hPa 0,0 mm 4,7 km/h (1 Bft) NO 35 ° 0 min 0,000 mm 1,2 UV-I 165 W/m² 12,1 °C 14,1 °C 6,4 km/h (2 Bft)
21.08.2019 13:53 14,1 °C 88 % 1025,4 hPa 0,0 mm 4,7 km/h (1 Bft) O 82 ° 0 min 0,000 mm 1,7 UV-I 199 W/m² 12,1 °C 14,1 °C 6,4 km/h (2 Bft)
21.08.2019 13:54 14,1 °C 88 % 1025,3 hPa 0,0 mm 1,7 km/h (1 Bft) O 82 ° 0 min 0,000 mm 1,8 UV-I 218 W/m² 12,1 °C 14,1 °C 4,8 km/h (1 Bft)
21.08.2019 13:55 14,1 °C 89 % 1025,3 hPa 0,0 mm 2,7 km/h (1 Bft) O-NO 57 ° 0 min 0,000 mm 1,8 UV-I 223 W/m² 12,3 °C 14,1 °C 3,2 km/h (1 Bft)
21.08.2019 13:56 14,1 °C 89 % 1025,3 hPa 0,0 mm 3,8 km/h (1 Bft) O 80 ° 0 min 0,000 mm 1,9 UV-I 230 W/m² 12,3 °C 14,1 °C 4,8 km/h (1 Bft)
21.08.2019 13:57 14,1 °C 89 % 1025,3 hPa 0,0 mm 4,2 km/h (1 Bft) O-NO 67 ° 0 min 0,000 mm 2,1 UV-I 246 W/m² 12,3 °C 14,1 °C 6,4 km/h (2 Bft)
21.08.2019 13:58 14,1 °C 89 % 1025,3 hPa 0,0 mm 1,6 km/h (1 Bft) O-NO 67 ° 0 min 0,000 mm 2,3 UV-I 285 W/m² 12,3 °C 14,1 °C 3,2 km/h (1 Bft)
21.08.2019 13:59 14,1 °C 90 % 1025,3 hPa 0,0 mm 2,7 km/h (1 Bft) O 80 ° 0 min 0,000 mm 2,5 UV-I 288 W/m² 12,5 °C 14,1 °C 4,8 km/h (1 Bft)
21.08.2019 14:00 14,1 °C 89 % 1025,3 hPa 0,0 mm 3,0 km/h (1 Bft) NO 55 ° 0 min 0,000 mm 2,5 UV-I 294 W/m² 12,3 °C 14,1 °C 6,4 km/h (2 Bft)
21.08.2019 14:01 14,2 °C 89 % 1025,4 hPa 0,0 mm 4,2 km/h (1 Bft) NO 40 ° 0 min 0,152 mm 2,5 UV-I 294 W/m² 12,4 °C 14,2 °C 6,4 km/h (2 Bft)
21.08.2019 14:02 14,3 °C 90 % 1025,4 hPa 0,0 mm 1,8 km/h (1 Bft) NO 40 ° 0 min 0,000 mm 2,5 UV-I 295 W/m² 12,7 °C 14,3 °C 4,8 km/h (1 Bft)
21.08.2019 14:03 14,3 °C 89 % 1025,3 hPa 0,0 mm 1,0 km/h (0 Bft) NO 40 ° 0 min 0,000 mm 2,6 UV-I 301 W/m² 12,5 °C 14,3 °C 3,2 km/h (1 Bft)
21.08.2019 14:04 14,4 °C 90 % 1025,3 hPa 0,0 mm 2,8 km/h (1 Bft) O-SO 106 ° 0 min 0,000 mm 2,5 UV-I 285 W/m² 12,8 °C 14,4 °C 4,8 km/h (1 Bft)
21.08.2019 14:05 14,5 °C 89 % 1025,4 hPa 0,0 mm 4,8 km/h (1 Bft) O-NO 69 ° 0 min 0,000 mm 2,6 UV-I 290 W/m² 12,7 °C 14,5 °C 11,3 km/h (2 Bft)
21.08.2019 14:06 14,6 °C 89 % 1025,4 hPa 0,0 mm 6,0 km/h (2 Bft) O-NO 75 ° 0 min 0,000 mm 2,6 UV-I 294 W/m² 12,8 °C 14,6 °C 9,7 km/h (2 Bft)
21.08.2019 14:07 14,6 °C 88 % 1025,4 hPa 0,0 mm 6,3 km/h (2 Bft) O-NO 59 ° 0 min 0,000 mm 2,5 UV-I 295 W/m² 12,6 °C 14,6 °C 11,3 km/h (2 Bft)
21.08.2019 14:08 14,6 °C 88 % 1025,4 hPa 0,0 mm 5,1 km/h (1 Bft) NO 55 ° 0 min 0,000 mm 2,5 UV-I 295 W/m² 12,6 °C 14,6 °C 9,7 km/h (2 Bft)
21.08.2019 14:09 14,6 °C 88 % 1025,4 hPa 0,0 mm 8,7 km/h (2 Bft) O-SO 122 ° 0 min 0,000 mm 2,6 UV-I 306 W/m² 12,6 °C 14,6 °C 14,5 km/h (3 Bft)
21.08.2019 14:10 14,6 °C 87 % 1025,4 hPa 0,0 mm 6,6 km/h (2 Bft) O-NO 65 ° 0 min 0,000 mm 2,6 UV-I 304 W/m² 12,5 °C 14,6 °C 12,9 km/h (3 Bft)
21.08.2019 14:11 14,6 °C 87 % 1025,4 hPa 0,0 mm 6,8 km/h (2 Bft) O-NO 58 ° 0 min 0,000 mm 2,6 UV-I 309 W/m² 12,5 °C 14,6 °C 9,7 km/h (2 Bft)
21.08.2019 14:12 14,6 °C 87 % 1025,4 hPa 0,0 mm 6,1 km/h (2 Bft) O-NO 77 ° 0 min 0,000 mm 2,5 UV-I 306 W/m² 12,5 °C 14,6 °C 11,3 km/h (2 Bft)
21.08.2019 14:13 14,6 °C 87 % 1025,4 hPa 0,0 mm 4,8 km/h (1 Bft) O-NO 69 ° 0 min 0,000 mm 2,4 UV-I 290 W/m² 12,5 °C 14,6 °C 9,7 km/h (2 Bft)
21.08.2019 14:14 14,6 °C 87 % 1025,3 hPa 0,0 mm 7,6 km/h (2 Bft) O-NO 76 ° 0 min 0,000 mm 2,2 UV-I 274 W/m² 12,5 °C 14,6 °C 12,9 km/h (3 Bft)
21.08.2019 14:15 14,6 °C 87 % 1025,3 hPa 0,0 mm 2,3 km/h (1 Bft) NO 36 ° 0 min 0,000 mm 2,1 UV-I 246 W/m² 12,5 °C 14,6 °C 4,8 km/h (1 Bft)
21.08.2019 14:16 14,6 °C 87 % 1025,3 hPa 0,0 mm 3,0 km/h (1 Bft) O-NO 67 ° 0 min 0,000 mm 1,9 UV-I 230 W/m² 12,5 °C 14,6 °C 6,4 km/h (2 Bft)
21.08.2019 14:17 14,7 °C 87 % 1025,3 hPa 0,0 mm 3,2 km/h (1 Bft) NO 55 ° 0 min 0,000 mm 1,8 UV-I 220 W/m² 12,6 °C 14,7 °C 6,4 km/h (2 Bft)
21.08.2019 14:18 14,7 °C 87 % 1025,3 hPa 0,0 mm 6,7 km/h (2 Bft) O 89 ° 0 min 0,000 mm 1,7 UV-I 209 W/m² 12,6 °C 14,7 °C 12,9 km/h (3 Bft)
21.08.2019 14:19 14,7 °C 87 % 1025,3 hPa 0,0 mm 4,4 km/h (1 Bft) NO 49 ° 0 min 0,000 mm 1,6 UV-I 200 W/m² 12,6 °C 14,7 °C 8,0 km/h (2 Bft)
21.08.2019 14:20 14,8 °C 86 % 1025,3 hPa 0,0 mm 6,9 km/h (2 Bft) O-NO 74 ° 0 min 0,000 mm 1,6 UV-I 193 W/m² 12,5 °C 14,8 °C 11,3 km/h (2 Bft)
21.08.2019 14:21 14,7 °C 86 % 1025,3 hPa 0,0 mm 9,1 km/h (2 Bft) O-NO 69 ° 0 min 0,000 mm 1,5 UV-I 178 W/m² 12,4 °C 14,7 °C 14,5 km/h (3 Bft)
21.08.2019 14:22 14,7 °C 86 % 1025,3 hPa 0,0 mm 6,5 km/h (2 Bft) O-SO 113 ° 0 min 0,000 mm 1,5 UV-I 169 W/m² 12,4 °C 14,7 °C 11,3 km/h (2 Bft)
21.08.2019 14:23 14,7 °C 86 % 1025,3 hPa 0,0 mm 6,2 km/h (2 Bft) O-NO 67 ° 0 min 0,000 mm 1,3 UV-I 160 W/m² 12,4 °C 14,7 °C 9,7 km/h (2 Bft)
21.08.2019 14:24 14,7 °C 86 % 1025,3 hPa 0,0 mm 3,6 km/h (1 Bft) NO 55 ° 0 min 0,000 mm 1,3 UV-I 155 W/m² 12,4 °C 14,7 °C 4,8 km/h (1 Bft)
21.08.2019 14:25 14,7 °C 87 % 1025,3 hPa 0,0 mm 3,2 km/h (1 Bft) O 98 ° 0 min 0,000 mm 1,2 UV-I 151 W/m² 12,6 °C 14,7 °C 4,8 km/h (1 Bft)
21.08.2019 14:26 14,6 °C 86 % 1025,3 hPa 0,0 mm 3,9 km/h (1 Bft) O-NO 61 ° 0 min 0,000 mm 1,2 UV-I 146 W/m² 12,3 °C 14,6 °C 8,0 km/h (2 Bft)
21.08.2019 14:27 14,5 °C 86 % 1025,2 hPa 0,0 mm 5,2 km/h (1 Bft) O-NO 67 ° 0 min 0,000 mm 1,2 UV-I 139 W/m² 12,2 °C 14,5 °C 6,4 km/h (2 Bft)
21.08.2019 14:28 14,4 °C 86 % 1025,2 hPa 0,0 mm 2,9 km/h (1 Bft) O-NO 61 ° 0 min 0,000 mm 1,1 UV-I 135 W/m² 12,1 °C 14,4 °C 9,7 km/h (2 Bft)
21.08.2019 14:29 14,4 °C 86 % 1025,3 hPa 0,0 mm 6,3 km/h (2 Bft) NO 51 ° 0 min 0,000 mm 1,1 UV-I 128 W/m² 12,1 °C 14,4 °C 9,7 km/h (2 Bft)
21.08.2019 14:30 14,4 °C 88 % 1025,3 hPa 0,2 mm 2,3 km/h (1 Bft) O 87 ° 0 min 0,000 mm 1,0 UV-I 123 W/m² 12,4 °C 14,4 °C 8,0 km/h (2 Bft)
21.08.2019 14:31 14,4 °C 88 % 1025,3 hPa 0,0 mm 2,0 km/h (1 Bft) O 87 ° 0 min 0,000 mm 1,0 UV-I 120 W/m² 12,4 °C 14,4 °C 4,8 km/h (1 Bft)
21.08.2019 14:32 14,4 °C 88 % 1025,3 hPa 0,0 mm 3,1 km/h (1 Bft) O-NO 58 ° 0 min 0,000 mm 1,0 UV-I 121 W/m² 12,4 °C 14,4 °C 4,8 km/h (1 Bft)
21.08.2019 14:33 14,4 °C 88 % 1025,3 hPa 0,0 mm 3,3 km/h (1 Bft) O-NO 78 ° 0 min 0,000 mm 1,1 UV-I 142 W/m² 12,4 °C 14,4 °C 8,0 km/h (2 Bft)
21.08.2019 14:34 14,3 °C 88 % 1025,3 hPa 0,0 mm 0,5 km/h (0 Bft) O-NO 78 ° 0 min 0,000 mm 1,3 UV-I 151 W/m² 12,3 °C 14,3 °C 3,2 km/h (1 Bft)
21.08.2019 14:35 14,3 °C 89 % 1025,3 hPa 0,0 mm 3,4 km/h (1 Bft) SO 124 ° 0 min 0,000 mm 1,3 UV-I 158 W/m² 12,5 °C 14,3 °C 9,7 km/h (2 Bft)
21.08.2019 14:36 14,3 °C 88 % 1025,3 hPa 0,0 mm 2,2 km/h (1 Bft) O 85 ° 0 min 0,000 mm 1,4 UV-I 169 W/m² 12,3 °C 14,3 °C 4,8 km/h (1 Bft)
21.08.2019 14:37 14,3 °C 89 % 1025,3 hPa 0,0 mm 1,8 km/h (1 Bft) O 85 ° 0 min 0,000 mm 1,5 UV-I 179 W/m² 12,5 °C 14,3 °C 3,2 km/h (1 Bft)
21.08.2019 14:38 14,3 °C 89 % 1025,3 hPa 0,0 mm 1,9 km/h (1 Bft) O-NO 74 ° 0 min 0,000 mm 1,6 UV-I 188 W/m² 12,5 °C 14,3 °C 4,8 km/h (1 Bft)
21.08.2019 14:39 14,3 °C 89 % 1025,3 hPa 0,0 mm 1,0 km/h (0 Bft) O-NO 74 ° 0 min 0,000 mm 1,6 UV-I 193 W/m² 12,5 °C 14,3 °C 3,2 km/h (1 Bft)
21.08.2019 14:40 14,3 °C 90 % 1025,3 hPa 0,0 mm 3,6 km/h (1 Bft) O-NO 61 ° 0 min 0,000 mm 1,6 UV-I 190 W/m² 12,7 °C 14,3 °C 4,8 km/h (1 Bft)
21.08.2019 14:41 14,3 °C 90 % 1025,3 hPa 0,0 mm 4,6 km/h (1 Bft) O-NO 60 ° 0 min 0,000 mm 1,6 UV-I 188 W/m² 12,7 °C 14,3 °C 6,4 km/h (2 Bft)
21.08.2019 14:42 14,3 °C 89 % 1025,3 hPa 0,0 mm 2,4 km/h (1 Bft) O-NO 74 ° 0 min 0,000 mm 1,5 UV-I 185 W/m² 12,5 °C 14,3 °C 4,8 km/h (1 Bft)
21.08.2019 14:43 14,4 °C 90 % 1025,3 hPa 0,0 mm 2,4 km/h (1 Bft) SO 136 ° 0 min 0,000 mm 1,5 UV-I 181 W/m² 12,8 °C 14,4 °C 4,8 km/h (1 Bft)
21.08.2019 14:44 14,4 °C 89 % 1025,2 hPa 0,0 mm 0,0 km/h (0 Bft) SO 136 ° 0 min 0,000 mm 1,5 UV-I 178 W/m² 12,6 °C 14,4 °C 0,0 km/h (0 Bft)
21.08.2019 14:45 14,3 °C 89 % 1025,2 hPa 0,0 mm 0,1 km/h (0 Bft) O 84 ° 0 min 0,000 mm 1,5 UV-I 172 W/m² 12,5 °C 14,3 °C 1,6 km/h (1 Bft)
21.08.2019 14:46 14,4 °C 89 % 1025,2 hPa 0,0 mm 0,0 km/h (0 Bft) O 84 ° 0 min 0,000 mm 1,4 UV-I 169 W/m² 12,6 °C 14,4 °C 0,0 km/h (0 Bft)
21.08.2019 14:47 14,4 °C 89 % 1025,2 hPa 0,0 mm 0,0 km/h (0 Bft) O 84 ° 0 min 0,000 mm 1,4 UV-I 167 W/m² 12,6 °C 14,4 °C 0,0 km/h (0 Bft)
21.08.2019 14:48 14,4 °C 88 % 1025,3 hPa 0,0 mm 1,3 km/h (1 Bft) O 86 ° 0 min 0,000 mm 1,4 UV-I 165 W/m² 12,4 °C 14,4 °C 4,8 km/h (1 Bft)
21.08.2019 14:49 14,4 °C 88 % 1025,3 hPa 0,0 mm 1,7 km/h (1 Bft) O 86 ° 0 min 0,000 mm 1,3 UV-I 158 W/m² 12,4 °C 14,4 °C 4,8 km/h (1 Bft)
21.08.2019 14:50 14,4 °C 89 % 1025,2 hPa 0,0 mm 1,0 km/h (0 Bft) O 86 ° 0 min 0,000 mm 1,2 UV-I 151 W/m² 12,6 °C 14,4 °C 1,6 km/h (1 Bft)
21.08.2019 14:51 14,4 °C 89 % 1025,3 hPa 0,0 mm 2,1 km/h (1 Bft) NO 49 ° 0 min 0,000 mm 1,2 UV-I 141 W/m² 12,6 °C 14,4 °C 4,8 km/h (1 Bft)
21.08.2019 14:52 14,4 °C 89 % 1025,2 hPa 0,0 mm 1,7 km/h (1 Bft) O 82 ° 0 min 0,000 mm 1,2 UV-I 141 W/m² 12,6 °C 14,4 °C 3,2 km/h (1 Bft)
21.08.2019 14:53 14,4 °C 89 % 1025,2 hPa 0,0 mm 0,6 km/h (0 Bft) O 83 ° 0 min 0,000 mm 1,2 UV-I 142 W/m² 12,6 °C 14,4 °C 1,6 km/h (1 Bft)
21.08.2019 14:54 14,4 °C 89 % 1025,2 hPa 0,0 mm 0,8 km/h (0 Bft) O 98 ° 0 min 0,000 mm 1,2 UV-I 142 W/m² 12,6 °C 14,4 °C 1,6 km/h (1 Bft)
21.08.2019 14:55 14,4 °C 89 % 1025,2 hPa 0,0 mm 1,9 km/h (1 Bft) O 98 ° 0 min 0,000 mm 1,2 UV-I 141 W/m² 12,6 °C 14,4 °C 3,2 km/h (1 Bft)
21.08.2019 14:56 14,3 °C 89 % 1025,2 hPa 0,0 mm 1,5 km/h (1 Bft) O 98 ° 0 min 0,000 mm 1,2 UV-I 139 W/m² 12,5 °C 14,3 °C 3,2 km/h (1 Bft)
21.08.2019 14:57 14,3 °C 89 % 1025,2 hPa 0,0 mm 0,0 km/h (0 Bft) O 98 ° 0 min 0,000 mm 1,2 UV-I 142 W/m² 12,5 °C 14,3 °C 0,0 km/h (0 Bft)
21.08.2019 14:58 14,3 °C 88 % 1025,2 hPa 0,0 mm 0,1 km/h (0 Bft) O 98 ° 0 min 0,000 mm 1,3 UV-I 148 W/m² 12,3 °C 14,3 °C 1,6 km/h (1 Bft)
21.08.2019 14:59 14,3 °C 89 % 1025,2 hPa 0,0 mm 3,8 km/h (1 Bft) NO 55 ° 0 min 0,000 mm 1,3 UV-I 151 W/m² 12,5 °C 14,3 °C 8,0 km/h (2 Bft)
21.08.2019 15:00 14,4 °C 90 % 1025,2 hPa 0,0 mm 4,7 km/h (1 Bft) O-NO 71 ° 0 min 0,000 mm 1,3 UV-I 155 W/m² 12,8 °C 14,4 °C 8,0 km/h (2 Bft)
21.08.2019 15:01 14,4 °C 90 % 1025,2 hPa 0,0 mm 1,8 km/h (1 Bft) O-NO 63 ° 0 min 0,102 mm 1,3 UV-I 156 W/m² 12,8 °C 14,4 °C 4,8 km/h (1 Bft)
21.08.2019 15:02 14,4 °C 90 % 1025,2 hPa 0,0 mm 3,6 km/h (1 Bft) O-SO 119 ° 0 min 0,000 mm 1,3 UV-I 153 W/m² 12,8 °C 14,4 °C 6,4 km/h (2 Bft)
21.08.2019 15:03 14,4 °C 90 % 1025,2 hPa 0,0 mm 0,0 km/h (0 Bft) O-SO 119 ° 0 min 0,000 mm 1,2 UV-I 148 W/m² 12,8 °C 14,4 °C 0,0 km/h (0 Bft)
21.08.2019 15:04 14,4 °C 90 % 1025,2 hPa 0,0 mm 1,0 km/h (0 Bft) O-SO 109 ° 0 min 0,000 mm 1,2 UV-I 141 W/m² 12,8 °C 14,4 °C 3,2 km/h (1 Bft)
21.08.2019 15:05 14,4 °C 90 % 1025,2 hPa 0,2 mm 1,4 km/h (1 Bft) O 83 ° 0 min 0,000 mm 1,1 UV-I 134 W/m² 12,8 °C 14,4 °C 3,2 km/h (1 Bft)
21.08.2019 15:06 14,4 °C 90 % 1025,2 hPa 0,0 mm 1,0 km/h (0 Bft) O 83 ° 0 min 0,000 mm 1,1 UV-I 128 W/m² 12,8 °C 14,4 °C 1,6 km/h (1 Bft)
21.08.2019 15:07 14,4 °C 90 % 1025,2 hPa 0,0 mm 3,5 km/h (1 Bft) O 86 ° 0 min 0,000 mm 1,0 UV-I 120 W/m² 12,8 °C 14,4 °C 6,4 km/h (2 Bft)
21.08.2019 15:08 14,4 °C 90 % 1025,2 hPa 0,0 mm 2,8 km/h (1 Bft) O 86 ° 0 min 0,000 mm 0,9 UV-I 107 W/m² 12,8 °C 14,4 °C 4,8 km/h (1 Bft)
21.08.2019 15:09 14,4 °C 89 % 1025,3 hPa 0,0 mm 0,7 km/h (0 Bft) O 86 ° 0 min 0,000 mm 0,8 UV-I 104 W/m² 12,6 °C 14,4 °C 3,2 km/h (1 Bft)
21.08.2019 15:10 14,3 °C 89 % 1025,2 hPa 0,0 mm 2,9 km/h (1 Bft) O-NO 61 ° 0 min 0,000 mm 0,8 UV-I 100 W/m² 12,5 °C 14,3 °C 9,7 km/h (2 Bft)
21.08.2019 15:11 14,4 °C 89 % 1025,2 hPa 0,0 mm 6,4 km/h (2 Bft) O-NO 76 ° 0 min 0,000 mm 0,8 UV-I 98 W/m² 12,6 °C 14,4 °C 9,7 km/h (2 Bft)
21.08.2019 15:12 14,4 °C 89 % 1025,3 hPa 0,0 mm 3,8 km/h (1 Bft) SO 143 ° 0 min 0,000 mm 0,8 UV-I 97 W/m² 12,6 °C 14,4 °C 6,4 km/h (2 Bft)
21.08.2019 15:13 14,4 °C 89 % 1025,3 hPa 0,0 mm 5,4 km/h (1 Bft) O 83 ° 0 min 0,000 mm 0,8 UV-I 95 W/m² 12,6 °C 14,4 °C 8,0 km/h (2 Bft)
21.08.2019 15:14 14,3 °C 89 % 1025,3 hPa 0,0 mm 2,1 km/h (1 Bft) O-NO 78 ° 0 min 0,000 mm 0,8 UV-I 91 W/m² 12,5 °C 14,3 °C 4,8 km/h (1 Bft)
21.08.2019 15:15 14,3 °C 89 % 1025,3 hPa 0,0 mm 2,2 km/h (1 Bft) O 80 ° 0 min 0,000 mm 0,7 UV-I 88 W/m² 12,5 °C 14,3 °C 6,4 km/h (2 Bft)
21.08.2019 15:16 14,2 °C 89 % 1025,3 hPa 0,0 mm 5,5 km/h (1 Bft) O-NO 71 ° 0 min 0,000 mm 0,7 UV-I 88 W/m² 12,4 °C 14,2 °C 8,0 km/h (2 Bft)
21.08.2019 15:17 14,2 °C 89 % 1025,3 hPa 0,0 mm 2,9 km/h (1 Bft) O-NO 71 ° 0 min 0,000 mm 0,7 UV-I 90 W/m² 12,4 °C 14,2 °C 4,8 km/h (1 Bft)
21.08.2019 15:18 14,2 °C 89 % 1025,3 hPa 0,0 mm 0,8 km/h (0 Bft) NO 49 ° 0 min 0,000 mm 0,8 UV-I 95 W/m² 12,4 °C 14,2 °C 3,2 km/h (1 Bft)
21.08.2019 15:19 14,2 °C 89 % 1025,3 hPa 0,0 mm 0,2 km/h (0 Bft) NO 49 ° 0 min 0,000 mm 0,8 UV-I 98 W/m² 12,4 °C 14,2 °C 1,6 km/h (1 Bft)
21.08.2019 15:20 14,3 °C 90 % 1025,3 hPa 0,0 mm 0,0 km/h (0 Bft) NO 49 ° 0 min 0,000 mm 0,8 UV-I 104 W/m² 12,7 °C 14,3 °C 0,0 km/h (0 Bft)
21.08.2019 15:21 14,3 °C 89 % 1025,3 hPa 0,0 mm 2,9 km/h (1 Bft) O 99 ° 0 min 0,000 mm 0,8 UV-I 104 W/m² 12,5 °C 14,3 °C 6,4 km/h (2 Bft)
21.08.2019 15:22 14,3 °C 90 % 1025,3 hPa 0,0 mm 3,2 km/h (1 Bft) NO 34 ° 0 min 0,000 mm 0,8 UV-I 104 W/m² 12,7 °C 14,3 °C 6,4 km/h (2 Bft)
21.08.2019 15:23 14,3 °C 89 % 1025,3 hPa 0,0 mm 4,2 km/h (1 Bft) NO 56 ° 0 min 0,000 mm 0,8 UV-I 102 W/m² 12,5 °C 14,3 °C 9,7 km/h (2 Bft)
21.08.2019 15:24 14,2 °C 89 % 1025,3 hPa 0,0 mm 0,6 km/h (0 Bft) NO 56 ° 0 min 0,000 mm 0,8 UV-I 100 W/m² 12,4 °C 14,2 °C 1,6 km/h (1 Bft)
21.08.2019 15:25 14,2 °C 89 % 1025,3 hPa 0,0 mm 0,0 km/h (0 Bft) NO 56 ° 0 min 0,000 mm 0,8 UV-I 97 W/m² 12,4 °C 14,2 °C 0,0 km/h (0 Bft)
21.08.2019 15:26 14,2 °C 89 % 1025,3 hPa 0,0 mm 0,6 km/h (0 Bft) O-NO 69 ° 0 min 0,000 mm 0,7 UV-I 90 W/m² 12,4 °C 14,2 °C 4,8 km/h (1 Bft)
21.08.2019 15:27 14,2 °C 89 % 1025,2 hPa 0,0 mm 5,7 km/h (1 Bft) O 81 ° 0 min 0,000 mm 0,7 UV-I 84 W/m² 12,4 °C 14,2 °C 8,0 km/h (2 Bft)
21.08.2019 15:28 14,2 °C 89 % 1025,3 hPa 0,0 mm 3,6 km/h (1 Bft) O-NO 69 ° 0 min 0,000 mm 0,7 UV-I 84 W/m² 12,4 °C 14,2 °C 4,8 km/h (1 Bft)
21.08.2019 15:29 14,2 °C 88 % 1025,2 hPa 0,0 mm 0,1 km/h (0 Bft) O-NO 69 ° 0 min 0,000 mm 0,7 UV-I 88 W/m² 12,2 °C 14,2 °C 1,6 km/h (1 Bft)
21.08.2019 15:30 14,1 °C 89 % 1025,3 hPa 0,0 mm 3,5 km/h (1 Bft) O-NO 69 ° 0 min 0,000 mm 0,8 UV-I 95 W/m² 12,3 °C 14,1 °C 8,0 km/h (2 Bft)
21.08.2019 15:31 14,1 °C 89 % 1025,3 hPa 0,0 mm 6,2 km/h (2 Bft) O 89 ° 0 min 0,000 mm 0,8 UV-I 102 W/m² 12,3 °C 14,1 °C 11,3 km/h (2 Bft)
21.08.2019 15:32 14,2 °C 89 % 1025,3 hPa 0,0 mm 7,1 km/h (2 Bft) O-NO 78 ° 0 min 0,000 mm 0,9 UV-I 113 W/m² 12,4 °C 14,2 °C 9,7 km/h (2 Bft)
21.08.2019 15:33 14,2 °C 89 % 1025,3 hPa 0,0 mm 0,6 km/h (0 Bft) O-NO 78 ° 0 min 0,000 mm 1,0 UV-I 120 W/m² 12,4 °C 14,2 °C 3,2 km/h (1 Bft)
21.08.2019 15:34 14,2 °C 89 % 1025,3 hPa 0,0 mm 5,1 km/h (1 Bft) O 88 ° 0 min 0,000 mm 1,1 UV-I 132 W/m² 12,4 °C 14,2 °C 11,3 km/h (2 Bft)
21.08.2019 15:35 14,2 °C 89 % 1025,3 hPa 0,0 mm 5,3 km/h (1 Bft) O-NO 58 ° 0 min 0,000 mm 1,2 UV-I 146 W/m² 12,4 °C 14,2 °C 11,3 km/h (2 Bft)
21.08.2019 15:36 14,2 °C 89 % 1025,3 hPa 0,0 mm 5,8 km/h (2 Bft) NO 40 ° 0 min 0,000 mm 1,3 UV-I 156 W/m² 12,4 °C 14,2 °C 11,3 km/h (2 Bft)
21.08.2019 15:37 14,2 °C 89 % 1025,3 hPa 0,0 mm 2,1 km/h (1 Bft) SO 129 ° 0 min 0,000 mm 1,3 UV-I 167 W/m² 12,4 °C 14,2 °C 3,2 km/h (1 Bft)
21.08.2019 15:38 14,2 °C 89 % 1025,3 hPa 0,0 mm 2,0 km/h (1 Bft) O-NO 57 ° 0 min 0,000 mm 1,3 UV-I 167 W/m² 12,4 °C 14,2 °C 6,4 km/h (2 Bft)
21.08.2019 15:39 14,2 °C 89 % 1025,3 hPa 0,0 mm 0,9 km/h (0 Bft) O-NO 58 ° 0 min 0,000 mm 1,3 UV-I 169 W/m² 12,4 °C 14,2 °C 3,2 km/h (1 Bft)
21.08.2019 15:40 14,3 °C 89 % 1025,3 hPa 0,0 mm 2,4 km/h (1 Bft) O-NO 59 ° 0 min 0,000 mm 1,3 UV-I 169 W/m² 12,5 °C 14,3 °C 3,2 km/h (1 Bft)
21.08.2019 15:41 14,3 °C 89 % 1025,2 hPa 0,0 mm 3,6 km/h (1 Bft) SO 124 ° 0 min 0,000 mm 1,4 UV-I 169 W/m² 12,5 °C 14,3 °C 9,7 km/h (2 Bft)
21.08.2019 15:42 14,3 °C 88 % 1025,3 hPa 0,0 mm 4,7 km/h (1 Bft) NO 44 ° 0 min 0,000 mm 1,4 UV-I 169 W/m² 12,3 °C 14,3 °C 6,4 km/h (2 Bft)
21.08.2019 15:43 14,3 °C 88 % 1025,3 hPa 0,0 mm 3,7 km/h (1 Bft) SO 130 ° 0 min 0,000 mm 1,5 UV-I 192 W/m² 12,3 °C 14,3 °C 6,4 km/h (2 Bft)
21.08.2019 15:44 14,3 °C 88 % 1025,3 hPa 0,0 mm 3,7 km/h (1 Bft) O 101 ° 0 min 0,000 mm 1,6 UV-I 193 W/m² 12,3 °C 14,3 °C 6,4 km/h (2 Bft)
21.08.2019 15:45 14,3 °C 88 % 1025,3 hPa 0,0 mm 0,9 km/h (0 Bft) O-NO 61 ° 0 min 0,000 mm 1,5 UV-I 193 W/m² 12,3 °C 14,3 °C 6,4 km/h (2 Bft)
21.08.2019 15:46 14,4 °C 88 % 1025,2 hPa 0,0 mm 9,5 km/h (2 Bft) O-NO 65 ° 0 min 0,000 mm 1,5 UV-I 190 W/m² 12,4 °C 14,4 °C 12,9 km/h (3 Bft)
21.08.2019 15:47 14,4 °C 88 % 1025,2 hPa 0,0 mm 7,7 km/h (2 Bft) NO 40 ° 0 min 0,000 mm 1,4 UV-I 183 W/m² 12,4 °C 14,4 °C 11,3 km/h (2 Bft)
21.08.2019 15:48 14,4 °C 87 % 1025,2 hPa 0,0 mm 5,2 km/h (1 Bft) O-NO 65 ° 0 min 0,000 mm 1,4 UV-I 178 W/m² 12,3 °C 14,4 °C 8,0 km/h (2 Bft)
21.08.2019 15:49 14,6 °C 88 % 1025,2 hPa 0,0 mm 4,3 km/h (1 Bft) O-SO 107 ° 0 min 0,000 mm 1,5 UV-I 188 W/m² 12,6 °C 14,6 °C 6,4 km/h (2 Bft)
21.08.2019 15:50 14,6 °C 89 % 1025,2 hPa 0,0 mm 6,5 km/h (2 Bft) N-NO 24 ° 0 min 0,000 mm 1,4 UV-I 185 W/m² 12,8 °C 14,6 °C 9,7 km/h (2 Bft)
21.08.2019 15:51 14,6 °C 88 % 1025,2 hPa 0,2 mm 7,4 km/h (2 Bft) O-NO 57 ° 0 min 0,000 mm 1,3 UV-I 169 W/m² 12,6 °C 14,6 °C 11,3 km/h (2 Bft)
21.08.2019 15:52 14,6 °C 88 % 1025,2 hPa 0,0 mm 4,2 km/h (1 Bft) O-NO 58 ° 0 min 0,000 mm 1,2 UV-I 158 W/m² 12,6 °C 14,6 °C 6,4 km/h (2 Bft)
21.08.2019 15:53 14,7 °C 87 % 1025,1 hPa 0,0 mm 3,2 km/h (1 Bft) O-NO 69 ° 0 min 0,000 mm 1,1 UV-I 146 W/m² 12,6 °C 14,7 °C 6,4 km/h (2 Bft)
21.08.2019 15:54 14,7 °C 87 % 1025,1 hPa 0,0 mm 4,8 km/h (1 Bft) O-NO 69 ° 0 min 0,000 mm 1,0 UV-I 137 W/m² 12,6 °C 14,7 °C 6,4 km/h (2 Bft)
21.08.2019 15:55 14,7 °C 87 % 1025,1 hPa 0,0 mm 2,0 km/h (1 Bft) N-NO 32 ° 0 min 0,000 mm 1,0 UV-I 128 W/m² 12,6 °C 14,7 °C 3,2 km/h (1 Bft)
21.08.2019 15:56 14,7 °C 87 % 1025,2 hPa 0,0 mm 5,2 km/h (1 Bft) O 95 ° 0 min 0,000 mm 1,0 UV-I 127 W/m² 12,6 °C 14,7 °C 6,4 km/h (2 Bft)
21.08.2019 15:57 14,7 °C 88 % 1025,2 hPa 0,0 mm 5,0 km/h (1 Bft) O-NO 64 ° 0 min 0,000 mm 1,0 UV-I 128 W/m² 12,7 °C 14,7 °C 6,4 km/h (2 Bft)
21.08.2019 15:58 14,7 °C 89 % 1025,2 hPa 0,0 mm 2,9 km/h (1 Bft) O-SO 109 ° 0 min 0,000 mm 1,1 UV-I 137 W/m² 12,9 °C 14,7 °C 4,8 km/h (1 Bft)
21.08.2019 15:59 14,7 °C 89 % 1025,2 hPa 0,0 mm 3,5 km/h (1 Bft) O 90 ° 0 min 0,000 mm 1,2 UV-I 149 W/m² 12,9 °C 14,7 °C 6,4 km/h (2 Bft)
21.08.2019 16:00 14,6 °C 88 % 1025,1 hPa 0,0 mm 0,3 km/h (0 Bft) O 90 ° 0 min 0,000 mm 1,3 UV-I 162 W/m² 12,6 °C 14,6 °C 3,2 km/h (1 Bft)
21.08.2019 16:01 14,6 °C 88 % 1025,2 hPa 0,0 mm 0,6 km/h (0 Bft) O-NO 71 ° 0 min 0,076 mm 1,4 UV-I 176 W/m² 12,6 °C 14,6 °C 3,2 km/h (1 Bft)
21.08.2019 16:02 14,6 °C 89 % 1025,2 hPa 0,0 mm 4,7 km/h (1 Bft) O-NO 59 ° 0 min 0,000 mm 1,4 UV-I 178 W/m² 12,8 °C 14,6 °C 8,0 km/h (2 Bft)
21.08.2019 16:03 14,7 °C 88 % 1025,2 hPa 0,0 mm 4,2 km/h (1 Bft) O-NO 67 ° 0 min 0,000 mm 1,4 UV-I 176 W/m² 12,7 °C 14,7 °C 6,4 km/h (2 Bft)
21.08.2019 16:04 14,7 °C 89 % 1025,2 hPa 0,0 mm 3,2 km/h (1 Bft) O 94 ° 0 min 0,000 mm 1,4 UV-I 176 W/m² 12,9 °C 14,7 °C 4,8 km/h (1 Bft)
21.08.2019 16:05 14,7 °C 88 % 1025,1 hPa 0,0 mm 2,7 km/h (1 Bft) NO 55 ° 0 min 0,000 mm 1,3 UV-I 172 W/m² 12,7 °C 14,7 °C 4,8 km/h (1 Bft)
21.08.2019 16:06 14,7 °C 88 % 1025,2 hPa 0,0 mm 2,4 km/h (1 Bft) NO 55 ° 0 min 0,000 mm 1,3 UV-I 165 W/m² 12,7 °C 14,7 °C 4,8 km/h (1 Bft)
21.08.2019 16:07 14,7 °C 88 % 1025,1 hPa 0,0 mm 0,0 km/h (0 Bft) NO 55 ° 0 min 0,000 mm 1,2 UV-I 144 W/m² 12,7 °C 14,7 °C 0,0 km/h (0 Bft)
21.08.2019 16:08 14,7 °C 87 % 1025,2 hPa 0,0 mm 0,0 km/h (0 Bft) NO 54 ° 0 min 0,000 mm 1,0 UV-I 135 W/m² 12,6 °C 14,7 °C 0,0 km/h (0 Bft)
21.08.2019 16:09 14,7 °C 88 % 1025,2 hPa 0,0 mm 0,0 km/h (0 Bft) O-NO 67 ° 0 min 0,000 mm 1,0 UV-I 132 W/m² 12,7 °C 14,7 °C 0,0 km/h (0 Bft)
21.08.2019 16:10 14,8 °C 88 % 1025,2 hPa 0,0 mm 1,1 km/h (1 Bft) O-NO 66 ° 0 min 0,000 mm 1,0 UV-I 128 W/m² 12,8 °C 14,8 °C 3,2 km/h (1 Bft)
21.08.2019 16:11 14,8 °C 88 % 1025,2 hPa 0,0 mm 2,0 km/h (1 Bft) SO 128 ° 0 min 0,000 mm 1,0 UV-I 127 W/m² 12,8 °C 14,8 °C 3,2 km/h (1 Bft)
21.08.2019 16:12 14,8 °C 88 % 1025,2 hPa 0,0 mm 2,2 km/h (1 Bft) NO 46 ° 0 min 0,000 mm 1,0 UV-I 132 W/m² 12,8 °C 14,8 °C 4,8 km/h (1 Bft)
21.08.2019 16:13 14,7 °C 88 % 1025,1 hPa 0,0 mm 0,1 km/h (0 Bft) O-NO 66 ° 0 min 0,000 mm 1,0 UV-I 139 W/m² 12,7 °C 14,7 °C 3,2 km/h (1 Bft)
21.08.2019 16:14 14,8 °C 88 % 1025,1 hPa 0,0 mm 3,3 km/h (1 Bft) O-NO 76 ° 0 min 0,000 mm 1,1 UV-I 144 W/m² 12,8 °C 14,8 °C 4,8 km/h (1 Bft)
21.08.2019 16:15 14,8 °C 87 % 1025,2 hPa 0,0 mm 1,9 km/h (1 Bft) O-NO 65 ° 0 min 0,000 mm 1,1 UV-I 141 W/m² 12,7 °C 14,8 °C 4,8 km/h (1 Bft)
21.08.2019 16:16 14,8 °C 87 % 1025,1 hPa 0,0 mm 2,1 km/h (1 Bft) O-NO 65 ° 0 min 0,000 mm 1,0 UV-I 134 W/m² 12,7 °C 14,8 °C 3,2 km/h (1 Bft)
21.08.2019 16:17 14,8 °C 87 % 1025,1 hPa 0,0 mm 1,3 km/h (1 Bft) NO 56 ° 0 min 0,000 mm 1,0 UV-I 128 W/m² 12,7 °C 14,8 °C 4,8 km/h (1 Bft)
21.08.2019 16:18 14,8 °C 87 % 1025,1 hPa 0,0 mm 4,3 km/h (1 Bft) O 90 ° 0 min 0,000 mm 1,0 UV-I 127 W/m² 12,7 °C 14,8 °C 4,8 km/h (1 Bft)
21.08.2019 16:19 14,8 °C 87 % 1025,1 hPa 0,0 mm 3,1 km/h (1 Bft) O 82 ° 0 min 0,000 mm 1,0 UV-I 132 W/m² 12,7 °C 14,8 °C 6,4 km/h (2 Bft)
21.08.2019 16:20 14,7 °C 88 % 1025,1 hPa 0,0 mm 2,4 km/h (1 Bft) O 91 ° 0 min 0,000 mm 1,1 UV-I 139 W/m² 12,7 °C 14,7 °C 4,8 km/h (1 Bft)
21.08.2019 16:21 14,7 °C 88 % 1025,1 hPa 0,0 mm 3,8 km/h (1 Bft) O 79 ° 0 min 0,000 mm 1,1 UV-I 142 W/m² 12,7 °C 14,7 °C 6,4 km/h (2 Bft)
21.08.2019 16:22 14,7 °C 87 % 1025,1 hPa 0,0 mm 0,9 km/h (0 Bft) O 79 ° 0 min 0,000 mm 1,1 UV-I 144 W/m² 12,6 °C 14,7 °C 3,2 km/h (1 Bft)
21.08.2019 16:23 14,7 °C 87 % 1025,1 hPa 0,0 mm 2,0 km/h (1 Bft) NO 43 ° 0 min 0,000 mm 1,1 UV-I 146 W/m² 12,6 °C 14,7 °C 4,8 km/h (1 Bft)
21.08.2019 16:24 14,6 °C 88 % 1025,2 hPa 0,0 mm 3,9 km/h (1 Bft) SO 133 ° 0 min 0,000 mm 1,1 UV-I 142 W/m² 12,6 °C 14,6 °C 6,4 km/h (2 Bft)
21.08.2019 16:25 14,6 °C 88 % 1025,1 hPa 0,0 mm 3,5 km/h (1 Bft) O 90 ° 0 min 0,000 mm 1,1 UV-I 141 W/m² 12,6 °C 14,6 °C 4,8 km/h (1 Bft)
21.08.2019 16:26 14,6 °C 87 % 1025,1 hPa 0,0 mm 4,3 km/h (1 Bft) N-NO 28 ° 0 min 0,000 mm 1,1 UV-I 139 W/m² 12,5 °C 14,6 °C 4,8 km/h (1 Bft)
21.08.2019 16:27 14,6 °C 87 % 1025,1 hPa 0,0 mm 2,9 km/h (1 Bft) NO 51 ° 0 min 0,000 mm 1,1 UV-I 139 W/m² 12,5 °C 14,6 °C 4,8 km/h (1 Bft)
21.08.2019 16:28 14,6 °C 87 % 1025,2 hPa 0,0 mm 6,4 km/h (2 Bft) SO 146 ° 0 min 0,000 mm 1,1 UV-I 137 W/m² 12,5 °C 14,6 °C 9,7 km/h (2 Bft)
21.08.2019 16:29 14,6 °C 87 % 1025,2 hPa 0,0 mm 2,3 km/h (1 Bft) SO 141 ° 0 min 0,000 mm 1,0 UV-I 135 W/m² 12,5 °C 14,6 °C 4,8 km/h (1 Bft)
21.08.2019 16:30 14,6 °C 87 % 1025,2 hPa 0,0 mm 1,7 km/h (1 Bft) SO 142 ° 0 min 0,000 mm 1,0 UV-I 134 W/m² 12,5 °C 14,6 °C 4,8 km/h (1 Bft)
21.08.2019 16:31 14,7 °C 87 % 1025,2 hPa 0,0 mm 0,1 km/h (0 Bft) SO 142 ° 0 min 0,000 mm 1,0 UV-I 134 W/m² 12,6 °C 14,7 °C 1,6 km/h (1 Bft)
21.08.2019 16:32 14,7 °C 88 % 1025,2 hPa 0,0 mm 3,6 km/h (1 Bft) O-SO 118 ° 0 min 0,000 mm 1,0 UV-I 134 W/m² 12,7 °C 14,7 °C 11,3 km/h (2 Bft)
21.08.2019 16:33 14,7 °C 88 % 1025,1 hPa 0,0 mm 2,0 km/h (1 Bft) O-SO 114 ° 0 min 0,000 mm 1,1 UV-I 135 W/m² 12,7 °C 14,7 °C 4,8 km/h (1 Bft)
21.08.2019 16:34 14,7 °C 88 % 1025,1 hPa 0,0 mm 5,1 km/h (1 Bft) O 84 ° 0 min 0,000 mm 1,1 UV-I 137 W/m² 12,7 °C 14,7 °C 8,0 km/h (2 Bft)
21.08.2019 16:35 14,7 °C 88 % 1025,1 hPa 0,2 mm 5,2 km/h (1 Bft) O-NO 65 ° 0 min 0,000 mm 1,1 UV-I 137 W/m² 12,7 °C 14,7 °C 6,4 km/h (2 Bft)
21.08.2019 16:36 14,7 °C 89 % 1025,1 hPa 0,0 mm 5,2 km/h (1 Bft) O-NO 74 ° 0 min 0,000 mm 1,0 UV-I 132 W/m² 12,9 °C 14,7 °C 9,7 km/h (2 Bft)
21.08.2019 16:37 14,7 °C 89 % 1025,1 hPa 0,0 mm 1,0 km/h (0 Bft) O-NO 74 ° 0 min 0,000 mm 1,0 UV-I 127 W/m² 12,9 °C 14,7 °C 3,2 km/h (1 Bft)
21.08.2019 16:38 14,6 °C 88 % 1025,1 hPa 0,0 mm 0,3 km/h (0 Bft) O-NO 74 ° 0 min 0,000 mm 0,9 UV-I 120 W/m² 12,6 °C 14,6 °C 3,2 km/h (1 Bft)
21.08.2019 16:39 14,6 °C 88 % 1025,1 hPa 0,0 mm 0,0 km/h (0 Bft) O-NO 74 ° 0 min 0,000 mm 0,9 UV-I 114 W/m² 12,6 °C 14,6 °C 0,0 km/h (0 Bft)
21.08.2019 16:40 14,6 °C 88 % 1025,1 hPa 0,0 mm 1,0 km/h (0 Bft) O-NO 74 ° 0 min 0,000 mm 0,8 UV-I 109 W/m² 12,6 °C 14,6 °C 3,2 km/h (1 Bft)
21.08.2019 16:41 14,6 °C 88 % 1025,1 hPa 0,0 mm 1,1 km/h (1 Bft) O-NO 74 ° 0 min 0,000 mm 0,8 UV-I 105 W/m² 12,6 °C 14,6 °C 3,2 km/h (1 Bft)
21.08.2019 16:42 14,6 °C 88 % 1025,1 hPa 0,0 mm 0,7 km/h (0 Bft) O-NO 74 ° 0 min 0,000 mm 0,8 UV-I 102 W/m² 12,6 °C 14,6 °C 1,6 km/h (1 Bft)
21.08.2019 16:43 14,6 °C 88 % 1025,2 hPa 0,0 mm 0,3 km/h (0 Bft) O-NO 74 ° 0 min 0,000 mm 0,8 UV-I 102 W/m² 12,6 °C 14,6 °C 1,6 km/h (1 Bft)
21.08.2019 16:44 14,6 °C 87 % 1025,1 hPa 0,0 mm 1,7 km/h (1 Bft) O-SO 106 ° 0 min 0,000 mm 0,8 UV-I 102 W/m² 12,5 °C 14,6 °C 4,8 km/h (1 Bft)
21.08.2019 16:45 14,6 °C 88 % 1025,1 hPa 0,0 mm 3,5 km/h (1 Bft) O-SO 105 ° 0 min 0,000 mm 0,7 UV-I 102 W/m² 12,6 °C 14,6 °C 6,4 km/h (2 Bft)
21.08.2019 16:46 14,6 °C 87 % 1025,2 hPa 0,0 mm 1,0 km/h (0 Bft) NO 53 ° 0 min 0,000 mm 0,7 UV-I 100 W/m² 12,5 °C 14,6 °C 3,2 km/h (1 Bft)
21.08.2019 16:47 14,6 °C 87 % 1025,1 hPa 0,0 mm 3,4 km/h (1 Bft) O-SO 109 ° 0 min 0,000 mm 0,7 UV-I 98 W/m² 12,5 °C 14,6 °C 6,4 km/h (2 Bft)
21.08.2019 16:48 14,6 °C 88 % 1025,1 hPa 0,0 mm 2,4 km/h (1 Bft) NO 52 ° 0 min 0,000 mm 0,7 UV-I 91 W/m² 12,6 °C 14,6 °C 4,8 km/h (1 Bft)
21.08.2019 16:49 14,6 °C 88 % 1025,0 hPa 0,0 mm 3,2 km/h (1 Bft) O-NO 61 ° 0 min 0,000 mm 0,7 UV-I 90 W/m² 12,6 °C 14,6 °C 6,4 km/h (2 Bft)
21.08.2019 16:50 14,6 °C 88 % 1025,1 hPa 0,0 mm 2,3 km/h (1 Bft) O-NO 72 ° 0 min 0,000 mm 0,7 UV-I 93 W/m² 12,6 °C 14,6 °C 4,8 km/h (1 Bft)
21.08.2019 16:51 14,6 °C 88 % 1025,1 hPa 0,0 mm 1,3 km/h (1 Bft) O-NO 75 ° 0 min 0,000 mm 0,7 UV-I 102 W/m² 12,6 °C 14,6 °C 3,2 km/h (1 Bft)
21.08.2019 16:52 14,6 °C 88 % 1025,1 hPa 0,0 mm 1,1 km/h (1 Bft) O-NO 75 ° 0 min 0,000 mm 0,8 UV-I 111 W/m² 12,6 °C 14,6 °C 1,6 km/h (1 Bft)
21.08.2019 16:53 14,6 °C 87 % 1025,1 hPa 0,0 mm 0,2 km/h (0 Bft) O-NO 75 ° 0 min 0,000 mm 0,9 UV-I 120 W/m² 12,5 °C 14,6 °C 1,6 km/h (1 Bft)
21.08.2019 16:54 14,6 °C 88 % 1025,0 hPa 0,0 mm 2,3 km/h (1 Bft) S-SO 151 ° 0 min 0,000 mm 0,9 UV-I 121 W/m² 12,6 °C 14,6 °C 6,4 km/h (2 Bft)
21.08.2019 16:55 14,6 °C 88 % 1025,2 hPa 0,0 mm 2,3 km/h (1 Bft) S-SO 152 ° 0 min 0,000 mm 0,9 UV-I 121 W/m² 12,6 °C 14,6 °C 4,8 km/h (1 Bft)
21.08.2019 16:56 14,6 °C 88 % 1025,2 hPa 0,0 mm 0,0 km/h (0 Bft) S-SO 152 ° 0 min 0,000 mm 0,9 UV-I 120 W/m² 12,6 °C 14,6 °C 0,0 km/h (0 Bft)
21.08.2019 16:57 14,6 °C 88 % 1025,2 hPa 0,0 mm 0,0 km/h (0 Bft) S-SO 149 ° 0 min 0,000 mm 0,9 UV-I 120 W/m² 12,6 °C 14,6 °C 0,0 km/h (0 Bft)
21.08.2019 16:58 14,5 °C 88 % 1025,2 hPa 0,0 mm 2,5 km/h (1 Bft) O 86 ° 0 min 0,000 mm 0,9 UV-I 120 W/m² 12,5 °C 14,5 °C 8,0 km/h (2 Bft)
21.08.2019 16:59 14,6 °C 88 % 1025,1 hPa 0,0 mm 3,1 km/h (1 Bft) O-NO 75 ° 0 min 0,000 mm 0,9 UV-I 123 W/m² 12,6 °C 14,6 °C 4,8 km/h (1 Bft)
21.08.2019 17:00 14,6 °C 88 % 1025,1 hPa 0,0 mm 1,2 km/h (1 Bft) O-SO 104 ° 0 min 0,000 mm 0,9 UV-I 125 W/m² 12,6 °C 14,6 °C 3,2 km/h (1 Bft)
21.08.2019 17:01 14,6 °C 88 % 1025,1 hPa 0,0 mm 1,1 km/h (1 Bft) O-SO 104 ° 0 min 0,076 mm 0,9 UV-I 123 W/m² 12,6 °C 14,6 °C 3,2 km/h (1 Bft)
21.08.2019 17:02 14,6 °C 88 % 1025,2 hPa 0,0 mm 1,0 km/h (0 Bft) O-SO 104 ° 0 min 0,000 mm 0,9 UV-I 121 W/m² 12,6 °C 14,6 °C 3,2 km/h (1 Bft)
21.08.2019 17:03 14,6 °C 88 % 1025,2 hPa 0,0 mm 0,0 km/h (0 Bft) O-SO 104 ° 0 min 0,000 mm 0,9 UV-I 120 W/m² 12,6 °C 14,6 °C 0,0 km/h (0 Bft)
21.08.2019 17:04 14,7 °C 88 % 1025,2 hPa 0,0 mm 0,8 km/h (0 Bft) O-SO 104 ° 0 min 0,000 mm 0,8 UV-I 114 W/m² 12,7 °C 14,7 °C 1,6 km/h (1 Bft)
21.08.2019 17:05 14,7 °C 88 % 1025,2 hPa 0,0 mm 0,3 km/h (0 Bft) O-SO 104 ° 0 min 0,000 mm 0,8 UV-I 105 W/m² 12,7 °C 14,7 °C 1,6 km/h (1 Bft)
21.08.2019 17:06 14,7 °C 88 % 1025,2 hPa 0,0 mm 0,6 km/h (0 Bft) O 101 ° 0 min 0,000 mm 0,7 UV-I 98 W/m² 12,7 °C 14,7 °C 3,2 km/h (1 Bft)
21.08.2019 17:07 14,7 °C 88 % 1025,1 hPa 0,0 mm 0,0 km/h (0 Bft) O 101 ° 0 min 0,000 mm 0,6 UV-I 91 W/m² 12,7 °C 14,7 °C 0,0 km/h (0 Bft)
21.08.2019 17:08 14,7 °C 89 % 1025,2 hPa 0,0 mm 0,0 km/h (0 Bft) O 101 ° 0 min 0,000 mm 0,6 UV-I 86 W/m² 12,9 °C 14,7 °C 0,0 km/h (0 Bft)
21.08.2019 17:09 14,7 °C 88 % 1025,2 hPa 0,0 mm 0,9 km/h (0 Bft) NO 54 ° 0 min 0,000 mm 0,6 UV-I 83 W/m² 12,7 °C 14,7 °C 4,8 km/h (1 Bft)
21.08.2019 17:10 14,7 °C 88 % 1025,2 hPa 0,0 mm 3,4 km/h (1 Bft) O-SO 113 ° 0 min 0,000 mm 0,6 UV-I 83 W/m² 12,7 °C 14,7 °C 6,4 km/h (2 Bft)
21.08.2019 17:11 14,6 °C 87 % 1025,2 hPa 0,0 mm 2,2 km/h (1 Bft) O-SO 103 ° 0 min 0,000 mm 0,5 UV-I 77 W/m² 12,5 °C 14,6 °C 4,8 km/h (1 Bft)
21.08.2019 17:12 14,6 °C 87 % 1025,2 hPa 0,0 mm 0,9 km/h (0 Bft) O-SO 103 ° 0 min 0,000 mm 0,5 UV-I 76 W/m² 12,5 °C 14,6 °C 4,8 km/h (1 Bft)
21.08.2019 17:13 14,6 °C 87 % 1025,2 hPa 0,0 mm 0,0 km/h (0 Bft) O-SO 103 ° 0 min 0,000 mm 0,5 UV-I 77 W/m² 12,5 °C 14,6 °C 0,0 km/h (0 Bft)
21.08.2019 17:14 14,6 °C 88 % 1025,2 hPa 0,0 mm 0,0 km/h (0 Bft) O-SO 103 ° 0 min 0,000 mm 0,5 UV-I 77 W/m² 12,6 °C 14,6 °C 0,0 km/h (0 Bft)
21.08.2019 17:15 14,6 °C 88 % 1025,2 hPa 0,0 mm 0,0 km/h (0 Bft) O-SO 103 ° 0 min 0,000 mm 0,5 UV-I 76 W/m² 12,6 °C 14,6 °C 0,0 km/h (0 Bft)
21.08.2019 17:16 14,6 °C 88 % 1025,2 hPa 0,0 mm 0,0 km/h (0 Bft) O-SO 103 ° 0 min 0,000 mm 0,5 UV-I 74 W/m² 12,6 °C 14,6 °C 0,0 km/h (0 Bft)
21.08.2019 17:17 14,6 °C 88 % 1025,2 hPa 0,0 mm 1,3 km/h (1 Bft) O-NO 58 ° 0 min 0,000 mm 0,5 UV-I 77 W/m² 12,6 °C 14,6 °C 4,8 km/h (1 Bft)
21.08.2019 17:18 14,6 °C 88 % 1025,2 hPa 0,0 mm 3,2 km/h (1 Bft) NO 55 ° 0 min 0,000 mm 0,6 UV-I 81 W/m² 12,6 °C 14,6 °C 6,4 km/h (2 Bft)
21.08.2019 17:19 14,6 °C 89 % 1025,2 hPa 0,0 mm 1,5 km/h (1 Bft) NO 55 ° 0 min 0,000 mm 0,6 UV-I 86 W/m² 12,8 °C 14,6 °C 3,2 km/h (1 Bft)
21.08.2019 17:20 14,5 °C 89 % 1025,2 hPa 0,0 mm 0,0 km/h (0 Bft) NO 55 ° 0 min 0,000 mm 0,6 UV-I 90 W/m² 12,7 °C 14,5 °C 0,0 km/h (0 Bft)
21.08.2019 17:21 14,5 °C 89 % 1025,2 hPa 0,0 mm 0,5 km/h (0 Bft) NO 41 ° 0 min 0,000 mm 0,6 UV-I 91 W/m² 12,7 °C 14,5 °C 4,8 km/h (1 Bft)
21.08.2019 17:22 14,4 °C 89 % 1025,2 hPa 0,0 mm 4,0 km/h (1 Bft) NO 51 ° 0 min 0,000 mm 0,6 UV-I 91 W/m² 12,6 °C 14,4 °C 6,4 km/h (2 Bft)
21.08.2019 17:23 14,4 °C 89 % 1025,2 hPa 0,0 mm 1,4 km/h (1 Bft) N-NO 33 ° 0 min 0,000 mm 0,6 UV-I 90 W/m² 12,6 °C 14,4 °C 3,2 km/h (1 Bft)
21.08.2019 17:24 14,4 °C 90 % 1025,2 hPa 0,0 mm 0,6 km/h (0 Bft) N-NO 33 ° 0 min 0,000 mm 0,6 UV-I 86 W/m² 12,8 °C 14,4 °C 1,6 km/h (1 Bft)
21.08.2019 17:25 14,5 °C 90 % 1025,2 hPa 0,0 mm 0,0 km/h (0 Bft) N-NO 33 ° 0 min 0,000 mm 0,6 UV-I 88 W/m² 12,9 °C 14,5 °C 0,0 km/h (0 Bft)
21.08.2019 17:26 14,5 °C 90 % 1025,2 hPa 0,0 mm 4,2 km/h (1 Bft) NO 55 ° 0 min 0,000 mm 0,6 UV-I 88 W/m² 12,9 °C 14,5 °C 6,4 km/h (2 Bft)
21.08.2019 17:27 14,5 °C 90 % 1025,2 hPa 0,0 mm 1,5 km/h (1 Bft) NO 51 ° 0 min 0,000 mm 0,7 UV-I 93 W/m² 12,9 °C 14,5 °C 4,8 km/h (1 Bft)
21.08.2019 17:28 14,5 °C 89 % 1025,2 hPa 0,0 mm 0,4 km/h (0 Bft) NO 45 ° 0 min 0,000 mm 0,7 UV-I 95 W/m² 12,7 °C 14,5 °C 3,2 km/h (1 Bft)
21.08.2019 17:29 14,6 °C 90 % 1025,1 hPa 0,0 mm 3,1 km/h (1 Bft) O-NO 59 ° 0 min 0,000 mm 0,7 UV-I 93 W/m² 13,0 °C 14,6 °C 6,4 km/h (2 Bft)
21.08.2019 17:30 14,6 °C 90 % 1025,2 hPa 0,0 mm 1,9 km/h (1 Bft) O-NO 59 ° 0 min 0,000 mm 0,6 UV-I 91 W/m² 13,0 °C 14,6 °C 4,8 km/h (1 Bft)
21.08.2019 17:31 14,6 °C 89 % 1025,2 hPa 0,0 mm 0,0 km/h (0 Bft) O-NO 59 ° 0 min 0,000 mm 0,6 UV-I 90 W/m² 12,8 °C 14,6 °C 0,0 km/h (0 Bft)
21.08.2019 17:32 14,6 °C 90 % 1025,1 hPa 0,0 mm 0,0 km/h (0 Bft) O-NO 59 ° 0 min 0,000 mm 0,6 UV-I 88 W/m² 13,0 °C 14,6 °C 0,0 km/h (0 Bft)
21.08.2019 17:33 14,6 °C 90 % 1025,1 hPa 0,0 mm 2,7 km/h (1 Bft) O-NO 59 ° 0 min 0,000 mm 0,6 UV-I 86 W/m² 13,0 °C 14,6 °C 4,8 km/h (1 Bft)
21.08.2019 17:34 14,6 °C 90 % 1025,1 hPa 0,0 mm 1,3 km/h (1 Bft) O-NO 59 ° 0 min 0,000 mm 0,6 UV-I 76 W/m² 13,0 °C 14,6 °C 3,2 km/h (1 Bft)
21.08.2019 17:35 14,6 °C 90 % 1025,1 hPa 0,0 mm 0,1 km/h (0 Bft) O-NO 59 ° 0 min 0,000 mm 0,5 UV-I 69 W/m² 13,0 °C 14,6 °C 1,6 km/h (1 Bft)
21.08.2019 17:36 14,6 °C 90 % 1025,1 hPa 0,0 mm 1,9 km/h (1 Bft) O-NO 59 ° 0 min 0,000 mm 0,0 UV-I 63 W/m² 13,0 °C 14,6 °C 3,2 km/h (1 Bft)
21.08.2019 17:37 14,6 °C 90 % 1025,1 hPa 0,2 mm 2,6 km/h (1 Bft) O-NO 59 ° 0 min 0,000 mm 0,0 UV-I 62 W/m² 13,0 °C 14,6 °C 4,8 km/h (1 Bft)
21.08.2019 17:38 14,7 °C 90 % 1025,1 hPa 0,0 mm 3,0 km/h (1 Bft) O-NO 59 ° 0 min 0,000 mm 0,0 UV-I 58 W/m² 13,1 °C 14,7 °C 4,8 km/h (1 Bft)
21.08.2019 17:39 14,6 °C 89 % 1025,1 hPa 0,0 mm 3,3 km/h (1 Bft) NO 53 ° 0 min 0,000 mm 0,0 UV-I 54 W/m² 12,8 °C 14,6 °C 6,4 km/h (2 Bft)
21.08.2019 17:40 14,6 °C 89 % 1025,1 hPa 0,0 mm 1,0 km/h (0 Bft) NO 53 ° 0 min 0,000 mm 0,0 UV-I 47 W/m² 12,8 °C 14,6 °C 1,6 km/h (1 Bft)
21.08.2019 17:41 14,6 °C 89 % 1025,1 hPa 0,0 mm 3,3 km/h (1 Bft) NO 53 ° 0 min 0,000 mm 0,0 UV-I 46 W/m² 12,8 °C 14,6 °C 4,8 km/h (1 Bft)
21.08.2019 17:42 14,6 °C 89 % 1025,1 hPa 0,0 mm 3,4 km/h (1 Bft) NO 53 ° 0 min 0,000 mm 0,0 UV-I 47 W/m² 12,8 °C 14,6 °C 4,8 km/h (1 Bft)
21.08.2019 17:43 14,6 °C 89 % 1025,0 hPa 0,0 mm 3,6 km/h (1 Bft) NO 51 ° 0 min 0,000 mm 0,0 UV-I 49 W/m² 12,8 °C 14,6 °C 4,8 km/h (1 Bft)
21.08.2019 17:44 14,6 °C 89 % 1025,1 hPa 0,0 mm 2,7 km/h (1 Bft) NO 51 ° 0 min 0,000 mm 0,0 UV-I 49 W/m² 12,8 °C 14,6 °C 4,8 km/h (1 Bft)
21.08.2019 17:45 14,6 °C 89 % 1025,0 hPa 0,0 mm 2,7 km/h (1 Bft) NO 50 ° 0 min 0,000 mm 0,0 UV-I 46 W/m² 12,8 °C 14,6 °C 4,8 km/h (1 Bft)
21.08.2019 17:46 14,6 °C 89 % 1025,0 hPa 0,0 mm 2,9 km/h (1 Bft) O-NO 58 ° 0 min 0,000 mm 0,0 UV-I 37 W/m² 12,8 °C 14,6 °C 4,8 km/h (1 Bft)
21.08.2019 17:47 14,6 °C 89 % 1025,0 hPa 0,0 mm 2,2 km/h (1 Bft) O-NO 57 ° 0 min 0,000 mm 0,0 UV-I 35 W/m² 12,8 °C 14,6 °C 4,8 km/h (1 Bft)
21.08.2019 17:48 14,6 °C 89 % 1025,0 hPa 0,0 mm 0,1 km/h (0 Bft) O-NO 57 ° 0 min 0,000 mm 0,0 UV-I 33 W/m² 12,8 °C 14,6 °C 3,2 km/h (1 Bft)
21.08.2019 17:49 14,5 °C 89 % 1025,0 hPa 0,0 mm 0,0 km/h (0 Bft) O-NO 57 ° 0 min 0,000 mm 0,0 UV-I 33 W/m² 12,7 °C 14,5 °C 0,0 km/h (0 Bft)
21.08.2019 17:50 14,4 °C 89 % 1025,0 hPa 0,0 mm 0,0 km/h (0 Bft) O-NO 57 ° 0 min 0,000 mm 0,0 UV-I 33 W/m² 12,6 °C 14,4 °C 0,0 km/h (0 Bft)
21.08.2019 17:51 14,4 °C 89 % 1025,0 hPa 0,0 mm 0,1 km/h (0 Bft) O-NO 57 ° 0 min 0,000 mm 0,0 UV-I 33 W/m² 12,6 °C 14,4 °C 1,6 km/h (1 Bft)
21.08.2019 17:52 14,4 °C 89 % 1025,0 hPa 0,0 mm 0,0 km/h (0 Bft) O-NO 57 ° 0 min 0,000 mm 0,0 UV-I 33 W/m² 12,6 °C 14,4 °C 0,0 km/h (0 Bft)
21.08.2019 17:53 14,4 °C 89 % 1025,0 hPa 0,0 mm 0,0 km/h (0 Bft) O-NO 57 ° 0 min 0,000 mm 0,0 UV-I 35 W/m² 12,6 °C 14,4 °C 0,0 km/h (0 Bft)
21.08.2019 17:54 14,4 °C 89 % 1025,0 hPa 0,0 mm 0,0 km/h (0 Bft) O-NO 57 ° 0 min 0,000 mm 0,0 UV-I 35 W/m² 12,6 °C 14,4 °C 0,0 km/h (0 Bft)
21.08.2019 17:55 14,3 °C 90 % 1025,0 hPa 0,0 mm 0,0 km/h (0 Bft) O-NO 57 ° 0 min 0,000 mm 0,0 UV-I 37 W/m² 12,7 °C 14,3 °C 0,0 km/h (0 Bft)
21.08.2019 17:56 14,3 °C 90 % 1025,0 hPa 0,0 mm 0,0 km/h (0 Bft) O-NO 57 ° 0 min 0,000 mm 0,0 UV-I 37 W/m² 12,7 °C 14,3 °C 0,0 km/h (0 Bft)
21.08.2019 17:57 14,3 °C 91 % 1025,0 hPa 0,0 mm 0,0 km/h (0 Bft) O-NO 57 ° 0 min 0,000 mm 0,0 UV-I 39 W/m² 12,8 °C 14,3 °C 0,0 km/h (0 Bft)
21.08.2019 17:58 14,3 °C 91 % 1025,0 hPa 0,0 mm 0,0 km/h (0 Bft) O-NO 57 ° 0 min 0,000 mm 0,0 UV-I 40 W/m² 12,8 °C 14,3 °C 0,0 km/h (0 Bft)
21.08.2019 17:59 14,2 °C 91 % 1025,0 hPa 0,0 mm 0,0 km/h (0 Bft) O-NO 57 ° 0 min 0,000 mm 0,0 UV-I 42 W/m² 12,8 °C 14,2 °C 0,0 km/h (0 Bft)
21.08.2019 18:00 14,2 °C 91 % 1025,0 hPa 0,0 mm 0,0 km/h (0 Bft) O-NO 57 ° 0 min 0,000 mm 0,0 UV-I 44 W/m² 12,8 °C 14,2 °C 0,0 km/h (0 Bft)
21.08.2019 18:01 14,2 °C 92 % 1025,0 hPa 0,0 mm 0,0 km/h (0 Bft) O-NO 57 ° 0 min 0,051 mm 0,0 UV-I 42 W/m² 12,9 °C 14,2 °C 0,0 km/h (0 Bft)
21.08.2019 18:02 14,1 °C 92 % 1025,0 hPa 0,0 mm 0,0 km/h (0 Bft) O-NO 57 ° 0 min 0,000 mm 0,0 UV-I 44 W/m² 12,8 °C 14,1 °C 0,0 km/h (0 Bft)
21.08.2019 18:03 14,1 °C 92 % 1025,0 hPa 0,0 mm 0,0 km/h (0 Bft) O-NO 57 ° 0 min 0,000 mm 0,0 UV-I 47 W/m² 12,8 °C 14,1 °C 0,0 km/h (0 Bft)
21.08.2019 18:04 14,1 °C 92 % 1025,0 hPa 0,0 mm 0,0 km/h (0 Bft) O-NO 57 ° 0 min 0,000 mm 0,0 UV-I 51 W/m² 12,8 °C 14,1 °C 0,0 km/h (0 Bft)
21.08.2019 18:05 14,1 °C 92 % 1025,0 hPa 0,0 mm 0,0 km/h (0 Bft) O-NO 57 ° 0 min 0,000 mm 0,0 UV-I 60 W/m² 12,8 °C 14,1 °C 0,0 km/h (0 Bft)
21.08.2019 18:06 14,1 °C 92 % 1024,9 hPa 0,0 mm 0,7 km/h (0 Bft) NO 56 ° 0 min 0,000 mm 0,0 UV-I 58 W/m² 12,8 °C 14,1 °C 4,8 km/h (1 Bft)
21.08.2019 18:07 14,1 °C 92 % 1025,0 hPa 0,0 mm 2,3 km/h (1 Bft) O 87 ° 0 min 0,000 mm 0,0 UV-I 60 W/m² 12,8 °C 14,1 °C 4,8 km/h (1 Bft)
21.08.2019 18:08 14,1 °C 92 % 1024,9 hPa 0,0 mm 1,7 km/h (1 Bft) O-SO 108 ° 0 min 0,000 mm 0,0 UV-I 62 W/m² 12,8 °C 14,1 °C 4,8 km/h (1 Bft)
21.08.2019 18:09 14,1 °C 92 % 1024,9 hPa 0,0 mm 0,4 km/h (0 Bft) O-SO 108 ° 0 min 0,000 mm 0,0 UV-I 63 W/m² 12,8 °C 14,1 °C 1,6 km/h (1 Bft)
21.08.2019 18:10 14,1 °C 92 % 1024,9 hPa 0,0 mm 0,0 km/h (0 Bft) O-SO 108 ° 0 min 0,000 mm 0,0 UV-I 67 W/m² 12,8 °C 14,1 °C 0,0 km/h (0 Bft)
21.08.2019 18:11 14,1 °C 91 % 1024,9 hPa 0,0 mm 0,0 km/h (0 Bft) O-SO 108 ° 0 min 0,000 mm 0,0 UV-I 67 W/m² 12,7 °C 14,1 °C 0,0 km/h (0 Bft)
21.08.2019 18:12 14,1 °C 91 % 1025,0 hPa 0,0 mm 0,0 km/h (0 Bft) O-SO 108 ° 0 min 0,000 mm 0,0 UV-I 69 W/m² 12,7 °C 14,1 °C 0,0 km/h (0 Bft)
21.08.2019 18:13 14,2 °C 91 % 1025,0 hPa 0,0 mm 0,9 km/h (0 Bft) O-SO 110 ° 0 min 0,000 mm 0,0 UV-I 70 W/m² 12,8 °C 14,2 °C 3,2 km/h (1 Bft)
21.08.2019 18:14 14,1 °C 91 % 1025,0 hPa 0,0 mm 0,3 km/h (0 Bft) O-SO 110 ° 0 min 0,000 mm 0,0 UV-I 70 W/m² 12,7 °C 14,1 °C 3,2 km/h (1 Bft)
21.08.2019 18:15 14,1 °C 91 % 1025,0 hPa 0,0 mm 0,7 km/h (0 Bft) O 91 ° 0 min 0,000 mm 0,5 UV-I 74 W/m² 12,7 °C 14,1 °C 4,8 km/h (1 Bft)
21.08.2019 18:16 14,2 °C 90 % 1025,0 hPa 0,0 mm 2,3 km/h (1 Bft) O 91 ° 0 min 0,000 mm 0,5 UV-I 77 W/m² 12,6 °C 14,2 °C 4,8 km/h (1 Bft)
21.08.2019 18:17 14,2 °C 90 % 1024,9 hPa 0,0 mm 0,0 km/h (0 Bft) O 91 ° 0 min 0,000 mm 0,5 UV-I 81 W/m² 12,6 °C 14,2 °C 0,0 km/h (0 Bft)
21.08.2019 18:18 14,2 °C 90 % 1024,9 hPa 0,0 mm 0,0 km/h (0 Bft) O 91 ° 0 min 0,000 mm 0,5 UV-I 83 W/m² 12,6 °C 14,2 °C 0,0 km/h (0 Bft)
21.08.2019 18:19 14,2 °C 90 % 1024,9 hPa 0,0 mm 0,0 km/h (0 Bft) O 91 ° 0 min 0,000 mm 0,5 UV-I 84 W/m² 12,6 °C 14,2 °C 0,0 km/h (0 Bft)
21.08.2019 18:20 14,2 °C 90 % 1024,9 hPa 0,0 mm 0,0 km/h (0 Bft) O 91 ° 0 min 0,000 mm 0,5 UV-I 84 W/m² 12,6 °C 14,2 °C 0,0 km/h (0 Bft)
21.08.2019 18:21 14,2 °C 90 % 1024,9 hPa 0,0 mm 0,0 km/h (0 Bft) O 91 ° 0 min 0,000 mm 0,5 UV-I 81 W/m² 12,6 °C 14,2 °C 0,0 km/h (0 Bft)
21.08.2019 18:22 14,3 °C 90 % 1024,9 hPa 0,0 mm 0,0 km/h (0 Bft) O 91 ° 0 min 0,000 mm 0,5 UV-I 81 W/m² 12,7 °C 14,3 °C 0,0 km/h (0 Bft)
21.08.2019 18:23 14,3 °C 90 % 1024,9 hPa 0,0 mm 0,0 km/h (0 Bft) O 91 ° 0 min 0,000 mm 0,5 UV-I 77 W/m² 12,7 °C 14,3 °C 0,0 km/h (0 Bft)
21.08.2019 18:24 14,3 °C 90 % 1024,8 hPa 0,0 mm 0,0 km/h (0 Bft) O 91 ° 0 min 0,000 mm 0,5 UV-I 74 W/m² 12,7 °C 14,3 °C 0,0 km/h (0 Bft)
21.08.2019 18:25 14,3 °C 90 % 1024,9 hPa 0,0 mm 0,0 km/h (0 Bft) O 91 ° 0 min 0,000 mm 0,5 UV-I 70 W/m² 12,7 °C 14,3 °C 0,0 km/h (0 Bft)
21.08.2019 18:26 14,3 °C 90 % 1024,9 hPa 0,0 mm 0,0 km/h (0 Bft) O 91 ° 0 min 0,000 mm 0,5 UV-I 70 W/m² 12,7 °C 14,3 °C 0,0 km/h (0 Bft)
21.08.2019 18:27 14,3 °C 90 % 1024,9 hPa 0,0 mm 0,0 km/h (0 Bft) O 91 ° 0 min 0,000 mm 0,5 UV-I 74 W/m² 12,7 °C 14,3 °C 0,0 km/h (0 Bft)
21.08.2019 18:28 14,3 °C 90 % 1024,8 hPa 0,0 mm 0,2 km/h (0 Bft) O 91 ° 0 min 0,000 mm 0,5 UV-I 76 W/m² 12,7 °C 14,3 °C 1,6 km/h (1 Bft)
21.08.2019 18:29 14,3 °C 91 % 1024,8 hPa 0,0 mm 0,0 km/h (0 Bft) O 91 ° 0 min 0,000 mm 0,5 UV-I 77 W/m² 12,8 °C 14,3 °C 0,0 km/h (0 Bft)
21.08.2019 18:30 14,3 °C 91 % 1024,8 hPa 0,0 mm 1,0 km/h (0 Bft) O-NO 58 ° 0 min 0,000 mm 0,5 UV-I 77 W/m² 12,8 °C 14,3 °C 3,2 km/h (1 Bft)
21.08.2019 18:31 14,3 °C 91 % 1024,8 hPa 0,0 mm 1,5 km/h (1 Bft) O-NO 58 ° 0 min 0,000 mm 0,5 UV-I 77 W/m² 12,8 °C 14,3 °C 3,2 km/h (1 Bft)
21.08.2019 18:32 14,3 °C 90 % 1024,8 hPa 0,0 mm 0,3 km/h (0 Bft) O-NO 58 ° 0 min 0,000 mm 0,5 UV-I 70 W/m² 12,7 °C 14,3 °C 1,6 km/h (1 Bft)
21.08.2019 18:33 14,4 °C 90 % 1024,7 hPa 0,0 mm 2,1 km/h (1 Bft) O-NO 57 ° 0 min 0,000 mm 0,0 UV-I 51 W/m² 12,8 °C 14,4 °C 4,8 km/h (1 Bft)
21.08.2019 18:34 14,4 °C 91 % 1024,7 hPa 0,0 mm 2,9 km/h (1 Bft) O-NO 57 ° 0 min 0,000 mm 0,0 UV-I 47 W/m² 12,9 °C 14,4 °C 3,2 km/h (1 Bft)
21.08.2019 18:35 14,3 °C 91 % 1024,7 hPa 0,0 mm 0,6 km/h (0 Bft) O-NO 57 ° 0 min 0,000 mm 0,0 UV-I 47 W/m² 12,8 °C 14,3 °C 3,2 km/h (1 Bft)
21.08.2019 18:36 14,3 °C 90 % 1024,7 hPa 0,0 mm 1,5 km/h (1 Bft) O-NO 57 ° 0 min 0,000 mm 0,0 UV-I 47 W/m² 12,7 °C 14,3 °C 6,4 km/h (2 Bft)
21.08.2019 18:37 14,4 °C 91 % 1024,8 hPa 0,0 mm 0,8 km/h (0 Bft) O-NO 57 ° 0 min 0,000 mm 0,0 UV-I 49 W/m² 12,9 °C 14,4 °C 4,8 km/h (1 Bft)
21.08.2019 18:38 14,4 °C 91 % 1024,7 hPa 0,0 mm 0,0 km/h (0 Bft) O-NO 57 ° 0 min 0,000 mm 0,0 UV-I 51 W/m² 12,9 °C 14,4 °C 0,0 km/h (0 Bft)
21.08.2019 18:39 14,4 °C 91 % 1024,7 hPa 0,0 mm 0,0 km/h (0 Bft) O-NO 57 ° 0 min 0,000 mm 0,0 UV-I 58 W/m² 12,9 °C 14,4 °C 0,0 km/h (0 Bft)
21.08.2019 18:40 14,4 °C 90 % 1024,7 hPa 0,0 mm 0,1 km/h (0 Bft) O-NO 57 ° 0 min 0,000 mm 0,0 UV-I 62 W/m² 12,8 °C 14,4 °C 1,6 km/h (1 Bft)
21.08.2019 18:41 14,4 °C 90 % 1024,7 hPa 0,0 mm 1,2 km/h (1 Bft) O-NO 57 ° 0 min 0,000 mm 0,0 UV-I 63 W/m² 12,8 °C 14,4 °C 3,2 km/h (1 Bft)
21.08.2019 18:42 14,4 °C 90 % 1024,7 hPa 0,0 mm 0,2 km/h (0 Bft) O-NO 57 ° 0 min 0,000 mm 0,0 UV-I 69 W/m² 12,8 °C 14,4 °C 1,6 km/h (1 Bft)
21.08.2019 18:43 14,4 °C 90 % 1024,7 hPa 0,0 mm 0,0 km/h (0 Bft) O-NO 57 ° 0 min 0,000 mm 0,0 UV-I 72 W/m² 12,8 °C 14,4 °C 0,0 km/h (0 Bft)
21.08.2019 18:44 14,4 °C 90 % 1024,7 hPa 0,0 mm 0,3 km/h (0 Bft) O 90 ° 0 min 0,000 mm 0,0 UV-I 70 W/m² 12,8 °C 14,4 °C 3,2 km/h (1 Bft)
21.08.2019 18:45 14,4 °C 90 % 1024,7 hPa 0,0 mm 4,5 km/h (1 Bft) O-NO 67 ° 0 min 0,000 mm 0,0 UV-I 62 W/m² 12,8 °C 14,4 °C 6,4 km/h (2 Bft)
21.08.2019 18:46 14,4 °C 89 % 1024,7 hPa 0,0 mm 1,4 km/h (1 Bft) O-NO 67 ° 0 min 0,000 mm 0,0 UV-I 54 W/m² 12,6 °C 14,4 °C 3,2 km/h (1 Bft)
21.08.2019 18:47 14,3 °C 89 % 1024,7 hPa 0,2 mm 0,0 km/h (0 Bft) O-NO 67 ° 0 min 0,000 mm 0,0 UV-I 53 W/m² 12,5 °C 14,3 °C 0,0 km/h (0 Bft)
21.08.2019 18:48 14,4 °C 89 % 1024,7 hPa 0,0 mm 0,0 km/h (0 Bft) O-NO 67 ° 0 min 0,000 mm 0,0 UV-I 51 W/m² 12,6 °C 14,4 °C 0,0 km/h (0 Bft)
21.08.2019 18:49 14,4 °C 90 % 1024,7 hPa 0,0 mm 1,5 km/h (1 Bft) O-NO 65 ° 0 min 0,000 mm 0,0 UV-I 49 W/m² 12,8 °C 14,4 °C 8,0 km/h (2 Bft)
21.08.2019 18:50 14,3 °C 90 % 1024,7 hPa 0,0 mm 2,8 km/h (1 Bft) O 94 ° 0 min 0,000 mm 0,0 UV-I 47 W/m² 12,7 °C 14,3 °C 6,4 km/h (2 Bft)
21.08.2019 18:51 14,3 °C 90 % 1024,7 hPa 0,0 mm 0,6 km/h (0 Bft) O 94 ° 0 min 0,000 mm 0,0 UV-I 42 W/m² 12,7 °C 14,3 °C 1,6 km/h (1 Bft)
21.08.2019 18:52 14,3 °C 90 % 1024,7 hPa 0,0 mm 0,3 km/h (0 Bft) O 94 ° 0 min 0,000 mm 0,0 UV-I 39 W/m² 12,7 °C 14,3 °C 3,2 km/h (1 Bft)
21.08.2019 18:53 14,3 °C 89 % 1024,7 hPa 0,0 mm 0,6 km/h (0 Bft) O 94 ° 0 min 0,000 mm 0,0 UV-I 37 W/m² 12,5 °C 14,3 °C 3,2 km/h (1 Bft)
21.08.2019 18:54 14,3 °C 90 % 1024,7 hPa 0,0 mm 0,7 km/h (0 Bft) O 94 ° 0 min 0,000 mm 0,0 UV-I 37 W/m² 12,7 °C 14,3 °C 1,6 km/h (1 Bft)
21.08.2019 18:55 14,3 °C 90 % 1024,7 hPa 0,0 mm 0,0 km/h (0 Bft) O 94 ° 0 min 0,000 mm 0,0 UV-I 37 W/m² 12,7 °C 14,3 °C 0,0 km/h (0 Bft)
21.08.2019 18:56 14,3 °C 90 % 1024,8 hPa 0,0 mm 3,0 km/h (1 Bft) S-SO 159 ° 0 min 0,000 mm 0,0 UV-I 35 W/m² 12,7 °C 14,3 °C 6,4 km/h (2 Bft)
21.08.2019 18:57 14,3 °C 90 % 1024,7 hPa 0,0 mm 0,2 km/h (0 Bft) S-SO 159 ° 0 min 0,000 mm 0,0 UV-I 35 W/m² 12,7 °C 14,3 °C 1,6 km/h (1 Bft)
21.08.2019 18:58 14,3 °C 90 % 1024,8 hPa 0,0 mm 0,0 km/h (0 Bft) S-SO 159 ° 0 min 0,000 mm 0,0 UV-I 37 W/m² 12,7 °C 14,3 °C 0,0 km/h (0 Bft)
21.08.2019 18:59 14,3 °C 90 % 1024,8 hPa 0,0 mm 0,0 km/h (0 Bft) S-SO 159 ° 0 min 0,000 mm 0,0 UV-I 37 W/m² 12,7 °C 14,3 °C 0,0 km/h (0 Bft)
21.08.2019 19:00 14,3 °C 90 % 1024,7 hPa 0,0 mm 0,6 km/h (0 Bft) S-SO 159 ° 0 min 0,000 mm 0,0 UV-I 35 W/m² 12,7 °C 14,3 °C 1,6 km/h (1 Bft)
21.08.2019 19:01 14,3 °C 90 % 1024,7 hPa 0,0 mm 1,5 km/h (1 Bft) SO 137 ° 0 min 0,025 mm 0,0 UV-I 35 W/m² 12,7 °C 14,3 °C 4,8 km/h (1 Bft)
21.08.2019 19:02 14,3 °C 90 % 1024,7 hPa 0,0 mm 1,1 km/h (1 Bft) SO 137 ° 0 min 0,000 mm 0,0 UV-I 33 W/m² 12,7 °C 14,3 °C 3,2 km/h (1 Bft)
21.08.2019 19:03 14,2 °C 90 % 1024,7 hPa 0,0 mm 0,0 km/h (0 Bft) SO 137 ° 0 min 0,000 mm 0,0 UV-I 33 W/m² 12,6 °C 14,2 °C 0,0 km/h (0 Bft)
21.08.2019 19:04 14,2 °C 90 % 1024,7 hPa 0,0 mm 0,0 km/h (0 Bft) SO 137 ° 0 min 0,000 mm 0,0 UV-I 33 W/m² 12,6 °C 14,2 °C 0,0 km/h (0 Bft)
21.08.2019 19:05 14,2 °C 90 % 1024,7 hPa 0,0 mm 0,0 km/h (0 Bft) SO 137 ° 0 min 0,000 mm 0,0 UV-I 35 W/m² 12,6 °C 14,2 °C 0,0 km/h (0 Bft)
21.08.2019 19:06 14,2 °C 91 % 1024,7 hPa 0,0 mm 0,0 km/h (0 Bft) SO 137 ° 0 min 0,000 mm 0,0 UV-I 35 W/m² 12,8 °C 14,2 °C 0,0 km/h (0 Bft)
21.08.2019 19:07 14,1 °C 91 % 1024,7 hPa 0,0 mm 0,4 km/h (0 Bft) SO 137 ° 0 min 0,000 mm 0,0 UV-I 35 W/m² 12,7 °C 14,1 °C 1,6 km/h (1 Bft)
21.08.2019 19:08 14,1 °C 91 % 1024,7 hPa 0,0 mm 1,5 km/h (1 Bft) SO 137 ° 0 min 0,000 mm 0,0 UV-I 35 W/m² 12,7 °C 14,1 °C 3,2 km/h (1 Bft)
21.08.2019 19:09 14,1 °C 91 % 1024,7 hPa 0,0 mm 0,5 km/h (0 Bft) SO 137 ° 0 min 0,000 mm 0,0 UV-I 35 W/m² 12,7 °C 14,1 °C 3,2 km/h (1 Bft)
21.08.2019 19:10 14,1 °C 91 % 1024,7 hPa 0,0 mm 0,0 km/h (0 Bft) SO 137 ° 0 min 0,000 mm 0,0 UV-I 37 W/m² 12,7 °C 14,1 °C 0,0 km/h (0 Bft)
21.08.2019 19:11 14,1 °C 91 % 1024,7 hPa 0,0 mm 0,0 km/h (0 Bft) SO 137 ° 0 min 0,000 mm 0,0 UV-I 37 W/m² 12,7 °C 14,1 °C 0,0 km/h (0 Bft)
21.08.2019 19:12 14,1 °C 91 % 1024,7 hPa 0,0 mm 0,0 km/h (0 Bft) SO 137 ° 0 min 0,000 mm 0,0 UV-I 35 W/m² 12,7 °C 14,1 °C 0,0 km/h (0 Bft)
21.08.2019 19:13 14,1 °C 91 % 1024,7 hPa 0,0 mm 0,0 km/h (0 Bft) SO 137 ° 0 min 0,000 mm 0,0 UV-I 33 W/m² 12,7 °C 14,1 °C 0,0 km/h (0 Bft)
21.08.2019 19:14 14,0 °C 91 % 1024,7 hPa 0,0 mm 0,0 km/h (0 Bft) SO 137 ° 0 min 0,000 mm 0,0 UV-I 32 W/m² 12,6 °C 14,0 °C 0,0 km/h (0 Bft)
21.08.2019 19:15 14,0 °C 91 % 1024,7 hPa 0,0 mm 0,0 km/h (0 Bft) SO 137 ° 0 min 0,000 mm 0,0 UV-I 32 W/m² 12,6 °C 14,0 °C 0,0 km/h (0 Bft)
21.08.2019 19:16 14,0 °C 91 % 1024,7 hPa 0,0 mm 0,0 km/h (0 Bft) SO 137 ° 0 min 0,000 mm 0,0 UV-I 33 W/m² 12,6 °C 14,0 °C 0,0 km/h (0 Bft)
21.08.2019 19:17 14,0 °C 91 % 1024,7 hPa 0,0 mm 0,0 km/h (0 Bft) SO 137 ° 0 min 0,000 mm 0,0 UV-I 32 W/m² 12,6 °C 14,0 °C 0,0 km/h (0 Bft)
21.08.2019 19:18 14,0 °C 91 % 1024,7 hPa 0,0 mm 0,0 km/h (0 Bft) SO 137 ° 0 min 0,000 mm 0,0 UV-I 32 W/m² 12,6 °C 14,0 °C 0,0 km/h (0 Bft)
21.08.2019 19:19 14,0 °C 91 % 1024,8 hPa 0,0 mm 0,0 km/h (0 Bft) SO 137 ° 0 min 0,000 mm 0,0 UV-I 30 W/m² 12,6 °C 14,0 °C 0,0 km/h (0 Bft)
21.08.2019 19:20 14,0 °C 92 % 1024,7 hPa 0,0 mm 0,0 km/h (0 Bft) SO 137 ° 0 min 0,000 mm 0,0 UV-I 30 W/m² 12,7 °C 14,0 °C 0,0 km/h (0 Bft)
21.08.2019 19:21 13,9 °C 92 % 1024,7 hPa 0,0 mm 0,0 km/h (0 Bft) SO 137 ° 0 min 0,000 mm 0,0 UV-I 30 W/m² 12,6 °C 13,9 °C 0,0 km/h (0 Bft)
21.08.2019 19:22 14,0 °C 92 % 1024,7 hPa 0,0 mm 0,0 km/h (0 Bft) SO 136 ° 0 min 0,000 mm 0,0 UV-I 28 W/m² 12,7 °C 14,0 °C 0,0 km/h (0 Bft)
21.08.2019 19:23 13,9 °C 92 % 1024,7 hPa 0,0 mm 0,0 km/h (0 Bft) SO 136 ° 0 min 0,000 mm 0,0 UV-I 25 W/m² 12,6 °C 13,9 °C 0,0 km/h (0 Bft)
21.08.2019 19:24 13,9 °C 92 % 1024,7 hPa 0,0 mm 0,0 km/h (0 Bft) SO 136 ° 0 min 0,000 mm 0,0 UV-I 21 W/m² 12,6 °C 13,9 °C 0,0 km/h (0 Bft)
21.08.2019 19:25 13,9 °C 92 % 1024,7 hPa 0,0 mm 0,0 km/h (0 Bft) O-SO 118 ° 0 min 0,000 mm 0,0 UV-I 21 W/m² 12,6 °C 13,9 °C 0,0 km/h (0 Bft)
21.08.2019 19:26 14,0 °C 92 % 1024,7 hPa 0,0 mm 3,8 km/h (1 Bft) O-NO 71 ° 0 min 0,000 mm 0,0 UV-I 23 W/m² 12,7 °C 14,0 °C 6,4 km/h (2 Bft)
21.08.2019 19:27 14,0 °C 92 % 1024,7 hPa 0,0 mm 1,6 km/h (1 Bft) O-NO 59 ° 0 min 0,000 mm 0,0 UV-I 25 W/m² 12,7 °C 14,0 °C 3,2 km/h (1 Bft)
21.08.2019 19:28 14,1 °C 91 % 1024,7 hPa 0,0 mm 2,1 km/h (1 Bft) O-NO 73 ° 0 min 0,000 mm 0,0 UV-I 26 W/m² 12,7 °C 14,1 °C 4,8 km/h (1 Bft)
21.08.2019 19:29 14,0 °C 91 % 1024,7 hPa 0,0 mm 4,7 km/h (1 Bft) O-NO 68 ° 0 min 0,000 mm 0,0 UV-I 26 W/m² 12,6 °C 14,0 °C 8,0 km/h (2 Bft)
21.08.2019 19:30 14,1 °C 91 % 1024,7 hPa 0,0 mm 3,8 km/h (1 Bft) NO 43 ° 0 min 0,000 mm 0,0 UV-I 25 W/m² 12,7 °C 14,1 °C 6,4 km/h (2 Bft)
21.08.2019 19:31 14,1 °C 91 % 1024,7 hPa 0,0 mm 2,5 km/h (1 Bft) O-NO 65 ° 0 min 0,000 mm 0,0 UV-I 25 W/m² 12,7 °C 14,1 °C 4,8 km/h (1 Bft)
21.08.2019 19:32 14,1 °C 91 % 1024,6 hPa 0,0 mm 1,8 km/h (1 Bft) O-NO 57 ° 0 min 0,000 mm 0,0 UV-I 26 W/m² 12,7 °C 14,1 °C 4,8 km/h (1 Bft)
21.08.2019 19:33 14,1 °C 91 % 1024,6 hPa 0,0 mm 3,6 km/h (1 Bft) N-NO 20 ° 0 min 0,000 mm 0,0 UV-I 26 W/m² 12,7 °C 14,1 °C 6,4 km/h (2 Bft)
21.08.2019 19:34 14,1 °C 91 % 1024,6 hPa 0,0 mm 1,3 km/h (1 Bft) NO 55 ° 0 min 0,000 mm 0,0 UV-I 26 W/m² 12,7 °C 14,1 °C 4,8 km/h (1 Bft)
21.08.2019 19:35 14,1 °C 90 % 1024,6 hPa 0,0 mm 4,6 km/h (1 Bft) O 83 ° 0 min 0,000 mm 0,0 UV-I 25 W/m² 12,5 °C 14,1 °C 8,0 km/h (2 Bft)
21.08.2019 19:36 14,1 °C 90 % 1024,6 hPa 0,0 mm 1,1 km/h (1 Bft) O 82 ° 0 min 0,000 mm 0,0 UV-I 25 W/m² 12,5 °C 14,1 °C 3,2 km/h (1 Bft)
21.08.2019 19:37 14,1 °C 90 % 1024,6 hPa 0,0 mm 3,2 km/h (1 Bft) O 93 ° 0 min 0,000 mm 0,0 UV-I 23 W/m² 12,5 °C 14,1 °C 4,8 km/h (1 Bft)
21.08.2019 19:38 14,1 °C 90 % 1024,6 hPa 0,0 mm 1,0 km/h (0 Bft) NW 307 ° 0 min 0,000 mm 0,0 UV-I 23 W/m² 12,5 °C 14,1 °C 3,2 km/h (1 Bft)
21.08.2019 19:39 14,0 °C 90 % 1024,6 hPa 0,0 mm 2,3 km/h (1 Bft) N-NO 14 ° 0 min 0,000 mm 0,0 UV-I 21 W/m² 12,4 °C 14,0 °C 3,2 km/h (1 Bft)
21.08.2019 19:40 14,0 °C 90 % 1024,6 hPa 0,0 mm 0,4 km/h (0 Bft) N-NO 14 ° 0 min 0,000 mm 0,0 UV-I 21 W/m² 12,4 °C 14,0 °C 1,6 km/h (1 Bft)
21.08.2019 19:41 14,1 °C 90 % 1024,7 hPa 0,0 mm 0,0 km/h (0 Bft) N-NO 14 ° 0 min 0,000 mm 0,0 UV-I 19 W/m² 12,5 °C 14,1 °C 0,0 km/h (0 Bft)
21.08.2019 19:42 14,0 °C 90 % 1024,7 hPa 0,0 mm 0,0 km/h (0 Bft) N-NO 14 ° 0 min 0,000 mm 0,0 UV-I 19 W/m² 12,4 °C 14,0 °C 0,0 km/h (0 Bft)
21.08.2019 19:43 14,0 °C 90 % 1024,7 hPa 0,0 mm 0,1 km/h (0 Bft) N-NO 18 ° 0 min 0,000 mm 0,0 UV-I 16 W/m² 12,4 °C 14,0 °C 1,6 km/h (1 Bft)
21.08.2019 19:44 13,9 °C 90 % 1024,7 hPa 0,0 mm 0,0 km/h (0 Bft) N-NO 20 ° 0 min 0,000 mm 0,0 UV-I 16 W/m² 12,3 °C 13,9 °C 0,0 km/h (0 Bft)
21.08.2019 19:45 13,9 °C 90 % 1024,7 hPa 0,0 mm 0,0 km/h (0 Bft) N-NO 19 ° 0 min 0,000 mm 0,0 UV-I 14 W/m² 12,3 °C 13,9 °C 0,0 km/h (0 Bft)
21.08.2019 19:46 13,9 °C 90 % 1024,7 hPa 0,0 mm 0,0 km/h (0 Bft) O-SO 107 ° 0 min 0,000 mm 0,0 UV-I 14 W/m² 12,3 °C 13,9 °C 0,0 km/h (0 Bft)
21.08.2019 19:47 13,9 °C 91 % 1024,7 hPa 0,0 mm 0,0 km/h (0 Bft) O-SO 107 ° 0 min 0,000 mm 0,0 UV-I 12 W/m² 12,5 °C 13,9 °C 0,0 km/h (0 Bft)
21.08.2019 19:48 13,9 °C 90 % 1024,7 hPa 0,0 mm 1,0 km/h (0 Bft) O-SO 107 ° 0 min 0,000 mm 0,0 UV-I 12 W/m² 12,3 °C 13,9 °C 3,2 km/h (1 Bft)
21.08.2019 19:49 13,9 °C 90 % 1024,8 hPa 0,0 mm 1,4 km/h (1 Bft) O-NO 59 ° 0 min 0,000 mm 0,0 UV-I 12 W/m² 12,3 °C 13,9 °C 4,8 km/h (1 Bft)
21.08.2019 19:50 13,8 °C 90 % 1024,8 hPa 0,0 mm 0,0 km/h (0 Bft) O-NO 59 ° 0 min 0,000 mm 0,0 UV-I 11 W/m² 12,2 °C 13,8 °C 0,0 km/h (0 Bft)
21.08.2019 19:51 13,8 °C 90 % 1024,7 hPa 0,0 mm 1,4 km/h (1 Bft) O-NO 59 ° 0 min 0,000 mm 0,0 UV-I 11 W/m² 12,2 °C 13,8 °C 3,2 km/h (1 Bft)
21.08.2019 19:52 13,8 °C 90 % 1024,7 hPa 0,0 mm 0,1 km/h (0 Bft) O-NO 59 ° 0 min 0,000 mm 0,0 UV-I 11 W/m² 12,2 °C 13,8 °C 1,6 km/h (1 Bft)
21.08.2019 19:53 13,8 °C 91 % 1024,7 hPa 0,0 mm 1,1 km/h (1 Bft) SO 138 ° 0 min 0,000 mm 0,0 UV-I 11 W/m² 12,4 °C 13,8 °C 4,8 km/h (1 Bft)
21.08.2019 19:54 13,8 °C 91 % 1024,7 hPa 0,0 mm 0,1 km/h (0 Bft) SO 138 ° 0 min 0,000 mm 0,0 UV-I 11 W/m² 12,4 °C 13,8 °C 1,6 km/h (1 Bft)
21.08.2019 19:55 13,8 °C 91 % 1024,7 hPa 0,0 mm 0,0 km/h (0 Bft) O-SO 122 ° 0 min 0,000 mm 0,0 UV-I 9 W/m² 12,4 °C 13,8 °C 0,0 km/h (0 Bft)
21.08.2019 19:56 13,8 °C 91 % 1024,7 hPa 0,0 mm 0,0 km/h (0 Bft) O-SO 122 ° 0 min 0,000 mm 0,0 UV-I 9 W/m² 12,4 °C 13,8 °C 0,0 km/h (0 Bft)
21.08.2019 19:57 13,7 °C 91 % 1024,7 hPa 0,0 mm 0,0 km/h (0 Bft) O-SO 122 ° 0 min 0,000 mm 0,0 UV-I 9 W/m² 12,3 °C 13,7 °C 0,0 km/h (0 Bft)
21.08.2019 19:58 13,8 °C 91 % 1024,7 hPa 0,0 mm 0,0 km/h (0 Bft) O-SO 122 ° 0 min 0,000 mm 0,0 UV-I 7 W/m² 12,4 °C 13,8 °C 0,0 km/h (0 Bft)
21.08.2019 19:59 13,8 °C 91 % 1024,7 hPa 0,0 mm 0,0 km/h (0 Bft) O-SO 122 ° 0 min 0,000 mm 0,0 UV-I 7 W/m² 12,4 °C 13,8 °C 0,0 km/h (0 Bft)
21.08.2019 20:00 13,8 °C 91 % 1024,7 hPa 0,0 mm 0,7 km/h (0 Bft) NO 51 ° 0 min 0,000 mm 0,0 UV-I 7 W/m² 12,4 °C 13,8 °C 6,4 km/h (2 Bft)
21.08.2019 20:01 13,7 °C 91 % 1024,7 hPa 0,0 mm 1,5 km/h (1 Bft) NO 42 ° 0 min 0,026 mm 0,0 UV-I 7 W/m² 12,3 °C 13,7 °C 6,4 km/h (2 Bft)
21.08.2019 20:02 13,7 °C 91 % 1024,6 hPa 0,0 mm 0,0 km/h (0 Bft) NO 42 ° 0 min 0,000 mm 0,0 UV-I 5 W/m² 12,3 °C 13,7 °C 0,0 km/h (0 Bft)
21.08.2019 20:03 13,7 °C 91 % 1024,7 hPa 0,0 mm 0,0 km/h (0 Bft) NO 42 ° 0 min 0,000 mm 0,0 UV-I 5 W/m² 12,3 °C 13,7 °C 0,0 km/h (0 Bft)
21.08.2019 20:04 13,7 °C 91 % 1024,7 hPa 0,0 mm 0,0 km/h (0 Bft) NO 42 ° 0 min 0,000 mm 0,0 UV-I 5 W/m² 12,3 °C 13,7 °C 0,0 km/h (0 Bft)
21.08.2019 20:05 13,7 °C 91 % 1024,7 hPa 0,0 mm 0,0 km/h (0 Bft) NO 42 ° 0 min 0,000 mm 0,0 UV-I 5 W/m² 12,3 °C 13,7 °C 0,0 km/h (0 Bft)
21.08.2019 20:06 13,7 °C 91 % 1024,7 hPa 0,0 mm 0,0 km/h (0 Bft) NO 42 ° 0 min 0,000 mm 0,0 UV-I 5 W/m² 12,3 °C 13,7 °C 0,0 km/h (0 Bft)
21.08.2019 20:07 13,7 °C 91 % 1024,7 hPa 0,0 mm 0,0 km/h (0 Bft) NO 42 ° 0 min 0,000 mm 0,0 UV-I 0 W/m² 12,3 °C 13,7 °C 0,0 km/h (0 Bft)
21.08.2019 20:08 13,7 °C 91 % 1024,7 hPa 0,0 mm 0,0 km/h (0 Bft) NO 42 ° 0 min 0,000 mm 0,0 UV-I 0 W/m² 12,3 °C 13,7 °C 0,0 km/h (0 Bft)
21.08.2019 20:09 13,6 °C 91 % 1024,7 hPa 0,0 mm 0,1 km/h (0 Bft) NO 42 ° 0 min 0,000 mm 0,0 UV-I 0 W/m² 12,2 °C 13,6 °C 1,6 km/h (1 Bft)
21.08.2019 20:10 13,6 °C 91 % 1024,7 hPa 0,0 mm 0,0 km/h (0 Bft) NO 42 ° 0 min 0,000 mm 0,0 UV-I 0 W/m² 12,2 °C 13,6 °C 0,0 km/h (0 Bft)
21.08.2019 20:11 13,6 °C 91 % 1024,7 hPa 0,0 mm 0,0 km/h (0 Bft) NO 42 ° 0 min 0,000 mm 0,0 UV-I 0 W/m² 12,2 °C 13,6 °C 0,0 km/h (0 Bft)
21.08.2019 20:12 13,6 °C 91 % 1024,7 hPa 0,0 mm 0,0 km/h (0 Bft) NO 42 ° 0 min 0,000 mm 0,0 UV-I 0 W/m² 12,2 °C 13,6 °C 0,0 km/h (0 Bft)
21.08.2019 20:13 13,6 °C 91 % 1024,7 hPa 0,0 mm 2,2 km/h (1 Bft) NO 44 ° 0 min 0,000 mm 0,0 UV-I 0 W/m² 12,2 °C 13,6 °C 4,8 km/h (1 Bft)
21.08.2019 20:14 13,6 °C 91 % 1024,7 hPa 0,0 mm 0,1 km/h (0 Bft) NO 44 ° 0 min 0,000 mm 0,0 UV-I 0 W/m² 12,2 °C 13,6 °C 1,6 km/h (1 Bft)
21.08.2019 20:15 13,6 °C 91 % 1024,6 hPa 0,0 mm 0,5 km/h (0 Bft) NO 44 ° 0 min 0,000 mm 0,0 UV-I 0 W/m² 12,2 °C 13,6 °C 1,6 km/h (1 Bft)
21.08.2019 20:16 13,5 °C 92 % 1024,7 hPa 0,0 mm 0,0 km/h (0 Bft) NO 44 ° 0 min 0,000 mm 0,0 UV-I 0 W/m² 12,2 °C 13,5 °C 0,0 km/h (0 Bft)
21.08.2019 20:17 13,5 °C 92 % 1024,7 hPa 0,0 mm 0,0 km/h (0 Bft) NO 44 ° 0 min 0,000 mm 0,0 UV-I 0 W/m² 12,2 °C 13,5 °C 0,0 km/h (0 Bft)
21.08.2019 20:18 13,5 °C 92 % 1024,7 hPa 0,0 mm 0,0 km/h (0 Bft) NO 44 ° 0 min 0,000 mm 0,0 UV-I 0 W/m² 12,2 °C 13,5 °C 0,0 km/h (0 Bft)
21.08.2019 20:19 13,5 °C 92 % 1024,7 hPa 0,0 mm 0,0 km/h (0 Bft) NO 44 ° 0 min 0,000 mm 0,0 UV-I 0 W/m² 12,2 °C 13,5 °C 0,0 km/h (0 Bft)
21.08.2019 20:20 13,5 °C 92 % 1024,7 hPa 0,0 mm 0,0 km/h (0 Bft) NO 44 ° 0 min 0,000 mm 0,0 UV-I 0 W/m² 12,2 °C 13,5 °C 0,0 km/h (0 Bft)
21.08.2019 20:21 13,5 °C 92 % 1024,7 hPa 0,0 mm 0,0 km/h (0 Bft) NO 44 ° 0 min 0,000 mm 0,0 UV-I 0 W/m² 12,2 °C 13,5 °C 0,0 km/h (0 Bft)
21.08.2019 20:22 13,4 °C 92 % 1024,7 hPa 0,0 mm 0,0 km/h (0 Bft) NO 44 ° 0 min 0,000 mm 0,0 UV-I 0 W/m² 12,1 °C 13,4 °C 0,0 km/h (0 Bft)
21.08.2019 20:23 13,4 °C 92 % 1024,6 hPa 0,0 mm 0,0 km/h (0 Bft) NO 44 ° 0 min 0,000 mm 0,0 UV-I 0 W/m² 12,1 °C 13,4 °C 0,0 km/h (0 Bft)
21.08.2019 20:24 13,4 °C 92 % 1024,6 hPa 0,0 mm 0,0 km/h (0 Bft) NO 44 ° 0 min 0,000 mm 0,0 UV-I 0 W/m² 12,1 °C 13,4 °C 0,0 km/h (0 Bft)
21.08.2019 20:25 13,4 °C 92 % 1024,6 hPa 0,0 mm 0,0 km/h (0 Bft) NO 44 ° 0 min 0,000 mm 0,0 UV-I 0 W/m² 12,1 °C 13,4 °C 0,0 km/h (0 Bft)
21.08.2019 20:26 13,4 °C 92 % 1024,6 hPa 0,0 mm 0,0 km/h (0 Bft) NO 44 ° 0 min 0,000 mm 0,0 UV-I 0 W/m² 12,1 °C 13,4 °C 0,0 km/h (0 Bft)
21.08.2019 20:27 13,4 °C 92 % 1024,6 hPa 0,0 mm 0,0 km/h (0 Bft) NO 44 ° 0 min 0,000 mm 0,0 UV-I 0 W/m² 12,1 °C 13,4 °C 0,0 km/h (0 Bft)
21.08.2019 20:28 13,3 °C 92 % 1024,6 hPa 0,0 mm 0,0 km/h (0 Bft) NO 44 ° 0 min 0,000 mm 0,0 UV-I 0 W/m² 12,0 °C 13,3 °C 0,0 km/h (0 Bft)
21.08.2019 20:29 13,3 °C 92 % 1024,6 hPa 0,0 mm 0,0 km/h (0 Bft) NO 44 ° 0 min 0,000 mm 0,0 UV-I 0 W/m² 12,0 °C 13,3 °C 0,0 km/h (0 Bft)
21.08.2019 20:30 13,3 °C 92 % 1024,6 hPa 0,0 mm 0,0 km/h (0 Bft) NO 44 ° 0 min 0,000 mm 0,0 UV-I 0 W/m² 12,0 °C 13,3 °C 0,0 km/h (0 Bft)
21.08.2019 20:31 13,4 °C 92 % 1024,6 hPa 0,0 mm 0,0 km/h (0 Bft) NO 44 ° 0 min 0,000 mm 0,0 UV-I 0 W/m² 12,1 °C 13,4 °C 0,0 km/h (0 Bft)
21.08.2019 20:32 13,3 °C 92 % 1024,7 hPa 0,0 mm 0,0 km/h (0 Bft) NO 44 ° 0 min 0,000 mm 0,0 UV-I 0 W/m² 12,0 °C 13,3 °C 0,0 km/h (0 Bft)
21.08.2019 20:33 13,4 °C 92 % 1024,7 hPa 0,0 mm 0,0 km/h (0 Bft) NO 44 ° 0 min 0,000 mm 0,0 UV-I 0 W/m² 12,1 °C 13,4 °C 0,0 km/h (0 Bft)
21.08.2019 20:34 13,3 °C 92 % 1024,7 hPa 0,0 mm 0,0 km/h (0 Bft) NO 44 ° 0 min 0,000 mm 0,0 UV-I 0 W/m² 12,0 °C 13,3 °C 0,0 km/h (0 Bft)
21.08.2019 20:35 13,3 °C 92 % 1024,7 hPa 0,0 mm 0,0 km/h (0 Bft) NO 44 ° 0 min 0,000 mm 0,0 UV-I 0 W/m² 12,0 °C 13,3 °C 0,0 km/h (0 Bft)
21.08.2019 20:36 13,3 °C 92 % 1024,7 hPa 0,0 mm 0,0 km/h (0 Bft) NO 44 ° 0 min 0,000 mm 0,0 UV-I 0 W/m² 12,0 °C 13,3 °C 0,0 km/h (0 Bft)
21.08.2019 20:37 13,3 °C 92 % 1024,7 hPa 0,0 mm 0,0 km/h (0 Bft) NO 44 ° 0 min 0,000 mm 0,0 UV-I 0 W/m² 12,0 °C 13,3 °C 0,0 km/h (0 Bft)
21.08.2019 20:38 13,3 °C 92 % 1024,7 hPa 0,0 mm 0,0 km/h (0 Bft) NO 44 ° 0 min 0,000 mm 0,0 UV-I 0 W/m² 12,0 °C 13,3 °C 0,0 km/h (0 Bft)
21.08.2019 20:39 13,3 °C 92 % 1024,7 hPa 0,0 mm 0,0 km/h (0 Bft) NO 44 ° 0 min 0,000 mm 0,0 UV-I 0 W/m² 12,0 °C 13,3 °C 0,0 km/h (0 Bft)
21.08.2019 20:40 13,3 °C 92 % 1024,7 hPa 0,0 mm 0,0 km/h (0 Bft) NO 44 ° 0 min 0,000 mm 0,0 UV-I 0 W/m² 12,0 °C 13,3 °C 0,0 km/h (0 Bft)
21.08.2019 20:41 13,3 °C 92 % 1024,7 hPa 0,0 mm 0,0 km/h (0 Bft) NO 44 ° 0 min 0,000 mm 0,0 UV-I 0 W/m² 12,0 °C 13,3 °C 0,0 km/h (0 Bft)
21.08.2019 20:42 13,3 °C 92 % 1024,7 hPa 0,0 mm 0,0 km/h (0 Bft) NO 44 ° 0 min 0,000 mm 0,0 UV-I 0 W/m² 12,0 °C 13,3 °C 0,0 km/h (0 Bft)
21.08.2019 20:43 13,3 °C 92 % 1024,8 hPa 0,0 mm 0,0 km/h (0 Bft) NO 44 ° 0 min 0,000 mm 0,0 UV-I 0 W/m² 12,0 °C 13,3 °C 0,0 km/h (0 Bft)
21.08.2019 20:44 13,3 °C 92 % 1024,7 hPa 0,0 mm 0,1 km/h (0 Bft) NO 44 ° 0 min 0,000 mm 0,0 UV-I 0 W/m² 12,0 °C 13,3 °C 1,6 km/h (1 Bft)
21.08.2019 20:45 13,3 °C 93 % 1024,7 hPa 0,0 mm 0,0 km/h (0 Bft) NO 44 ° 0 min 0,000 mm 0,0 UV-I 0 W/m² 12,2 °C 13,3 °C 0,0 km/h (0 Bft)
21.08.2019 20:46 13,3 °C 93 % 1024,7 hPa 0,0 mm 0,1 km/h (0 Bft) NO 44 ° 0 min 0,000 mm 0,0 UV-I 0 W/m² 12,2 °C 13,3 °C 1,6 km/h (1 Bft)
21.08.2019 20:47 13,2 °C 93 % 1024,7 hPa 0,0 mm 0,0 km/h (0 Bft) NO 44 ° 0 min 0,000 mm 0,0 UV-I 0 W/m² 12,1 °C 13,2 °C 0,0 km/h (0 Bft)
21.08.2019 20:48 13,2 °C 93 % 1024,8 hPa 0,0 mm 0,0 km/h (0 Bft) NO 44 ° 0 min 0,000 mm 0,0 UV-I 0 W/m² 12,1 °C 13,2 °C 0,0 km/h (0 Bft)
21.08.2019 20:49 13,2 °C 93 % 1024,8 hPa 0,0 mm 0,1 km/h (0 Bft) NO 44 ° 0 min 0,000 mm 0,0 UV-I 0 W/m² 12,1 °C 13,2 °C 1,6 km/h (1 Bft)
21.08.2019 20:50 13,3 °C 93 % 1024,8 hPa 0,0 mm 0,3 km/h (0 Bft) NO 44 ° 0 min 0,000 mm 0,0 UV-I 0 W/m² 12,2 °C 13,3 °C 1,6 km/h (1 Bft)
21.08.2019 20:51 13,2 °C 93 % 1024,7 hPa 0,0 mm 0,0 km/h (0 Bft) NO 44 ° 0 min 0,000 mm 0,0 UV-I 0 W/m² 12,1 °C 13,2 °C 0,0 km/h (0 Bft)
21.08.2019 20:52 13,2 °C 93 % 1024,8 hPa 0,0 mm 0,0 km/h (0 Bft) NO 44 ° 0 min 0,000 mm 0,0 UV-I 0 W/m² 12,1 °C 13,2 °C 0,0 km/h (0 Bft)
21.08.2019 20:53 13,2 °C 93 % 1024,8 hPa 0,0 mm 0,2 km/h (0 Bft) NO 51 ° 0 min 0,000 mm 0,0 UV-I 0 W/m² 12,1 °C 13,2 °C 1,6 km/h (1 Bft)
21.08.2019 20:54 13,2 °C 93 % 1024,9 hPa 0,0 mm 0,4 km/h (0 Bft) NO 52 ° 0 min 0,000 mm 0,0 UV-I 0 W/m² 12,1 °C 13,2 °C 1,6 km/h (1 Bft)
21.08.2019 20:55 13,2 °C 93 % 1024,8 hPa 0,0 mm 0,0 km/h (0 Bft) NO 52 ° 0 min 0,000 mm 0,0 UV-I 0 W/m² 12,1 °C 13,2 °C 0,0 km/h (0 Bft)
21.08.2019 20:56 13,3 °C 93 % 1024,9 hPa 0,0 mm 0,0 km/h (0 Bft) NO 52 ° 0 min 0,000 mm 0,0 UV-I 0 W/m² 12,2 °C 13,3 °C 0,0 km/h (0 Bft)
21.08.2019 20:57 13,2 °C 93 % 1024,9 hPa 0,0 mm 0,0 km/h (0 Bft) NO 52 ° 0 min 0,000 mm 0,0 UV-I 0 W/m² 12,1 °C 13,2 °C 0,0 km/h (0 Bft)
21.08.2019 20:58 13,2 °C 93 % 1024,9 hPa 0,0 mm 0,0 km/h (0 Bft) NO 52 ° 0 min 0,000 mm 0,0 UV-I 0 W/m² 12,1 °C 13,2 °C 0,0 km/h (0 Bft)
21.08.2019 20:59 13,2 °C 93 % 1025,0 hPa 0,0 mm 0,0 km/h (0 Bft) NO 52 ° 0 min 0,000 mm 0,0 UV-I 0 W/m² 12,1 °C 13,2 °C 0,0 km/h (0 Bft)
21.08.2019 21:00 13,2 °C 93 % 1025,0 hPa 0,0 mm 0,4 km/h (0 Bft) NO 52 ° 0 min 0,000 mm 0,0 UV-I 0 W/m² 12,1 °C 13,2 °C 3,2 km/h (1 Bft)
21.08.2019 21:01 13,2 °C 93 % 1025,0 hPa 0,0 mm 0,0 km/h (0 Bft) NO 52 ° 0 min 0,000 mm 0,0 UV-I 0 W/m² 12,1 °C 13,2 °C 0,0 km/h (0 Bft)
21.08.2019 21:02 13,2 °C 93 % 1024,9 hPa 0,0 mm 0,0 km/h (0 Bft) NO 52 ° 0 min 0,000 mm 0,0 UV-I 0 W/m² 12,1 °C 13,2 °C 0,0 km/h (0 Bft)
21.08.2019 21:03 13,2 °C 93 % 1024,9 hPa 0,0 mm 0,0 km/h (0 Bft) NO 52 ° 0 min 0,000 mm 0,0 UV-I 0 W/m² 12,1 °C 13,2 °C 0,0 km/h (0 Bft)
21.08.2019 21:04 13,2 °C 93 % 1025,0 hPa 0,0 mm 0,0 km/h (0 Bft) NO 52 ° 0 min 0,000 mm 0,0 UV-I 0 W/m² 12,1 °C 13,2 °C 0,0 km/h (0 Bft)
21.08.2019 21:05 13,2 °C 93 % 1025,0 hPa 0,0 mm 0,0 km/h (0 Bft) NO 52 ° 0 min 0,000 mm 0,0 UV-I 0 W/m² 12,1 °C 13,2 °C 0,0 km/h (0 Bft)
21.08.2019 21:06 13,2 °C 93 % 1024,9 hPa 0,0 mm 0,0 km/h (0 Bft) NO 52 ° 0 min 0,000 mm 0,0 UV-I 0 W/m² 12,1 °C 13,2 °C 0,0 km/h (0 Bft)
21.08.2019 21:07 13,2 °C 93 % 1025,0 hPa 0,0 mm 0,0 km/h (0 Bft) NO 52 ° 0 min 0,000 mm 0,0 UV-I 0 W/m² 12,1 °C 13,2 °C 0,0 km/h (0 Bft)
21.08.2019 21:08 13,2 °C 93 % 1025,0 hPa 0,0 mm 0,0 km/h (0 Bft) NO 52 ° 0 min 0,000 mm 0,0 UV-I 0 W/m² 12,1 °C 13,2 °C 0,0 km/h (0 Bft)
21.08.2019 21:09 13,2 °C 93 % 1025,0 hPa 0,0 mm 0,0 km/h (0 Bft) NO 52 ° 0 min 0,000 mm 0,0 UV-I 0 W/m² 12,1 °C 13,2 °C 0,0 km/h (0 Bft)
21.08.2019 21:10 13,2 °C 93 % 1025,0 hPa 0,0 mm 0,0 km/h (0 Bft) NO 52 ° 0 min 0,000 mm 0,0 UV-I 0 W/m² 12,1 °C 13,2 °C 0,0 km/h (0 Bft)
21.08.2019 21:11 13,2 °C 93 % 1025,0 hPa 0,0 mm 0,0 km/h (0 Bft) NO 52 ° 0 min 0,000 mm 0,0 UV-I 0 W/m² 12,1 °C 13,2 °C 0,0 km/h (0 Bft)
21.08.2019 21:12 13,2 °C 93 % 1024,9 hPa 0,0 mm 0,0 km/h (0 Bft) NO 52 ° 0 min 0,000 mm 0,0 UV-I 0 W/m² 12,1 °C 13,2 °C 0,0 km/h (0 Bft)
21.08.2019 21:13 13,2 °C 93 % 1024,9 hPa 0,0 mm 0,0 km/h (0 Bft) NO 52 ° 0 min 0,000 mm 0,0 UV-I 0 W/m² 12,1 °C 13,2 °C 0,0 km/h (0 Bft)
21.08.2019 21:14 13,2 °C 93 % 1024,9 hPa 0,0 mm 0,0 km/h (0 Bft) NO 52 ° 0 min 0,000 mm 0,0 UV-I 0 W/m² 12,1 °C 13,2 °C 0,0 km/h (0 Bft)
21.08.2019 21:15 13,2 °C 93 % 1024,9 hPa 0,0 mm 0,0 km/h (0 Bft) NO 52 ° 0 min 0,000 mm 0,0 UV-I 0 W/m² 12,1 °C 13,2 °C 0,0 km/h (0 Bft)
21.08.2019 21:16 13,2 °C 93 % 1024,9 hPa 0,0 mm 0,0 km/h (0 Bft) NO 52 ° 0 min 0,000 mm 0,0 UV-I 0 W/m² 12,1 °C 13,2 °C 0,0 km/h (0 Bft)
21.08.2019 21:17 13,2 °C 93 % 1024,9 hPa 0,0 mm 0,0 km/h (0 Bft) NO 52 ° 0 min 0,000 mm 0,0 UV-I 0 W/m² 12,1 °C 13,2 °C 0,0 km/h (0 Bft)
21.08.2019 21:18 13,2 °C 93 % 1024,8 hPa 0,0 mm 0,0 km/h (0 Bft) NO 52 ° 0 min 0,000 mm 0,0 UV-I 0 W/m² 12,1 °C 13,2 °C 0,0 km/h (0 Bft)
21.08.2019 21:19 13,2 °C 93 % 1024,9 hPa 0,0 mm 0,0 km/h (0 Bft) NO 52 ° 0 min 0,000 mm 0,0 UV-I 0 W/m² 12,1 °C 13,2 °C 0,0 km/h (0 Bft)
21.08.2019 21:20 13,2 °C 93 % 1024,8 hPa 0,0 mm 0,0 km/h (0 Bft) NO 52 ° 0 min 0,000 mm 0,0 UV-I 0 W/m² 12,1 °C 13,2 °C 0,0 km/h (0 Bft)
21.08.2019 21:21 13,2 °C 93 % 1024,8 hPa 0,0 mm 0,1 km/h (0 Bft) NO 52 ° 0 min 0,000 mm 0,0 UV-I 0 W/m² 12,1 °C 13,2 °C 1,6 km/h (1 Bft)
21.08.2019 21:22 13,2 °C 93 % 1024,7 hPa 0,0 mm 0,1 km/h (0 Bft) NO 52 ° 0 min 0,000 mm 0,0 UV-I 0 W/m² 12,1 °C 13,2 °C 1,6 km/h (1 Bft)
21.08.2019 21:23 13,2 °C 93 % 1024,7 hPa 0,0 mm 0,0 km/h (0 Bft) NO 52 ° 0 min 0,000 mm 0,0 UV-I 0 W/m² 12,1 °C 13,2 °C 0,0 km/h (0 Bft)
21.08.2019 21:24 13,2 °C 93 % 1024,7 hPa 0,0 mm 0,0 km/h (0 Bft) NO 52 ° 0 min 0,000 mm 0,0 UV-I 0 W/m² 12,1 °C 13,2 °C 0,0 km/h (0 Bft)
21.08.2019 21:25 13,2 °C 93 % 1024,7 hPa 0,0 mm 0,0 km/h (0 Bft) NO 52 ° 0 min 0,000 mm 0,0 UV-I 0 W/m² 12,1 °C 13,2 °C 0,0 km/h (0 Bft)
21.08.2019 21:26 13,2 °C 93 % 1024,7 hPa 0,0 mm 0,0 km/h (0 Bft) NO 52 ° 0 min 0,000 mm 0,0 UV-I 0 W/m² 12,1 °C 13,2 °C 0,0 km/h (0 Bft)
21.08.2019 21:27 13,2 °C 93 % 1024,7 hPa 0,0 mm 0,0 km/h (0 Bft) NO 52 ° 0 min 0,000 mm 0,0 UV-I 0 W/m² 12,1 °C 13,2 °C 0,0 km/h (0 Bft)
21.08.2019 21:28 13,2 °C 93 % 1024,7 hPa 0,0 mm 0,0 km/h (0 Bft) NO 52 ° 0 min 0,000 mm 0,0 UV-I 0 W/m² 12,1 °C 13,2 °C 0,0 km/h (0 Bft)
21.08.2019 21:29 13,2 °C 93 % 1024,7 hPa 0,0 mm 0,0 km/h (0 Bft) NO 52 ° 0 min 0,000 mm 0,0 UV-I 0 W/m² 12,1 °C 13,2 °C 0,0 km/h (0 Bft)
21.08.2019 21:30 13,2 °C 93 % 1024,7 hPa 0,0 mm 0,1 km/h (0 Bft) NO 52 ° 0 min 0,000 mm 0,0 UV-I 0 W/m² 12,1 °C 13,2 °C 1,6 km/h (1 Bft)
21.08.2019 21:31 13,2 °C 93 % 1024,7 hPa 0,0 mm 0,0 km/h (0 Bft) NO 52 ° 0 min 0,000 mm 0,0 UV-I 0 W/m² 12,1 °C 13,2 °C 0,0 km/h (0 Bft)
21.08.2019 21:32 13,2 °C 93 % 1024,7 hPa 0,0 mm 0,0 km/h (0 Bft) NO 52 ° 0 min 0,000 mm 0,0 UV-I 0 W/m² 12,1 °C 13,2 °C 0,0 km/h (0 Bft)
21.08.2019 21:33 13,2 °C 93 % 1024,7 hPa 0,0 mm 0,0 km/h (0 Bft) NO 52 ° 0 min 0,000 mm 0,0 UV-I 0 W/m² 12,1 °C 13,2 °C 0,0 km/h (0 Bft)
21.08.2019 21:34 13,2 °C 93 % 1024,6 hPa 0,0 mm 0,0 km/h (0 Bft) NO 52 ° 0 min 0,000 mm 0,0 UV-I 0 W/m² 12,1 °C 13,2 °C 0,0 km/h (0 Bft)
21.08.2019 21:35 13,2 °C 93 % 1024,6 hPa 0,0 mm 0,0 km/h (0 Bft) NO 52 ° 0 min 0,000 mm 0,0 UV-I 0 W/m² 12,1 °C 13,2 °C 0,0 km/h (0 Bft)
21.08.2019 21:36 13,2 °C 93 % 1024,6 hPa 0,0 mm 0,0 km/h (0 Bft) NO 52 ° 0 min 0,000 mm 0,0 UV-I 0 W/m² 12,1 °C 13,2 °C 0,0 km/h (0 Bft)
21.08.2019 21:37 13,2 °C 93 % 1024,7 hPa 0,0 mm 0,0 km/h (0 Bft) NO 52 ° 0 min 0,000 mm 0,0 UV-I 0 W/m² 12,1 °C 13,2 °C 0,0 km/h (0 Bft)
21.08.2019 21:38 13,2 °C 93 % 1024,6 hPa 0,0 mm 0,0 km/h (0 Bft) NO 52 ° 0 min 0,000 mm 0,0 UV-I 0 W/m² 12,1 °C 13,2 °C 0,0 km/h (0 Bft)
21.08.2019 21:39 13,1 °C 93 % 1024,6 hPa 0,0 mm 0,0 km/h (0 Bft) NO 52 ° 0 min 0,000 mm 0,0 UV-I 0 W/m² 12,0 °C 13,1 °C 0,0 km/h (0 Bft)
21.08.2019 21:40 13,1 °C 93 % 1024,7 hPa 0,0 mm 0,0 km/h (0 Bft) NO 52 ° 0 min 0,000 mm 0,0 UV-I 0 W/m² 12,0 °C 13,1 °C 0,0 km/h (0 Bft)
21.08.2019 21:41 13,2 °C 93 % 1024,7 hPa 0,0 mm 0,0 km/h (0 Bft) NO 52 ° 0 min 0,000 mm 0,0 UV-I 0 W/m² 12,1 °C 13,2 °C 0,0 km/h (0 Bft)
21.08.2019 21:42 13,2 °C 93 % 1024,7 hPa 0,0 mm 0,0 km/h (0 Bft) NO 52 ° 0 min 0,000 mm 0,0 UV-I 0 W/m² 12,1 °C 13,2 °C 0,0 km/h (0 Bft)
21.08.2019 21:43 13,2 °C 93 % 1024,7 hPa 0,0 mm 0,0 km/h (0 Bft) NO 52 ° 0 min 0,000 mm 0,0 UV-I 0 W/m² 12,1 °C 13,2 °C 0,0 km/h (0 Bft)
21.08.2019 21:44 13,2 °C 93 % 1024,7 hPa 0,0 mm 0,0 km/h (0 Bft) NO 52 ° 0 min 0,000 mm 0,0 UV-I 0 W/m² 12,1 °C 13,2 °C 0,0 km/h (0 Bft)
21.08.2019 21:45 13,2 °C 93 % 1024,7 hPa 0,0 mm 0,0 km/h (0 Bft) NO 52 ° 0 min 0,000 mm 0,0 UV-I 0 W/m² 12,1 °C 13,2 °C 0,0 km/h (0 Bft)
21.08.2019 21:46 13,1 °C 93 % 1024,7 hPa 0,0 mm 0,0 km/h (0 Bft) NO 52 ° 0 min 0,000 mm 0,0 UV-I 0 W/m² 12,0 °C 13,1 °C 0,0 km/h (0 Bft)
21.08.2019 21:47 13,1 °C 93 % 1024,7 hPa 0,0 mm 0,0 km/h (0 Bft) NO 52 ° 0 min 0,000 mm 0,0 UV-I 0 W/m² 12,0 °C 13,1 °C 0,0 km/h (0 Bft)
21.08.2019 21:48 13,1 °C 93 % 1024,6 hPa 0,0 mm 0,0 km/h (0 Bft) NO 52 ° 0 min 0,000 mm 0,0 UV-I 0 W/m² 12,0 °C 13,1 °C 0,0 km/h (0 Bft)
21.08.2019 21:49 13,1 °C 93 % 1024,6 hPa 0,0 mm 0,0 km/h (0 Bft) NO 52 ° 0 min 0,000 mm 0,0 UV-I 0 W/m² 12,0 °C 13,1 °C 0,0 km/h (0 Bft)
21.08.2019 21:50 13,1 °C 93 % 1024,6 hPa 0,0 mm 0,0 km/h (0 Bft) NO 52 ° 0 min 0,000 mm 0,0 UV-I 0 W/m² 12,0 °C 13,1 °C 0,0 km/h (0 Bft)
21.08.2019 21:51 13,1 °C 93 % 1024,6 hPa 0,0 mm 0,0 km/h (0 Bft) NO 52 ° 0 min 0,000 mm 0,0 UV-I 0 W/m² 12,0 °C 13,1 °C 0,0 km/h (0 Bft)
21.08.2019 21:52 13,1 °C 94 % 1024,7 hPa 0,0 mm 0,0 km/h (0 Bft) NO 52 ° 0 min 0,000 mm 0,0 UV-I 0 W/m² 12,2 °C 13,1 °C 0,0 km/h (0 Bft)
21.08.2019 21:53 13,1 °C 94 % 1024,7 hPa 0,0 mm 0,0 km/h (0 Bft) NO 52 ° 0 min 0,000 mm 0,0 UV-I 0 W/m² 12,2 °C 13,1 °C 0,0 km/h (0 Bft)
21.08.2019 21:54 13,0 °C 94 % 1024,6 hPa 0,0 mm 0,0 km/h (0 Bft) NO 52 ° 0 min 0,000 mm 0,0 UV-I 0 W/m² 12,1 °C 13,0 °C 0,0 km/h (0 Bft)
21.08.2019 21:55 13,0 °C 94 % 1024,7 hPa 0,0 mm 0,0 km/h (0 Bft) NO 52 ° 0 min 0,000 mm 0,0 UV-I 0 W/m² 12,1 °C 13,0 °C 0,0 km/h (0 Bft)
21.08.2019 21:56 13,0 °C 94 % 1024,7 hPa 0,0 mm 0,0 km/h (0 Bft) NO 52 ° 0 min 0,000 mm 0,0 UV-I 0 W/m² 12,1 °C 13,0 °C 0,0 km/h (0 Bft)
21.08.2019 21:57 13,0 °C 94 % 1024,7 hPa 0,0 mm 0,0 km/h (0 Bft) NO 52 ° 0 min 0,000 mm 0,0 UV-I 0 W/m² 12,1 °C 13,0 °C 0,0 km/h (0 Bft)
21.08.2019 21:58 13,0 °C 94 % 1024,7 hPa 0,0 mm 0,0 km/h (0 Bft) NO 52 ° 0 min 0,000 mm 0,0 UV-I 0 W/m² 12,1 °C 13,0 °C 0,0 km/h (0 Bft)
21.08.2019 21:59 12,9 °C 94 % 1024,7 hPa 0,0 mm 0,0 km/h (0 Bft) NO 52 ° 0 min 0,000 mm 0,0 UV-I 0 W/m² 12,0 °C 12,9 °C 0,0 km/h (0 Bft)
21.08.2019 22:00 12,9 °C 94 % 1024,7 hPa 0,0 mm 0,0 km/h (0 Bft) NO 52 ° 0 min 0,000 mm 0,0 UV-I 0 W/m² 12,0 °C 12,9 °C 0,0 km/h (0 Bft)
21.08.2019 22:01 12,9 °C 94 % 1024,7 hPa 0,0 mm 0,0 km/h (0 Bft) NO 52 ° 0 min 0,000 mm 0,0 UV-I 0 W/m² 12,0 °C 12,9 °C 0,0 km/h (0 Bft)
21.08.2019 22:02 12,9 °C 94 % 1024,7 hPa 0,0 mm 0,0 km/h (0 Bft) NO 52 ° 0 min 0,000 mm 0,0 UV-I 0 W/m² 12,0 °C 12,9 °C 0,0 km/h (0 Bft)
21.08.2019 22:03 12,9 °C 94 % 1024,8 hPa 0,0 mm 0,0 km/h (0 Bft) NO 52 ° 0 min 0,000 mm 0,0 UV-I 0 W/m² 12,0 °C 12,9 °C 0,0 km/h (0 Bft)
21.08.2019 22:04 12,9 °C 94 % 1024,7 hPa 0,0 mm 0,0 km/h (0 Bft) NO 52 ° 0 min 0,000 mm 0,0 UV-I 0 W/m² 12,0 °C 12,9 °C 0,0 km/h (0 Bft)
21.08.2019 22:05 12,9 °C 94 % 1024,7 hPa 0,0 mm 0,0 km/h (0 Bft) NO 52 ° 0 min 0,000 mm 0,0 UV-I 0 W/m² 12,0 °C 12,9 °C 0,0 km/h (0 Bft)
21.08.2019 22:06 12,9 °C 94 % 1024,8 hPa 0,0 mm 0,0 km/h (0 Bft) NO 52 ° 0 min 0,000 mm 0,0 UV-I 0 W/m² 12,0 °C 12,9 °C 0,0 km/h (0 Bft)
21.08.2019 22:07 12,9 °C 94 % 1024,7 hPa 0,0 mm 0,0 km/h (0 Bft) NO 52 ° 0 min 0,000 mm 0,0 UV-I 0 W/m² 12,0 °C 12,9 °C 0,0 km/h (0 Bft)
21.08.2019 22:08 12,9 °C 94 % 1024,7 hPa 0,0 mm 0,0 km/h (0 Bft) NO 52 ° 0 min 0,000 mm 0,0 UV-I 0 W/m² 12,0 °C 12,9 °C 0,0 km/h (0 Bft)
21.08.2019 22:09 12,9 °C 94 % 1024,7 hPa 0,0 mm 0,0 km/h (0 Bft) NO 52 ° 0 min 0,000 mm 0,0 UV-I 0 W/m² 12,0 °C 12,9 °C 0,0 km/h (0 Bft)
21.08.2019 22:10 12,9 °C 94 % 1024,7 hPa 0,0 mm 0,0 km/h (0 Bft) NO 52 ° 0 min 0,000 mm 0,0 UV-I 0 W/m² 12,0 °C 12,9 °C 0,0 km/h (0 Bft)
21.08.2019 22:11 12,9 °C 94 % 1024,7 hPa 0,0 mm 0,0 km/h (0 Bft) NO 52 ° 0 min 0,000 mm 0,0 UV-I 0 W/m² 12,0 °C 12,9 °C 0,0 km/h (0 Bft)
21.08.2019 22:12 12,9 °C 94 % 1024,7 hPa 0,0 mm 0,0 km/h (0 Bft) NO 52 ° 0 min 0,000 mm 0,0 UV-I 0 W/m² 12,0 °C 12,9 °C 0,0 km/h (0 Bft)
21.08.2019 22:13 12,9 °C 94 % 1024,7 hPa 0,0 mm 0,0 km/h (0 Bft) NO 52 ° 0 min 0,000 mm 0,0 UV-I 0 W/m² 12,0 °C 12,9 °C 0,0 km/h (0 Bft)
21.08.2019 22:14 12,9 °C 94 % 1024,7 hPa 0,0 mm 0,0 km/h (0 Bft) NO 52 ° 0 min 0,000 mm 0,0 UV-I 0 W/m² 12,0 °C 12,9 °C 0,0 km/h (0 Bft)
21.08.2019 22:15 12,9 °C 94 % 1024,7 hPa 0,0 mm 0,0 km/h (0 Bft) NO 52 ° 0 min 0,000 mm 0,0 UV-I 0 W/m² 12,0 °C 12,9 °C 0,0 km/h (0 Bft)
21.08.2019 22:16 12,9 °C 94 % 1024,7 hPa 0,0 mm 0,0 km/h (0 Bft) NO 52 ° 0 min 0,000 mm 0,0 UV-I 0 W/m² 12,0 °C 12,9 °C 0,0 km/h (0 Bft)
21.08.2019 22:17 12,9 °C 94 % 1024,7 hPa 0,0 mm 0,0 km/h (0 Bft) NO 52 ° 0 min 0,000 mm 0,0 UV-I 0 W/m² 12,0 °C 12,9 °C 0,0 km/h (0 Bft)
21.08.2019 22:18 12,9 °C 94 % 1024,7 hPa 0,0 mm 0,0 km/h (0 Bft) NO 52 ° 0 min 0,000 mm 0,0 UV-I 0 W/m² 12,0 °C 12,9 °C 0,0 km/h (0 Bft)
21.08.2019 22:19 12,9 °C 94 % 1024,7 hPa 0,0 mm 0,0 km/h (0 Bft) NO 52 ° 0 min 0,000 mm 0,0 UV-I 0 W/m² 12,0 °C 12,9 °C 0,0 km/h (0 Bft)
21.08.2019 22:20 12,9 °C 94 % 1024,7 hPa 0,0 mm 0,0 km/h (0 Bft) NO 52 ° 0 min 0,000 mm 0,0 UV-I 0 W/m² 12,0 °C 12,9 °C 0,0 km/h (0 Bft)
21.08.2019 22:21 12,9 °C 94 % 1024,7 hPa 0,0 mm 0,9 km/h (0 Bft) NO 52 ° 0 min 0,000 mm 0,0 UV-I 0 W/m² 12,0 °C 12,9 °C 1,6 km/h (1 Bft)
21.08.2019 22:22 12,9 °C 94 % 1024,7 hPa 0,0 mm 0,0 km/h (0 Bft) NO 52 ° 0 min 0,000 mm 0,0 UV-I 0 W/m² 12,0 °C 12,9 °C 0,0 km/h (0 Bft)
21.08.2019 22:23 12,9 °C 94 % 1024,7 hPa 0,0 mm 0,0 km/h (0 Bft) NO 52 ° 0 min 0,000 mm 0,0 UV-I 0 W/m² 12,0 °C 12,9 °C 0,0 km/h (0 Bft)
21.08.2019 22:24 12,9 °C 94 % 1024,6 hPa 0,0 mm 0,3 km/h (0 Bft) NO 52 ° 0 min 0,000 mm 0,0 UV-I 0 W/m² 12,0 °C 12,9 °C 1,6 km/h (1 Bft)
21.08.2019 22:25 12,9 °C 94 % 1024,6 hPa 0,0 mm 1,7 km/h (1 Bft) NO 52 ° 0 min 0,000 mm 0,0 UV-I 0 W/m² 12,0 °C 12,9 °C 3,2 km/h (1 Bft)
21.08.2019 22:26 12,9 °C 94 % 1024,6 hPa 0,0 mm 0,1 km/h (0 Bft) NO 52 ° 0 min 0,000 mm 0,0 UV-I 0 W/m² 12,0 °C 12,9 °C 1,6 km/h (1 Bft)
21.08.2019 22:27 12,9 °C 94 % 1024,6 hPa 0,0 mm 0,0 km/h (0 Bft) NO 52 ° 0 min 0,000 mm 0,0 UV-I 0 W/m² 12,0 °C 12,9 °C 0,0 km/h (0 Bft)
21.08.2019 22:28 12,9 °C 94 % 1024,5 hPa 0,0 mm 0,0 km/h (0 Bft) NO 52 ° 0 min 0,000 mm 0,0 UV-I 0 W/m² 12,0 °C 12,9 °C 0,0 km/h (0 Bft)
21.08.2019 22:29 12,9 °C 94 % 1024,5 hPa 0,0 mm 0,0 km/h (0 Bft) NO 52 ° 0 min 0,000 mm 0,0 UV-I 0 W/m² 12,0 °C 12,9 °C 0,0 km/h (0 Bft)
21.08.2019 22:30 12,9 °C 94 % 1024,5 hPa 0,0 mm 0,0 km/h (0 Bft) NO 52 ° 0 min 0,000 mm 0,0 UV-I 0 W/m² 12,0 °C 12,9 °C 0,0 km/h (0 Bft)
21.08.2019 22:31 12,9 °C 94 % 1024,4 hPa 0,0 mm 0,0 km/h (0 Bft) NO 52 ° 0 min 0,000 mm 0,0 UV-I 0 W/m² 12,0 °C 12,9 °C 0,0 km/h (0 Bft)
21.08.2019 22:32 12,9 °C 94 % 1024,4 hPa 0,0 mm 1,3 km/h (1 Bft) NO 52 ° 0 min 0,000 mm 0,0 UV-I 0 W/m² 12,0 °C 12,9 °C 3,2 km/h (1 Bft)
21.08.2019 22:33 12,9 °C 94 % 1024,4 hPa 0,0 mm 0,3 km/h (0 Bft) NO 52 ° 0 min 0,000 mm 0,0 UV-I 0 W/m² 12,0 °C 12,9 °C 1,6 km/h (1 Bft)
21.08.2019 22:34 12,9 °C 94 % 1024,3 hPa 0,0 mm 0,0 km/h (0 Bft) NO 52 ° 0 min 0,000 mm 0,0 UV-I 0 W/m² 12,0 °C 12,9 °C 0,0 km/h (0 Bft)
21.08.2019 22:35 12,9 °C 94 % 1024,3 hPa 0,0 mm 0,0 km/h (0 Bft) NO 52 ° 0 min 0,000 mm 0,0 UV-I 0 W/m² 12,0 °C 12,9 °C 0,0 km/h (0 Bft)
21.08.2019 22:36 12,9 °C 94 % 1024,2 hPa 0,0 mm 0,0 km/h (0 Bft) NO 52 ° 0 min 0,000 mm 0,0 UV-I 0 W/m² 12,0 °C 12,9 °C 0,0 km/h (0 Bft)
21.08.2019 22:37 12,9 °C 94 % 1024,3 hPa 0,0 mm 2,8 km/h (1 Bft) O-NO 72 ° 0 min 0,000 mm 0,0 UV-I 0 W/m² 12,0 °C 12,9 °C 6,4 km/h (2 Bft)
21.08.2019 22:38 12,9 °C 94 % 1024,2 hPa 0,0 mm 1,8 km/h (1 Bft) O-NO 72 ° 0 min 0,000 mm 0,0 UV-I 0 W/m² 12,0 °C 12,9 °C 3,2 km/h (1 Bft)
21.08.2019 22:39 12,8 °C 94 % 1024,2 hPa 0,0 mm 2,9 km/h (1 Bft) O-NO 72 ° 0 min 0,000 mm 0,0 UV-I 0 W/m² 11,9 °C 12,8 °C 4,8 km/h (1 Bft)
21.08.2019 22:40 12,8 °C 94 % 1024,2 hPa 0,0 mm 0,3 km/h (0 Bft) O-NO 72 ° 0 min 0,000 mm 0,0 UV-I 0 W/m² 11,9 °C 12,8 °C 1,6 km/h (1 Bft)
21.08.2019 22:41 12,8 °C 94 % 1024,1 hPa 0,0 mm 0,7 km/h (0 Bft) O-NO 72 ° 0 min 0,000 mm 0,0 UV-I 0 W/m² 11,9 °C 12,8 °C 1,6 km/h (1 Bft)
21.08.2019 22:42 12,8 °C 94 % 1024,1 hPa 0,0 mm 0,0 km/h (0 Bft) O-NO 72 ° 0 min 0,000 mm 0,0 UV-I 0 W/m² 11,9 °C 12,8 °C 0,0 km/h (0 Bft)
21.08.2019 22:43 12,8 °C 94 % 1024,1 hPa 0,0 mm 0,9 km/h (0 Bft) O-NO 72 ° 0 min 0,000 mm 0,0 UV-I 0 W/m² 11,9 °C 12,8 °C 3,2 km/h (1 Bft)
21.08.2019 22:44 12,8 °C 94 % 1024,1 hPa 0,0 mm 1,1 km/h (1 Bft) O-NO 72 ° 0 min 0,000 mm 0,0 UV-I 0 W/m² 11,9 °C 12,8 °C 3,2 km/h (1 Bft)
21.08.2019 22:45 12,8 °C 94 % 1024,1 hPa 0,0 mm 1,7 km/h (1 Bft) O-NO 72 ° 0 min 0,000 mm 0,0 UV-I 0 W/m² 11,9 °C 12,8 °C 3,2 km/h (1 Bft)
21.08.2019 22:46 12,8 °C 94 % 1024,1 hPa 0,0 mm 2,7 km/h (1 Bft) O-NO 74 ° 0 min 0,000 mm 0,0 UV-I 0 W/m² 11,9 °C 12,8 °C 4,8 km/h (1 Bft)
21.08.2019 22:47 12,8 °C 95 % 1024,1 hPa 0,0 mm 2,1 km/h (1 Bft) O-NO 74 ° 0 min 0,000 mm 0,0 UV-I 0 W/m² 12,0 °C 12,8 °C 3,2 km/h (1 Bft)
21.08.2019 22:48 12,8 °C 95 % 1024,1 hPa 0,0 mm 2,5 km/h (1 Bft) O-NO 74 ° 0 min 0,000 mm 0,0 UV-I 0 W/m² 12,0 °C 12,8 °C 4,8 km/h (1 Bft)
21.08.2019 22:49 12,9 °C 95 % 1024,0 hPa 0,0 mm 1,1 km/h (1 Bft) O-NO 74 ° 0 min 0,000 mm 0,0 UV-I 0 W/m² 12,1 °C 12,9 °C 3,2 km/h (1 Bft)
21.08.2019 22:50 12,8 °C 94 % 1024,0 hPa 0,0 mm 1,9 km/h (1 Bft) O-NO 74 ° 0 min 0,000 mm 0,0 UV-I 0 W/m² 11,9 °C 12,8 °C 4,8 km/h (1 Bft)
21.08.2019 22:51 12,8 °C 94 % 1024,0 hPa 0,0 mm 2,6 km/h (1 Bft) O-NO 64 ° 0 min 0,000 mm 0,0 UV-I 0 W/m² 11,9 °C 12,8 °C 4,8 km/h (1 Bft)
21.08.2019 22:52 12,9 °C 94 % 1024,0 hPa 0,0 mm 2,1 km/h (1 Bft) O-NO 64 ° 0 min 0,000 mm 0,0 UV-I 0 W/m² 12,0 °C 12,9 °C 3,2 km/h (1 Bft)
21.08.2019 22:53 12,9 °C 94 % 1024,0 hPa 0,0 mm 2,3 km/h (1 Bft) O-NO 64 ° 0 min 0,000 mm 0,0 UV-I 0 W/m² 12,0 °C 12,9 °C 4,8 km/h (1 Bft)
21.08.2019 22:54 12,8 °C 94 % 1024,0 hPa 0,0 mm 1,1 km/h (1 Bft) O-NO 64 ° 0 min 0,000 mm 0,0 UV-I 0 W/m² 11,9 °C 12,8 °C 1,6 km/h (1 Bft)
21.08.2019 22:55 12,8 °C 94 % 1024,0 hPa 0,0 mm 1,1 km/h (1 Bft) O-NO 64 ° 0 min 0,000 mm 0,0 UV-I 0 W/m² 11,9 °C 12,8 °C 1,6 km/h (1 Bft)
21.08.2019 22:56 12,8 °C 94 % 1024,0 hPa 0,0 mm 0,3 km/h (0 Bft) O-NO 64 ° 0 min 0,000 mm 0,0 UV-I 0 W/m² 11,9 °C 12,8 °C 1,6 km/h (1 Bft)
21.08.2019 22:57 12,8 °C 94 % 1024,0 hPa 0,0 mm 0,0 km/h (0 Bft) O-NO 64 ° 0 min 0,000 mm 0,0 UV-I 0 W/m² 11,9 °C 12,8 °C 0,0 km/h (0 Bft)
21.08.2019 22:58 12,8 °C 94 % 1024,0 hPa 0,0 mm 0,0 km/h (0 Bft) O-NO 64 ° 0 min 0,000 mm 0,0 UV-I 0 W/m² 11,9 °C 12,8 °C 0,0 km/h (0 Bft)
21.08.2019 22:59 12,8 °C 94 % 1024,0 hPa 0,0 mm 0,0 km/h (0 Bft) O-NO 64 ° 0 min 0,000 mm 0,0 UV-I 0 W/m² 11,9 °C 12,8 °C 0,0 km/h (0 Bft)
21.08.2019 23:00 12,8 °C 94 % 1024,0 hPa 0,0 mm 0,0 km/h (0 Bft) O-NO 64 ° 0 min 0,000 mm 0,0 UV-I 0 W/m² 11,9 °C 12,8 °C 0,0 km/h (0 Bft)
21.08.2019 23:01 12,8 °C 94 % 1024,0 hPa 0,0 mm 0,1 km/h (0 Bft) O-NO 64 ° 0 min 0,000 mm 0,0 UV-I 0 W/m² 11,9 °C 12,8 °C 1,6 km/h (1 Bft)
21.08.2019 23:02 12,8 °C 94 % 1024,0 hPa 0,0 mm 0,0 km/h (0 Bft) O-NO 64 ° 0 min 0,000 mm 0,0 UV-I 0 W/m² 11,9 °C 12,8 °C 0,0 km/h (0 Bft)
21.08.2019 23:03 12,8 °C 94 % 1023,8 hPa 0,0 mm 0,5 km/h (0 Bft) O-NO 64 ° 0 min 0,000 mm 0,0 UV-I 0 W/m² 11,9 °C 12,8 °C 1,6 km/h (1 Bft)
21.08.2019 23:04 12,8 °C 94 % 1023,9 hPa 0,0 mm 0,0 km/h (0 Bft) O-NO 64 ° 0 min 0,000 mm 0,0 UV-I 0 W/m² 11,9 °C 12,8 °C 0,0 km/h (0 Bft)
21.08.2019 23:05 12,8 °C 94 % 1023,9 hPa 0,0 mm 0,1 km/h (0 Bft) O-NO 64 ° 0 min 0,000 mm 0,0 UV-I 0 W/m² 11,9 °C 12,8 °C 1,6 km/h (1 Bft)
21.08.2019 23:06 12,7 °C 94 % 1023,9 hPa 0,0 mm 0,0 km/h (0 Bft) O-NO 64 ° 0 min 0,000 mm 0,0 UV-I 0 W/m² 11,8 °C 12,7 °C 0,0 km/h (0 Bft)
21.08.2019 23:07 12,7 °C 94 % 1023,9 hPa 0,0 mm 0,0 km/h (0 Bft) O-NO 64 ° 0 min 0,000 mm 0,0 UV-I 0 W/m² 11,8 °C 12,7 °C 0,0 km/h (0 Bft)
21.08.2019 23:08 12,7 °C 94 % 1023,8 hPa 0,0 mm 0,0 km/h (0 Bft) O-NO 64 ° 0 min 0,000 mm 0,0 UV-I 0 W/m² 11,8 °C 12,7 °C 0,0 km/h (0 Bft)
21.08.2019 23:09 12,7 °C 94 % 1023,9 hPa 0,0 mm 0,0 km/h (0 Bft) O-NO 64 ° 0 min 0,000 mm 0,0 UV-I 0 W/m² 11,8 °C 12,7 °C 0,0 km/h (0 Bft)
21.08.2019 23:10 12,7 °C 94 % 1023,9 hPa 0,0 mm 0,0 km/h (0 Bft) O-NO 64 ° 0 min 0,000 mm 0,0 UV-I 0 W/m² 11,8 °C 12,7 °C 0,0 km/h (0 Bft)
21.08.2019 23:11 12,7 °C 94 % 1023,9 hPa 0,0 mm 0,0 km/h (0 Bft) O-NO 64 ° 0 min 0,000 mm 0,0 UV-I 0 W/m² 11,8 °C 12,7 °C 0,0 km/h (0 Bft)
21.08.2019 23:12 12,7 °C 94 % 1023,9 hPa 0,0 mm 0,0 km/h (0 Bft) O-NO 64 ° 0 min 0,000 mm 0,0 UV-I 0 W/m² 11,8 °C 12,7 °C 0,0 km/h (0 Bft)
21.08.2019 23:13 12,7 °C 94 % 1023,9 hPa 0,0 mm 0,0 km/h (0 Bft) O-NO 64 ° 0 min 0,000 mm 0,0 UV-I 0 W/m² 11,8 °C 12,7 °C 0,0 km/h (0 Bft)
21.08.2019 23:14 12,7 °C 94 % 1023,9 hPa 0,0 mm 0,8 km/h (0 Bft) O-NO 64 ° 0 min 0,000 mm 0,0 UV-I 0 W/m² 11,8 °C 12,7 °C 3,2 km/h (1 Bft)
21.08.2019 23:15 12,6 °C 94 % 1023,9 hPa 0,0 mm 0,1 km/h (0 Bft) O-NO 64 ° 0 min 0,000 mm 0,0 UV-I 0 W/m² 11,7 °C 12,6 °C 1,6 km/h (1 Bft)
21.08.2019 23:16 12,7 °C 94 % 1023,9 hPa 0,0 mm 0,0 km/h (0 Bft) O-NO 64 ° 0 min 0,000 mm 0,0 UV-I 0 W/m² 11,8 °C 12,7 °C 0,0 km/h (0 Bft)
21.08.2019 23:17 12,7 °C 94 % 1023,9 hPa 0,0 mm 0,0 km/h (0 Bft) O-NO 64 ° 0 min 0,000 mm 0,0 UV-I 0 W/m² 11,8 °C 12,7 °C 0,0 km/h (0 Bft)
21.08.2019 23:18 12,7 °C 94 % 1024,0 hPa 0,0 mm 0,0 km/h (0 Bft) O-NO 64 ° 0 min 0,000 mm 0,0 UV-I 0 W/m² 11,8 °C 12,7 °C 0,0 km/h (0 Bft)
21.08.2019 23:19 12,7 °C 94 % 1024,0 hPa 0,0 mm 0,0 km/h (0 Bft) O-NO 64 ° 0 min 0,000 mm 0,0 UV-I 0 W/m² 11,8 °C 12,7 °C 0,0 km/h (0 Bft)
21.08.2019 23:20 12,7 °C 94 % 1023,9 hPa 0,0 mm 0,0 km/h (0 Bft) O-NO 64 ° 0 min 0,000 mm 0,0 UV-I 0 W/m² 11,8 °C 12,7 °C 0,0 km/h (0 Bft)
21.08.2019 23:21 12,7 °C 94 % 1024,0 hPa 0,0 mm 0,0 km/h (0 Bft) O-NO 64 ° 0 min 0,000 mm 0,0 UV-I 0 W/m² 11,8 °C 12,7 °C 0,0 km/h (0 Bft)
21.08.2019 23:22 12,7 °C 94 % 1023,9 hPa 0,0 mm 0,4 km/h (0 Bft) O-NO 64 ° 0 min 0,000 mm 0,0 UV-I 0 W/m² 11,8 °C 12,7 °C 1,6 km/h (1 Bft)
21.08.2019 23:23 12,7 °C 94 % 1024,0 hPa 0,0 mm 0,0 km/h (0 Bft) O-NO 64 ° 0 min 0,000 mm 0,0 UV-I 0 W/m² 11,8 °C 12,7 °C 0,0 km/h (0 Bft)
21.08.2019 23:24 12,7 °C 94 % 1024,0 hPa 0,0 mm 0,0 km/h (0 Bft) O-NO 64 ° 0 min 0,000 mm 0,0 UV-I 0 W/m² 11,8 °C 12,7 °C 0,0 km/h (0 Bft)
21.08.2019 23:25 12,7 °C 94 % 1024,0 hPa 0,0 mm 0,5 km/h (0 Bft) O-NO 64 ° 0 min 0,000 mm 0,0 UV-I 0 W/m² 11,8 °C 12,7 °C 3,2 km/h (1 Bft)
21.08.2019 23:26 12,7 °C 94 % 1024,0 hPa 0,0 mm 3,3 km/h (1 Bft) O-SO 112 ° 0 min 0,000 mm 0,0 UV-I 0 W/m² 11,8 °C 12,7 °C 4,8 km/h (1 Bft)
21.08.2019 23:27 12,7 °C 94 % 1024,0 hPa 0,0 mm 2,7 km/h (1 Bft) O-SO 112 ° 0 min 0,000 mm 0,0 UV-I 0 W/m² 11,8 °C 12,7 °C 4,8 km/h (1 Bft)
21.08.2019 23:28 12,7 °C 94 % 1024,0 hPa 0,0 mm 0,6 km/h (0 Bft) O-SO 112 ° 0 min 0,000 mm 0,0 UV-I 0 W/m² 11,8 °C 12,7 °C 1,6 km/h (1 Bft)
21.08.2019 23:29 12,8 °C 95 % 1024,0 hPa 0,0 mm 0,0 km/h (0 Bft) O-SO 112 ° 0 min 0,000 mm 0,0 UV-I 0 W/m² 12,0 °C 12,8 °C 0,0 km/h (0 Bft)
21.08.2019 23:30 12,7 °C 94 % 1024,0 hPa 0,0 mm 0,0 km/h (0 Bft) O-SO 112 ° 0 min 0,000 mm 0,0 UV-I 0 W/m² 11,8 °C 12,7 °C 0,0 km/h (0 Bft)
21.08.2019 23:31 12,7 °C 94 % 1024,0 hPa 0,0 mm 0,3 km/h (0 Bft) O-SO 112 ° 0 min 0,000 mm 0,0 UV-I 0 W/m² 11,8 °C 12,7 °C 1,6 km/h (1 Bft)
21.08.2019 23:32 12,8 °C 95 % 1023,9 hPa 0,0 mm 3,5 km/h (1 Bft) O-SO 112 ° 0 min 0,000 mm 0,0 UV-I 0 W/m² 12,0 °C 12,8 °C 6,4 km/h (2 Bft)
21.08.2019 23:33 12,8 °C 95 % 1023,9 hPa 0,0 mm 0,3 km/h (0 Bft) O-SO 112 ° 0 min 0,000 mm 0,0 UV-I 0 W/m² 12,0 °C 12,8 °C 1,6 km/h (1 Bft)
21.08.2019 23:34 12,8 °C 95 % 1023,9 hPa 0,0 mm 2,4 km/h (1 Bft) O-SO 107 ° 0 min 0,000 mm 0,0 UV-I 0 W/m² 12,0 °C 12,8 °C 6,4 km/h (2 Bft)
21.08.2019 23:35 12,8 °C 95 % 1023,9 hPa 0,0 mm 2,7 km/h (1 Bft) O-SO 109 ° 0 min 0,000 mm 0,0 UV-I 0 W/m² 12,0 °C 12,8 °C 6,4 km/h (2 Bft)
21.08.2019 23:36 12,8 °C 95 % 1023,9 hPa 0,0 mm 1,3 km/h (1 Bft) O-NO 69 ° 0 min 0,000 mm 0,0 UV-I 0 W/m² 12,0 °C 12,8 °C 3,2 km/h (1 Bft)
21.08.2019 23:37 12,8 °C 95 % 1023,9 hPa 0,0 mm 0,6 km/h (0 Bft) O-NO 69 ° 0 min 0,000 mm 0,0 UV-I 0 W/m² 12,0 °C 12,8 °C 3,2 km/h (1 Bft)
21.08.2019 23:38 12,8 °C 95 % 1023,9 hPa 0,0 mm 2,1 km/h (1 Bft) O-NO 69 ° 0 min 0,000 mm 0,0 UV-I 0 W/m² 12,0 °C 12,8 °C 3,2 km/h (1 Bft)
21.08.2019 23:39 12,8 °C 95 % 1023,9 hPa 0,0 mm 0,5 km/h (0 Bft) O-NO 69 ° 0 min 0,000 mm 0,0 UV-I 0 W/m² 12,0 °C 12,8 °C 3,2 km/h (1 Bft)
21.08.2019 23:40 12,8 °C 95 % 1023,9 hPa 0,0 mm 0,5 km/h (0 Bft) O-NO 69 ° 0 min 0,000 mm 0,0 UV-I 0 W/m² 12,0 °C 12,8 °C 1,6 km/h (1 Bft)
21.08.2019 23:41 12,8 °C 95 % 1023,9 hPa 0,0 mm 0,1 km/h (0 Bft) O-NO 69 ° 0 min 0,000 mm 0,0 UV-I 0 W/m² 12,0 °C 12,8 °C 1,6 km/h (1 Bft)
21.08.2019 23:42 12,8 °C 95 % 1023,9 hPa 0,0 mm 1,4 km/h (1 Bft) O 92 ° 0 min 0,000 mm 0,0 UV-I 0 W/m² 12,0 °C 12,8 °C 3,2 km/h (1 Bft)
21.08.2019 23:43 12,8 °C 95 % 1023,9 hPa 0,0 mm 1,2 km/h (1 Bft) O 92 ° 0 min 0,000 mm 0,0 UV-I 0 W/m² 12,0 °C 12,8 °C 3,2 km/h (1 Bft)
21.08.2019 23:44 12,8 °C 95 % 1023,9 hPa 0,0 mm 0,4 km/h (0 Bft) O 92 ° 0 min 0,000 mm 0,0 UV-I 0 W/m² 12,0 °C 12,8 °C 1,6 km/h (1 Bft)
21.08.2019 23:45 12,8 °C 95 % 1023,8 hPa 0,0 mm 0,3 km/h (0 Bft) O 92 ° 0 min 0,000 mm 0,0 UV-I 0 W/m² 12,0 °C 12,8 °C 1,6 km/h (1 Bft)
21.08.2019 23:46 12,8 °C 95 % 1023,9 hPa 0,0 mm 0,5 km/h (0 Bft) O 92 ° 0 min 0,000 mm 0,0 UV-I 0 W/m² 12,0 °C 12,8 °C 1,6 km/h (1 Bft)
21.08.2019 23:47 12,8 °C 95 % 1023,8 hPa 0,0 mm 1,1 km/h (1 Bft) O 92 ° 0 min 0,000 mm 0,0 UV-I 0 W/m² 12,0 °C 12,8 °C 3,2 km/h (1 Bft)
21.08.2019 23:48 12,8 °C 95 % 1023,8 hPa 0,0 mm 0,9 km/h (0 Bft) O 92 ° 0 min 0,000 mm 0,0 UV-I 0 W/m² 12,0 °C 12,8 °C 1,6 km/h (1 Bft)
21.08.2019 23:49 12,8 °C 95 % 1023,8 hPa 0,0 mm 1,4 km/h (1 Bft) O 92 ° 0 min 0,000 mm 0,0 UV-I 0 W/m² 12,0 °C 12,8 °C 3,2 km/h (1 Bft)
21.08.2019 23:50 12,8 °C 95 % 1023,8 hPa 0,0 mm 0,1 km/h (0 Bft) O 92 ° 0 min 0,000 mm 0,0 UV-I 0 W/m² 12,0 °C 12,8 °C 1,6 km/h (1 Bft)
21.08.2019 23:51 12,8 °C 95 % 1023,8 hPa 0,0 mm 0,0 km/h (0 Bft) O 92 ° 0 min 0,000 mm 0,0 UV-I 0 W/m² 12,0 °C 12,8 °C 0,0 km/h (0 Bft)
21.08.2019 23:52 12,8 °C 95 % 1023,8 hPa 0,0 mm 0,0 km/h (0 Bft) O 92 ° 0 min 0,000 mm 0,0 UV-I 0 W/m² 12,0 °C 12,8 °C 0,0 km/h (0 Bft)
21.08.2019 23:53 12,8 °C 95 % 1023,8 hPa 0,0 mm 1,2 km/h (1 Bft) O 92 ° 0 min 0,000 mm 0,0 UV-I 0 W/m² 12,0 °C 12,8 °C 3,2 km/h (1 Bft)
21.08.2019 23:54 12,8 °C 95 % 1023,8 hPa 0,0 mm 0,4 km/h (0 Bft) O 92 ° 0 min 0,000 mm 0,0 UV-I 0 W/m² 12,0 °C 12,8 °C 3,2 km/h (1 Bft)
21.08.2019 23:55 12,8 °C 95 % 1023,8 hPa 0,0 mm 2,5 km/h (1 Bft) O 92 ° 0 min 0,000 mm 0,0 UV-I 0 W/m² 12,0 °C 12,8 °C 4,8 km/h (1 Bft)
21.08.2019 23:56 12,8 °C 95 % 1023,8 hPa 0,0 mm 0,0 km/h (0 Bft) O 92 ° 0 min 0,000 mm 0,0 UV-I 0 W/m² 12,0 °C 12,8 °C 0,0 km/h (0 Bft)
21.08.2019 23:57 12,8 °C 95 % 1023,8 hPa 0,0 mm 0,0 km/h (0 Bft) O 92 ° 0 min 0,000 mm 0,0 UV-I 0 W/m² 12,0 °C 12,8 °C 0,0 km/h (0 Bft)
21.08.2019 23:58 12,8 °C 95 % 1023,8 hPa 0,0 mm 0,0 km/h (0 Bft) O 92 ° 0 min 0,000 mm 0,0 UV-I 0 W/m² 12,0 °C 12,8 °C 0,0 km/h (0 Bft)
21.08.2019 23:59 12,8 °C 95 % 1023,7 hPa 0,0 mm 0,0 km/h (0 Bft) O 92 ° 0 min 0,000 mm 0,0 UV-I 0 W/m² 12,0 °C 12,8 °C 0,0 km/h (0 Bft)
_ Min-Zeit 07:09 14:29 23:59 - 23:59 - - - - - - 07:09 07:09 23:59
Minimum _ 10,6 °C 86 % 1023,7 hPa - 0,0 km/h (0 Bft) - - - - - - 9,8 °C 10,6 °C 0,0 km/h (0 Bft)
_ Max-Zeit 16:19 04:08 10:32 18:47 13:35 - - 23:59 14:01 13:17 13:19 17:38 16:19 11:43
Maximum _ 14,8 °C 96 % 1026,4 hPa 0,2 mm 12,0 km/h
O (2 Bft)
- - 0 min 0,152 mm 3,5 UV-I 436 W/m² 13,1 °C 14,8 °C 17,7 km/h
O-NO (3 Bft)
Durchschnitt _ 12,5 °C 93 % 1025,3 hPa #12,0 mm 1,8 km/h (1 Bft) O-NO - #0 min. #0,991 mm 1,3 UV-I 75 W/m² 11,4 °C 12,5 °C 3,4 km/h (1 Bft)